GFSGL_925_temp_015.txt.gz
Temp
12 11 11 11 10 9 8 7 7 6 6 5 5 5 4 4 4 4 3 3 2 2 1 1 1 1 2 2 2 2 2 2 1 2 2 3 3 3 4 4 4 4 3
12 11 11 10 9 9 8 7 7 6 5 5 5 4 4 4 3 3 3 2 1 1 0 0 -0 -0 1 1 1 2 2 2 1 -0 0 1 1 2 3 3 4 4 4
12 11 10 9 8 7 7 7 6 5 5 5 4 4 3 3 3 2 2 1 0 -0 -1 -1 -1 -1 -1 -1 0 1 1 1 0 -0 -1 -0 0 1 1 2 3 3 4
11 10 10 8 7 6 6 6 5 5 5 4 4 3 3 3 2 2 1 -0 -1 -2 -2 -3 -3 -3 -2 -2 -1 -1 0 0 -0 -0 -1 -1 -1 -1 0 1 1 2 2
11 10 10 8 7 6 5 4 2 5 5 4 4 3 3 2 1 0 -1 -2 -2 -3 -3 -4 -4 -4 -3 -2 -2 -2 -2 -1 -1 -1 -2 -2 -2 -1 -2 -2 -2 -1 0
9 9 8 7 6 4 4 2 4 4 4 4 3 3 2 1 -0 -1 -2 -2 -3 -4 -4 -4 -5 -5 -4 -4 -3 -3 -3 -3 -2 -3 -3 -3 -3 -2 -2 -2 -3 -2 -3
8 7 5 5 4 4 3 3 4 4 4 3 3 2 1 0 -1 -2 -2 -3 -4 -4 -5 -5 -5 -5 -5 -5 -4 -4 -4 -3 -4 -3 -4 -3 -3 -3 -3 -3 -3 -3 -3
7 6 5 4 4 3 2 2 3 3 3 2 1 1 -0 -1 -2 -3 -3 -4 -5 -5 -5 -5 -6 -6 -5 -5 -5 -5 -4 -4 -4 -4 -3 -3 -3 -3 -4 -4 -4 -4 -3
5 5 4 3 2 2 1 3 1 3 2 2 1 -0 -1 -2 -3 -4 -4 -5 -6 -6 -6 -6 -6 -6 -6 -6 -6 -6 -5 -5 -5 -4 -4 -4 -4 -4 -4 -4 -4 -4 -4
4 4 3 3 2 2 2 2 3 3 1 0 -1 -2 -2 -3 -4 -5 -5 -7 -7 -7 -7 -7 -7 -7 -6 -6 -6 -6 -6 -6 -6 -5 -5 -4 -4 -4 -4 -4 -4 -4 -4
4 3 3 3 2 2 2 3 3 1 -0 -1 -2 -3 -3 -4 -5 -6 -7 -7 -8 -8 -8 -8 -8 -7 -7 -6 -6 -6 -7 -7 -6 -7 -7 -6 -6 -5 -5 -4 -4 -4 -4
3 2 2 2 2 2 3 2 1 0 -1 -2 -3 -3 -4 -5 -6 -7 -8 -8 -8 -8 -9 -8 -8 -7 -7 -7 -7 -6 -6 -6 -6 -7 -7 -6 -6 -5 -4 -4 -4 -4 -4
2 2 2 2 2 2 1 1 0 -1 -2 -3 -3 -4 -5 -6 -7 -8 -8 -8 -8 -9 -9 -8 -8 -8 -8 -7 -7 -7 -7 -6 -6 -6 -6 -5 -5 -5 -4 -4 -3 -3 -3
1 1 1 0 1 1 1 -0 -1 -2 -2 -3 -4 -5 -6 -7 -8 -8 -8 -8 -8 -8 -8 -8 -9 -9 -8 -8 -8 -8 -7 -7 -7 -7 -6 -6 -5 -5 -4 -4 -4 -2 -3
0 -1 -1 -0 -0 -0 -0 -1 -2 -2 -3 -3 -4 -5 -6 -8 -8 -8 -8 -8 -8 -9 -9 -9 -9 -9 -9 -8 -8 -8 -8 -7 -7 -7 -6 -6 -6 -5 -5 -4 -4 -3 -3
-0 -1 -1 -1 -1 -1 -2 -2 -3 -3 -3 -3 -4 -5 -7 -8 -8 -7 -8 -8 -8 -9 -9 -10 -9 -9 -9 -9 -9 -9 -9 -8 -8 -8 -7 -6 -6 -6 -5 -5 -4 -4 -4
-0 -1 -1 -1 -2 -2 -2 -3 -3 -3 -3 -4 -4 -5 -7 -8 -7 -7 -8 -9 -9 -9 -10 -10 -10 -10 -10 -10 -10 -10 -10 -8 -9 -8 -8 -8 -7 -6 -6 -5 -5 -5 -5
-1 -1 -1 -2 -2 -3 -3 -3 -3 -4 -4 -4 -4 -5 -7 -7 -7 -8 -8 -9 -10 -10 -10 -10 -10 -10 -11 -11 -11 -11 -10 -10 -10 -9 -9 -9 -8 -6 -6 -6 -5 -5 -5
-1 -1 -1 -2 -3 -3 -3 -3 -4 -4 -4 -4 -4 -6 -7 -7 -7 -8 -9 -9 -10 -10 -11 -11 -11 -11 -11 -11 -11 -11 -11 -11 -11 -11 -10 -10 -9 -8 -7 -6 -6 -6 -6
-1 -1 -2 -2 -3 -3 -3 -4 -4 -4 -4 -4 -5 -5 -6 -7 -7 -8 -9 -9 -10 -10 -11 -11 -12 -12 -12 -12 -12 -12 -12 -12 -12 -12 -11 -10 -10 -9 -9 -7 -7 -6 -6
-2 -3 -3 -3 -3 -3 -4 -4 -4 -4 -5 -5 -5 -5 -6 -6 -7 -8 -8 -9 -9 -10 -11 -11 -12 -12 -12 -13 -13 -13 -13 -13 -13 -13 -12 -11 -10 -10 -9 -8 -7 -7 -7
-2 -3 -3 -3 -3 -3 -3 -4 -4 -4 -5 -5 -5 -5 -6 -6 -7 -8 -8 -8 -9 -9 -10 -11 -11 -12 -12 -13 -13 -13 -13 -13 -13 -13 -12 -12 -11 -11 -10 -9 -9 -8 -8
-3 -3 -3 -3 -4 -3 -4 -4 -4 -4 -5 -5 -5 -5 -5 -6 -7 -7 -8 -8 -9 -9 -10 -10 -11 -12 -12 -13 -13 -13 -13 -13 -13 -13 -13 -12 -12 -12 -11 -10 -10 -9 -9
-3 -3 -3 -3 -3 -4 -4 -4 -4 -4 -4 -5 -5 -5 -5 -6 -6 -7 -7 -8 -8 -9 -10 -10 -11 -11 -12 -13 -13 -13 -13 -12 -12 -13 -13 -13 -13 -12 -11 -11 -11 -10 -10
-3 -3 -3 -4 -4 -4 -4 -4 -4 -4 -4 -5 -5 -5 -5 -6 -6 -7 -7 -8 -8 -9 -9 -10 -11 -11 -12 -13 -13 -13 -12 -12 -12 -13 -13 -13 -13 -13 -12 -12 -11 -11 -11
-3 -3 -3 -3 -4 -4 -4 -4 -4 -4 -4 -5 -5 -6 -6 -6 -6 -7 -7 -8 -8 -9 -9 -10 -11 -11 -12 -13 -13 -13 -12 -12 -12 -13 -13 -14 -14 -13 -13 -13 -12 -12 -12

GFSGL_925_temp_018.txt.gz
Temp
12 12 11 11 10 9 8 7 7 6 5 5 5 4 4 4 3 3 3 2 1 1 1 -0 -0 -1 -1 -1 -1 -0 -0 0 1 2 1 1 2 2 3 3 3 3 3
12 11 10 10 9 8 7 7 6 5 5 5 4 4 4 3 3 3 2 2 1 -0 -1 -1 -2 -2 -2 -2 -2 -2 -1 -0 0 -1 -0 0 0 1 1 2 2 2 2
11 10 9 9 9 8 7 6 5 4 4 3 4 4 4 3 3 2 1 0 -1 -1 -2 -2 -3 -3 -4 -4 -3 -3 -2 -2 -1 -1 -1 -1 -1 -0 -0 -0 1 1 2
9 9 8 8 7 7 6 5 4 3 3 3 3 3 3 3 2 1 0 -0 -1 -2 -3 -3 -4 -4 -5 -4 -4 -3 -3 -3 -2 -2 -2 -2 -1 -1 -1 -1 -1 -1 -0
8 8 7 6 6 6 5 4 3 3 3 2 3 3 3 2 1 0 -1 -2 -2 -3 -3 -4 -4 -5 -5 -4 -4 -5 -4 -4 -4 -3 -3 -3 -2 -2 -2 -2 -3 -3 -2
8 7 6 5 5 5 4 3 3 2 3 3 3 3 1 1 -0 -1 -2 -3 -3 -4 -5 -5 -5 -5 -5 -5 -5 -5 -4 -5 -5 -4 -4 -4 -3 -3 -3 -3 -3 -4 -5
6 5 5 4 4 3 3 2 1 1 2 2 2 1 0 -1 -2 -3 -3 -4 -5 -5 -5 -6 -6 -6 -6 -6 -6 -6 -5 -5 -4 -4 -4 -4 -4 -3 -3 -3 -4 -4 -4
5 5 4 4 3 3 2 1 1 1 1 1 1 -1 -1 -2 -3 -4 -5 -5 -6 -6 -7 -7 -7 -7 -7 -7 -6 -5 -6 -6 -5 -5 -4 -4 -4 -4 -4 -4 -4 -4 -4
5 4 3 3 3 2 1 1 1 1 1 0 -1 -2 -2 -3 -5 -5 -6 -6 -7 -7 -7 -8 -7 -8 -7 -6 -7 -6 -6 -6 -6 -6 -5 -5 -5 -5 -4 -4 -5 -4 -4
4 3 3 2 2 2 2 2 2 1 1 -1 -2 -3 -3 -5 -5 -6 -6 -7 -8 -8 -8 -8 -8 -8 -8 -7 -6 -6 -7 -7 -6 -6 -6 -6 -5 -5 -5 -5 -5 -5 -5
3 3 2 2 1 2 2 2 1 0 -1 -2 -3 -4 -5 -5 -6 -7 -7 -8 -8 -8 -9 -9 -8 -8 -7 -7 -7 -7 -7 -6 -6 -6 -6 -6 -6 -6 -5 -5 -5 -5 -6
2 2 1 1 1 1 1 1 -0 -1 -2 -3 -3 -4 -5 -6 -7 -8 -8 -8 -8 -8 -9 -9 -8 -8 -8 -8 -7 -7 -7 -6 -6 -6 -7 -6 -6 -5 -5 -5 -4 -4 -5
2 1 0 0 0 0 0 -0 -1 -2 -3 -3 -4 -5 -5 -6 -7 -7 -8 -8 -8 -8 -9 -8 -9 -9 -9 -8 -8 -8 -8 -7 -7 -7 -6 -6 -6 -5 -5 -4 -4 -4 -4
1 0 -1 -1 -1 -0 -1 -1 -2 -3 -3 -4 -4 -5 -6 -6 -7 -7 -8 -8 -8 -9 -9 -9 -9 -9 -9 -9 -9 -9 -8 -8 -8 -7 -7 -6 -6 -5 -5 -4 -4 -3 -3
1 0 -1 -1 -1 -1 -2 -3 -3 -3 -3 -4 -4 -5 -6 -7 -7 -7 -7 -8 -8 -9 -9 -9 -10 -10 -10 -10 -10 -9 -9 -9 -8 -8 -7 -7 -6 -6 -5 -5 -4 -4 -4
-0 -0 -1 -1 -2 -2 -3 -3 -3 -3 -4 -4 -4 -5 -6 -7 -8 -7 -8 -8 -9 -10 -10 -10 -11 -11 -11 -11 -11 -10 -10 -9 -9 -9 -9 -8 -7 -6 -6 -5 -5 -5 -5
-2 -1 -1 -1 -2 -2 -3 -3 -3 -3 -4 -4 -4 -5 -6 -7 -7 -7 -8 -9 -10 -10 -11 -11 -11 -11 -11 -11 -12 -11 -11 -11 -11 -10 -10 -9 -8 -7 -6 -6 -6 -5 -5
-2 -2 -1 -2 -2 -3 -3 -3 -4 -4 -4 -4 -4 -5 -6 -7 -7 -8 -8 -9 -10 -10 -11 -11 -12 -12 -12 -12 -12 -12 -12 -12 -12 -11 -11 -10 -9 -9 -8 -7 -6 -6 -6
-2 -2 -2 -2 -2 -3 -3 -3 -4 -4 -4 -5 -5 -5 -6 -6 -7 -7 -8 -9 -10 -10 -11 -11 -12 -12 -12 -12 -13 -13 -13 -13 -13 -12 -11 -11 -10 -10 -9 -8 -7 -7 -7
-2 -2 -2 -3 -3 -3 -3 -4 -4 -4 -5 -5 -5 -5 -6 -6 -7 -7 -8 -9 -9 -10 -10 -11 -12 -12 -12 -13 -13 -13 -13 -13 -13 -12 -12 -11 -11 -10 -10 -9 -8 -8 -8
-2 -2 -3 -3 -4 -4 -4 -4 -4 -5 -4 -5 -5 -5 -5 -6 -6 -7 -8 -8 -9 -9 -10 -11 -11 -12 -12 -13 -13 -13 -13 -13 -13 -13 -12 -12 -11 -11 -10 -10 -9 -9 -8
-2 -3 -3 -3 -3 -4 -4 -4 -4 -4 -4 -5 -5 -5 -5 -6 -6 -7 -7 -8 -8 -9 -10 -10 -11 -11 -12 -13 -13 -13 -13 -13 -12 -13 -13 -12 -12 -12 -11 -10 -10 -9 -9
-3 -3 -3 -3 -4 -4 -4 -4 -4 -4 -4 -5 -5 -5 -5 -5 -6 -6 -7 -7 -8 -9 -9 -10 -11 -11 -12 -12 -13 -13 -13 -13 -13 -13 -13 -13 -13 -13 -12 -11 -11 -10 -10
-3 -3 -3 -3 -4 -4 -4 -4 -4 -4 -4 -4 -5 -5 -5 -5 -6 -6 -7 -7 -8 -8 -9 -10 -10 -11 -11 -12 -12 -13 -13 -12 -12 -13 -13 -13 -13 -13 -12 -12 -11 -11 -11
-3 -3 -3 -3 -3 -4 -4 -4 -4 -4 -4 -4 -5 -5 -5 -6 -6 -6 -7 -7 -8 -8 -9 -9 -10 -11 -11 -12 -12 -13 -13 -12 -12 -13 -13 -13 -13 -13 -13 -13 -12 -12 -12
-3 -3 -3 -3 -3 -4 -4 -4 -4 -4 -4 -4 -4 -5 -5 -6 -6 -6 -6 -7 -7 -8 -9 -9 -10 -11 -11 -12 -12 -13 -12 -12 -12 -13 -13 -14 -14 -13 -13 -13 -13 -13 -13

GFSGL_925_temp_021.txt.gz
Temp
11 10 10 10 9 9 9 8 6 6 6 5 4 4 4 4 3 3 3 2 2 1 0 -1 -1 -1 -2 -2 -2 -2 -2 -2 -2 -1 -0 1 1 1 2 2 2 2 2
10 9 9 9 8 7 7 6 6 6 5 4 3 3 3 3 3 3 2 1 1 -0 -1 -2 -2 -3 -3 -3 -4 -4 -4 -4 -3 -3 -2 -0 0 0 0 0 1 1 1
9 9 9 8 8 7 7 7 6 6 5 4 3 2 3 3 3 2 1 1 -0 -1 -2 -3 -3 -4 -4 -4 -5 -5 -5 -4 -4 -4 -3 -2 -1 -1 -1 -1 -0 -0 0
9 8 8 7 6 6 5 5 5 4 3 3 3 3 2 2 2 1 0 -1 -2 -2 -3 -4 -4 -4 -5 -5 -5 -5 -5 -5 -5 -4 -4 -4 -3 -1 -2 -2 -1 -1 -1
8 8 7 6 5 4 4 4 3 2 2 2 2 2 2 2 1 0 -1 -2 -3 -3 -4 -4 -5 -5 -5 -5 -5 -5 -5 -6 -5 -4 -4 -4 -4 -3 -3 -2 -2 -2 -2
7 7 6 5 4 4 4 3 2 2 1 2 1 2 1 -0 -1 -2 -3 -3 -4 -5 -5 -6 -6 -6 -6 -6 -6 -6 -6 -6 -5 -5 -5 -4 -4 -4 -3 -3 -3 -4 -5
6 5 5 4 3 3 3 2 1 0 0 1 1 0 -1 -1 -2 -3 -4 -5 -5 -6 -7 -7 -7 -7 -7 -7 -7 -7 -6 -6 -5 -5 -6 -5 -5 -4 -4 -4 -4 -4 -4
5 4 3 3 3 2 2 1 1 1 0 0 -0 -1 -2 -3 -4 -5 -5 -6 -7 -7 -8 -8 -8 -8 -8 -7 -7 -6 -6 -6 -6 -6 -6 -5 -5 -5 -5 -4 -4 -5 -5
4 3 3 3 2 2 1 1 1 1 0 -0 -1 -2 -3 -4 -5 -6 -6 -7 -8 -8 -8 -8 -8 -8 -8 -7 -6 -6 -6 -6 -6 -6 -6 -6 -6 -6 -5 -5 -5 -5 -5
4 3 3 2 1 1 1 1 1 1 -0 -2 -2 -3 -4 -5 -6 -7 -7 -8 -8 -9 -8 -8 -8 -8 -7 -7 -7 -7 -7 -6 -6 -6 -6 -6 -6 -6 -5 -5 -5 -6 -5
3 3 2 1 1 1 1 1 1 -0 -1 -2 -3 -4 -5 -6 -6 -7 -7 -8 -8 -8 -9 -9 -9 -8 -8 -8 -7 -7 -7 -7 -6 -7 -6 -6 -6 -6 -6 -6 -5 -6 -6
3 2 1 0 0 0 1 1 -0 -1 -2 -3 -4 -5 -5 -6 -7 -7 -8 -8 -8 -8 -9 -9 -9 -8 -8 -8 -8 -8 -8 -7 -7 -7 -7 -6 -6 -6 -5 -5 -5 -5 -5
2 1 0 -0 -0 -0 -0 -1 -2 -2 -3 -3 -4 -5 -5 -6 -7 -7 -8 -8 -8 -9 -9 -9 -9 -9 -9 -9 -9 -9 -8 -8 -8 -8 -7 -7 -6 -6 -5 -5 -4 -4 -4
1 0 -0 -1 -1 -1 -1 -2 -2 -3 -3 -4 -4 -5 -5 -6 -7 -7 -8 -8 -8 -9 -9 -9 -10 -10 -10 -10 -10 -9 -9 -9 -9 -9 -8 -7 -7 -6 -5 -5 -5 -4 -4
0 -0 -2 -1 -1 -2 -2 -2 -3 -3 -4 -4 -4 -5 -5 -6 -7 -7 -7 -8 -9 -9 -10 -10 -11 -11 -11 -11 -11 -10 -10 -10 -10 -10 -9 -9 -8 -7 -6 -5 -5 -5 -4
-1 -1 -2 -2 -2 -2 -3 -3 -4 -4 -4 -4 -4 -5 -5 -6 -7 -7 -7 -9 -9 -10 -10 -11 -11 -12 -12 -12 -12 -12 -12 -12 -11 -11 -10 -10 -9 -8 -7 -6 -5 -5 -5
-1 -2 -2 -2 -3 -3 -3 -3 -3 -4 -4 -4 -4 -5 -5 -6 -7 -7 -8 -9 -10 -10 -11 -11 -12 -12 -12 -12 -13 -13 -13 -12 -12 -11 -11 -10 -10 -9 -8 -7 -7 -6 -6
-2 -2 -2 -3 -3 -3 -3 -3 -4 -4 -4 -4 -5 -5 -5 -6 -7 -8 -8 -8 -9 -10 -11 -11 -12 -12 -12 -13 -13 -13 -13 -13 -12 -12 -11 -11 -10 -10 -9 -9 -8 -8 -7
-2 -2 -2 -3 -2 -3 -3 -3 -4 -4 -4 -5 -5 -5 -5 -6 -7 -7 -8 -8 -9 -10 -10 -11 -12 -12 -12 -13 -13 -13 -13 -13 -13 -12 -12 -11 -11 -11 -10 -10 -9 -8 -8
-2 -2 -3 -3 -3 -3 -4 -4 -4 -4 -4 -5 -5 -5 -5 -6 -6 -7 -7 -8 -9 -9 -10 -11 -11 -12 -12 -12 -13 -13 -13 -13 -13 -13 -12 -12 -12 -11 -11 -11 -10 -10 -9
-2 -2 -3 -3 -3 -3 -4 -4 -4 -4 -4 -4 -5 -5 -5 -6 -6 -7 -7 -8 -8 -9 -10 -10 -11 -11 -12 -12 -13 -13 -13 -13 -13 -13 -13 -12 -12 -12 -11 -11 -10 -10 -9
-2 -3 -3 -3 -3 -3 -4 -4 -4 -4 -4 -5 -4 -5 -5 -6 -6 -6 -7 -7 -8 -8 -9 -10 -10 -11 -11 -12 -13 -13 -13 -12 -12 -12 -13 -13 -13 -12 -12 -11 -10 -10 -10
-3 -4 -3 -3 -3 -4 -4 -4 -4 -4 -4 -4 -4 -5 -5 -5 -6 -6 -6 -7 -7 -8 -9 -9 -10 -11 -11 -12 -12 -13 -13 -13 -12 -13 -13 -13 -13 -13 -12 -12 -12 -11 -11
-3 -3 -3 -3 -3 -4 -4 -4 -4 -4 -4 -4 -4 -5 -5 -5 -5 -6 -6 -7 -7 -8 -8 -9 -10 -10 -11 -11 -12 -12 -13 -12 -12 -13 -13 -13 -13 -13 -13 -12 -12 -12 -11
-3 -3 -3 -3 -4 -4 -4 -4 -4 -4 -4 -4 -4 -4 -5 -5 -6 -6 -6 -7 -7 -7 -8 -9 -9 -10 -11 -11 -12 -12 -13 -12 -12 -12 -13 -13 -14 -13 -13 -13 -13 -13 -12
-3 -3 -3 -3 -3 -3 -4 -4 -4 -4 -4 -4 -4 -4 -4 -5 -5 -6 -6 -6 -7 -7 -8 -8 -9 -10 -10 -11 -12 -12 -12 -12 -12 -12 -13 -13 -14 -14 -13 -13 -13 -13 -13

GFSGL_925_temp_024.txt.gz
Temp
11 10 9 9 9 8 8 7 7 7 6 6 5 3 3 2 1 3 3 2 2 1 0 -1 -1 -1 -2 -3 -3 -4 -4 -4 -4 -4 -3 -3 -2 -1 0 1 1 1 1
9 9 9 8 8 7 6 6 6 6 6 4 3 3 3 2 2 2 2 1 1 -0 -1 -2 -2 -3 -3 -4 -4 -5 -5 -5 -5 -5 -4 -4 -3 -2 -1 -0 0 0 0
9 9 8 7 7 6 6 5 5 5 4 3 2 2 2 2 2 2 1 0 -1 -1 -2 -3 -3 -4 -4 -5 -5 -5 -5 -6 -6 -5 -5 -4 -4 -3 -2 -1 -1 -1 -1
8 8 7 7 6 5 5 4 4 3 3 2 2 2 1 1 1 1 -0 -1 -2 -2 -3 -4 -4 -5 -5 -5 -6 -6 -6 -6 -6 -6 -5 -5 -4 -3 -3 -3 -2 -1 -1
8 7 6 5 5 4 4 3 3 2 2 1 1 1 1 1 1 -0 -1 -2 -3 -4 -5 -5 -6 -6 -6 -6 -6 -6 -6 -7 -6 -6 -6 -5 -5 -4 -4 -4 -4 -2 -2
7 6 5 5 5 4 3 2 2 1 0 0 -1 1 1 -0 -1 -2 -3 -4 -4 -5 -6 -7 -7 -7 -7 -7 -7 -7 -7 -7 -6 -6 -6 -5 -5 -5 -5 -5 -5 -5 -4
6 5 5 4 3 3 2 1 1 1 -0 0 0 -1 -1 -2 -2 -3 -5 -5 -6 -7 -8 -8 -8 -8 -8 -8 -8 -7 -7 -6 -6 -7 -6 -6 -6 -5 -5 -5 -5 -5 -5
5 5 4 3 2 2 1 1 1 0 0 -0 -1 -2 -2 -3 -4 -5 -6 -6 -7 -8 -8 -8 -9 -8 -8 -7 -7 -7 -7 -7 -6 -6 -6 -6 -6 -6 -6 -6 -5 -5 -5
5 4 3 2 2 1 1 1 1 1 0 -1 -2 -2 -3 -4 -5 -5 -7 -7 -8 -8 -8 -8 -8 -8 -8 -7 -7 -7 -7 -7 -7 -6 -6 -6 -6 -6 -6 -6 -5 -5 -5
4 3 3 2 1 1 1 1 1 0 -0 -2 -2 -3 -4 -4 -5 -7 -7 -7 -8 -8 -8 -9 -9 -8 -8 -7 -7 -8 -7 -7 -7 -7 -6 -6 -6 -6 -6 -6 -6 -6 -5
3 3 2 2 1 0 0 0 0 -1 -1 -2 -3 -3 -4 -5 -6 -7 -7 -7 -8 -8 -9 -9 -9 -9 -8 -8 -8 -8 -8 -8 -8 -8 -7 -7 -6 -6 -6 -6 -6 -6 -6
2 2 1 1 0 -0 -0 -0 -0 -2 -2 -3 -3 -4 -5 -5 -6 -7 -8 -8 -8 -9 -9 -10 -9 -9 -9 -9 -9 -9 -9 -8 -8 -8 -8 -7 -7 -6 -6 -6 -5 -5 -6
1 1 0 0 -1 -1 -1 -1 -2 -2 -3 -3 -4 -4 -5 -6 -6 -7 -8 -8 -8 -9 -9 -10 -10 -10 -10 -10 -10 -10 -9 -10 -10 -9 -9 -8 -8 -7 -6 -5 -5 -5 -5
1 1 -0 -1 -1 -1 -2 -2 -3 -3 -3 -3 -4 -5 -5 -6 -6 -7 -7 -8 -9 -9 -10 -10 -10 -10 -10 -10 -10 -10 -11 -11 -11 -10 -10 -9 -8 -7 -6 -6 -5 -4 -4
-0 -0 -1 -1 -2 -2 -2 -2 -3 -3 -4 -4 -4 -5 -5 -5 -6 -7 -7 -8 -9 -9 -10 -10 -11 -11 -11 -12 -12 -12 -12 -11 -11 -11 -11 -10 -9 -8 -7 -6 -6 -5 -5
-2 -2 -2 -2 -2 -3 -3 -3 -3 -3 -4 -4 -5 -5 -5 -5 -6 -7 -7 -8 -9 -9 -10 -11 -11 -12 -12 -12 -13 -13 -13 -13 -12 -12 -11 -11 -10 -9 -8 -7 -6 -6 -6
-2 -2 -2 -2 -3 -3 -3 -3 -4 -3 -4 -4 -4 -5 -5 -5 -6 -7 -8 -8 -9 -9 -10 -11 -12 -12 -12 -13 -13 -13 -13 -13 -13 -12 -12 -11 -11 -10 -9 -9 -8 -8 -7
-2 -2 -2 -2 -3 -3 -3 -3 -4 -4 -4 -4 -4 -5 -5 -6 -6 -7 -8 -8 -8 -9 -10 -11 -11 -12 -12 -13 -13 -13 -13 -12 -12 -12 -12 -12 -11 -11 -10 -10 -10 -9 -9
-2 -2 -2 -2 -3 -3 -3 -4 -4 -4 -4 -5 -5 -5 -5 -6 -7 -7 -8 -8 -8 -9 -10 -10 -11 -11 -12 -12 -13 -13 -13 -13 -13 -13 -12 -12 -12 -12 -11 -11 -10 -9 -9
-3 -2 -3 -3 -3 -3 -3 -4 -4 -4 -5 -5 -5 -5 -5 -6 -6 -6 -7 -7 -8 -8 -9 -10 -10 -11 -11 -12 -13 -13 -13 -13 -12 -12 -13 -12 -12 -12 -12 -12 -11 -11 -10
-3 -3 -3 -3 -3 -3 -4 -4 -4 -4 -5 -5 -4 -4 -5 -6 -6 -6 -6 -7 -7 -8 -8 -9 -10 -10 -11 -12 -12 -13 -13 -13 -13 -13 -13 -13 -13 -13 -12 -12 -11 -11 -11
-3 -3 -3 -4 -4 -4 -4 -4 -4 -4 -5 -5 -5 -5 -5 -5 -5 -6 -6 -6 -7 -7 -8 -9 -9 -10 -11 -11 -12 -12 -13 -12 -12 -12 -13 -13 -13 -13 -13 -12 -12 -11 -11
-2 -3 -3 -3 -4 -4 -4 -4 -4 -4 -4 -4 -4 -4 -5 -5 -5 -5 -6 -6 -6 -7 -8 -8 -9 -9 -10 -11 -12 -12 -12 -12 -12 -12 -13 -13 -13 -13 -13 -13 -13 -12 -12
-2 -3 -3 -3 -4 -4 -4 -4 -4 -4 -4 -4 -5 -5 -4 -4 -5 -5 -5 -6 -6 -7 -7 -8 -8 -9 -10 -11 -11 -12 -12 -12 -12 -12 -13 -13 -13 -13 -13 -13 -13 -13 -12
-3 -3 -3 -3 -4 -4 -4 -4 -4 -4 -4 -4 -4 -4 -4 -4 -5 -5 -5 -6 -6 -7 -7 -8 -8 -9 -9 -10 -11 -12 -12 -12 -12 -12 -12 -13 -13 -14 -14 -14 -13 -13 -13
-4 -4 -3 -3 -4 -4 -4 -4 -4 -4 -4 -4 -4 -4 -4 -4 -4 -5 -5 -6 -6 -6 -7 -7 -8 -8 -9 -10 -11 -12 -12 -12 -12 -12 -12 -13 -13 -14 -14 -14 -14 -14 -14

GFSGL_925_temp_027.txt.gz
Temp
10 9 9 9 8 8 7 7 6 6 5 5 4 3 3 3 3 2 1 2 2 1 0 -1 -1 -1 -1 -1 -2 -2 -2 -2 -2 -2 -2 -2 -2 -2 -2 -1 -0 1 1
9 9 9 8 8 7 6 6 5 4 4 3 3 3 2 2 2 1 1 1 1 -0 -1 -1 -1 -2 -2 -2 -3 -3 -3 -3 -3 -3 -3 -3 -2 -2 -2 -2 -1 -0 1
9 9 8 8 7 6 5 5 3 3 2 2 1 2 1 1 1 1 1 1 -1 -1 -2 -2 -2 -3 -3 -3 -3 -3 -4 -4 -5 -4 -4 -3 -3 -3 -2 -2 -1 -1 -0
9 8 7 6 5 5 4 3 2 2 1 1 1 1 1 0 1 1 -0 -2 -2 -2 -3 -3 -4 -4 -4 -4 -4 -5 -5 -5 -5 -5 -4 -4 -3 -3 -4 -2 -2 -1 -0
8 7 6 5 5 4 4 3 2 1 1 1 0 0 0 -0 -1 -1 -2 -2 -3 -3 -4 -5 -5 -6 -6 -6 -6 -5 -6 -6 -5 -5 -4 -4 -3 -3 -3 -3 -3 -3 -3
7 6 5 5 4 4 3 2 1 1 1 0 -0 -0 -1 -2 -2 -2 -2 -3 -4 -4 -5 -5 -6 -6 -6 -7 -7 -7 -7 -6 -6 -5 -4 -4 -3 -4 -3 -3 -3 -3 -2
6 6 5 4 4 3 2 1 1 0 0 0 -0 -1 -2 -3 -2 -3 -4 -4 -5 -5 -6 -6 -6 -6 -7 -7 -6 -6 -6 -6 -6 -6 -6 -5 -4 -4 -4 -4 -4 -4 -3
6 5 4 4 3 2 1 1 1 0 -0 -0 -1 -2 -3 -3 -3 -4 -5 -5 -6 -6 -6 -7 -7 -7 -7 -7 -6 -6 -6 -6 -6 -6 -6 -5 -5 -5 -5 -5 -5 -5 -3
5 4 4 3 2 1 1 0 -0 -0 -0 -1 -2 -3 -3 -4 -4 -5 -5 -6 -6 -7 -7 -7 -7 -7 -8 -7 -7 -7 -6 -6 -6 -6 -6 -6 -6 -6 -6 -5 -5 -4 -3
4 3 3 2 1 0 0 -0 -0 -1 -1 -2 -3 -3 -3 -4 -4 -5 -6 -6 -7 -7 -7 -7 -8 -8 -8 -8 -7 -7 -7 -7 -7 -6 -6 -6 -5 -6 -6 -6 -5 -4 -3
3 2 2 1 1 0 0 -1 -0 -1 -2 -3 -3 -3 -4 -4 -5 -6 -7 -7 -7 -7 -7 -8 -8 -9 -8 -9 -8 -8 -8 -8 -8 -7 -6 -6 -5 -5 -5 -5 -5 -5 -4
2 1 1 1 -0 -0 -0 -1 -2 -2 -3 -3 -3 -4 -4 -4 -5 -6 -7 -7 -8 -8 -8 -8 -9 -9 -9 -10 -9 -9 -10 -9 -8 -8 -7 -6 -6 -6 -5 -5 -5 -5 -5
1 0 0 0 -1 -1 -1 -1 -2 -3 -3 -3 -3 -4 -4 -5 -6 -6 -7 -7 -8 -8 -9 -9 -10 -10 -10 -10 -10 -10 -10 -10 -9 -8 -8 -7 -7 -7 -6 -5 -5 -5 -5
-1 -0 -0 -1 -1 -1 -2 -2 -2 -3 -3 -3 -3 -4 -4 -5 -6 -6 -7 -7 -8 -8 -9 -9 -10 -10 -10 -11 -10 -10 -11 -11 -11 -10 -9 -8 -8 -7 -6 -6 -5 -5 -4
-1 -1 -1 -1 -1 -2 -2 -2 -3 -3 -3 -3 -3 -4 -4 -5 -5 -6 -7 -7 -7 -8 -9 -10 -10 -10 -10 -10 -10 -10 -11 -11 -11 -11 -10 -9 -8 -7 -7 -6 -6 -5 -4
-2 -2 -1 -2 -2 -2 -3 -2 -3 -3 -3 -4 -4 -4 -5 -5 -5 -6 -7 -7 -8 -9 -9 -10 -10 -11 -11 -10 -10 -11 -11 -12 -12 -11 -11 -10 -9 -8 -8 -6 -6 -6 -5
-2 -2 -2 -2 -2 -3 -3 -3 -3 -3 -4 -4 -4 -4 -5 -5 -5 -6 -7 -7 -8 -9 -9 -9 -10 -11 -11 -11 -11 -11 -11 -12 -13 -12 -12 -11 -11 -10 -8 -7 -7 -7 -6
-2 -2 -2 -2 -2 -3 -3 -3 -3 -4 -4 -4 -4 -4 -5 -5 -6 -6 -7 -7 -8 -9 -9 -9 -10 -10 -11 -11 -11 -12 -12 -12 -13 -13 -12 -12 -12 -11 -9 -9 -8 -8 -7
-2 -3 -3 -3 -3 -3 -3 -4 -4 -4 -4 -4 -5 -5 -5 -5 -5 -6 -7 -7 -7 -7 -8 -9 -9 -10 -10 -11 -12 -13 -13 -13 -13 -14 -13 -13 -13 -12 -11 -10 -10 -10 -9
-2 -3 -3 -3 -3 -3 -4 -4 -4 -4 -4 -4 -4 -5 -5 -5 -6 -6 -7 -7 -8 -8 -8 -9 -9 -10 -10 -11 -12 -13 -13 -12 -13 -13 -13 -13 -13 -13 -12 -11 -11 -10 -9
-2 -2 -3 -4 -3 -3 -4 -4 -4 -4 -4 -4 -4 -5 -4 -5 -5 -6 -6 -7 -7 -8 -8 -8 -9 -10 -10 -11 -12 -12 -12 -13 -13 -14 -14 -13 -14 -13 -13 -12 -11 -11 -10
-2 -3 -3 -4 -3 -3 -4 -4 -4 -4 -4 -5 -5 -5 -4 -5 -6 -6 -6 -6 -6 -6 -7 -8 -9 -9 -10 -10 -11 -12 -12 -13 -13 -14 -14 -14 -14 -13 -13 -13 -12 -12 -11
-3 -3 -3 -4 -4 -4 -4 -4 -5 -5 -5 -5 -5 -5 -5 -6 -6 -6 -6 -5 -5 -6 -6 -7 -7 -8 -9 -9 -10 -11 -12 -12 -13 -12 -13 -14 -14 -13 -13 -13 -12 -12 -12
-3 -3 -3 -3 -3 -4 -4 -5 -5 -5 -5 -5 -5 -5 -5 -5 -6 -5 -5 -5 -5 -5 -6 -6 -7 -7 -8 -9 -10 -10 -11 -12 -12 -12 -12 -13 -14 -14 -14 -13 -13 -13 -13
-4 -4 -4 -3 -3 -4 -4 -5 -5 -5 -5 -5 -5 -5 -5 -5 -5 -5 -5 -5 -5 -5 -6 -6 -7 -7 -8 -9 -9 -10 -11 -11 -12 -12 -12 -13 -14 -14 -14 -14 -14 -13 -13
-5 -4 -4 -4 -4 -4 -4 -4 -4 -4 -5 -5 -5 -5 -5 -5 -5 -5 -5 -5 -5 -5 -6 -6 -7 -7 -8 -8 -9 -10 -11 -11 -12 -12 -12 -13 -13 -14 -14 -14 -14 -13 -13

GFSGL_925_temp_030.txt.gz
Temp
12 10 10 10 9 9 8 8 7 7 6 6 5 5 5 5 5 5 4 4 4 3 3 3 2 2 2 2 2 1 1 1 2 1 1 1 0 0 0 -0 -0 0 1
11 10 10 9 9 8 8 7 6 6 5 5 4 4 5 4 4 3 3 3 3 3 3 2 2 2 1 1 1 1 0 -0 -1 -1 -1 -1 -1 -1 -1 -1 -0 0 1
10 10 10 10 9 8 7 6 6 5 4 4 4 4 3 3 3 3 2 2 2 2 1 1 1 0 -0 -0 -1 -1 -1 -2 -2 -2 -2 -2 -2 -2 -2 -1 -1 -1 0
10 10 10 9 8 7 6 6 5 4 4 4 4 2 2 2 2 2 2 1 1 1 1 -0 -1 -1 -2 -2 -3 -2 -2 -3 -3 -3 -3 -3 -3 -2 -2 -1 -1 -1 -1
10 10 9 8 7 6 5 5 4 3 3 3 3 2 1 1 1 1 1 1 1 0 -0 -1 -2 -3 -5 -6 -5 -4 -4 -4 -4 -4 -3 -3 -2 -2 -2 -1 -1 -1 -1
9 9 8 7 6 6 5 4 4 3 3 3 2 2 1 1 -1 -1 -1 -0 -0 -1 -1 -2 -2 -3 -4 -5 -6 -6 -6 -5 -5 -4 -4 -3 -3 -2 -2 -3 -2 -2 -1
8 8 7 6 5 5 4 4 4 3 3 3 2 2 1 1 -2 -2 -2 -2 -2 -2 -2 -3 -3 -3 -4 -4 -5 -6 -6 -5 -6 -5 -5 -4 -4 -3 -3 -3 -2 -2 -2
8 7 6 5 5 5 4 4 3 3 3 3 2 1 1 -0 -2 -3 -3 -2 -2 -3 -3 -3 -3 -4 -4 -6 -6 -6 -5 -4 -4 -5 -5 -5 -5 -4 -4 -4 -4 -3 -3
7 6 6 5 4 4 4 3 3 3 3 3 2 1 0 -0 -3 -4 -4 -3 -3 -3 -4 -4 -5 -5 -6 -7 -7 -6 -5 -4 -5 -5 -6 -6 -6 -5 -5 -5 -4 -3 -3
6 6 5 4 4 4 3 2 2 2 2 2 1 0 -1 -1 -3 -4 -5 -4 -4 -4 -4 -4 -5 -7 -8 -8 -8 -7 -6 -6 -6 -6 -6 -5 -4 -4 -5 -5 -4 -4 -3
5 4 4 4 3 3 2 2 2 2 1 1 -1 -1 -1 -2 -3 -4 -5 -5 -4 -5 -4 -4 -5 -7 -8 -9 -9 -8 -7 -8 -7 -6 -6 -5 -4 -4 -4 -4 -4 -4 -4
4 4 4 3 2 2 2 2 2 1 1 0 -2 -2 -1 -3 -4 -5 -5 -6 -6 -6 -6 -5 -7 -8 -9 -9 -9 -9 -9 -9 -7 -7 -6 -6 -5 -5 -5 -5 -5 -4 -4
3 3 3 2 2 2 2 2 2 1 1 0 0 -1 -1 -2 -3 -4 -5 -6 -7 -7 -7 -7 -9 -9 -9 -8 -8 -9 -9 -8 -8 -7 -7 -6 -6 -6 -5 -5 -5 -4 -4
2 2 2 2 2 1 2 0 1 1 0 0 -0 -1 -1 -2 -2 -3 -4 -5 -6 -6 -6 -7 -8 -8 -8 -8 -7 -7 -8 -9 -9 -8 -8 -7 -7 -6 -5 -5 -5 -4 -3
1 1 1 1 1 1 1 0 0 -0 -0 -1 -1 -2 -2 -3 -4 -4 -4 -5 -5 -6 -7 -7 -6 -6 -7 -6 -7 -7 -7 -8 -8 -8 -8 -7 -7 -6 -6 -5 -5 -4 -3
0 1 1 0 1 0 0 0 -0 -1 -2 -2 -3 -3 -4 -4 -4 -5 -5 -6 -7 -8 -7 -6 -6 -6 -7 -7 -7 -7 -7 -8 -9 -9 -9 -8 -8 -7 -7 -6 -5 -5 -4
-0 -0 0 0 0 0 -0 -1 -1 -1 -2 -3 -3 -3 -4 -4 -4 -5 -6 -6 -7 -8 -7 -5 -6 -6 -6 -7 -7 -7 -7 -8 -10 -9 -9 -9 -8 -8 -7 -7 -6 -6 -5
-1 -0 -0 -0 -1 -2 -1 -1 -1 -2 -2 -2 -3 -3 -4 -4 -4 -5 -5 -6 -6 -7 -7 -5 -6 -6 -6 -7 -7 -7 -8 -9 -9 -9 -9 -10 -9 -9 -7 -7 -7 -7 -6
-0 -0 -1 -2 -2 -2 -2 -2 -2 -2 -2 -2 -2 -3 -4 -4 -4 -5 -5 -5 -5 -5 -4 -5 -5 -6 -6 -7 -7 -8 -9 -9 -10 -10 -10 -10 -10 -10 -9 -8 -7 -7 -7
0 -0 -1 -1 -1 -2 -3 -2 -2 -2 -2 -2 -3 -2 -2 -5 -5 -5 -5 -5 -5 -5 -5 -5 -5 -6 -6 -7 -8 -8 -9 -9 -9 -9 -10 -10 -10 -10 -9 -9 -8 -8 -7
0 -0 -1 -1 -2 -2 -2 -2 -2 -2 -3 -2 -2 -3 -3 -3 -4 -4 -4 -5 -5 -5 -5 -5 -5 -6 -7 -7 -8 -8 -8 -9 -9 -10 -10 -10 -11 -10 -10 -9 -9 -9 -8
-1 -2 -2 -2 -2 -2 -3 -2 -3 -3 -3 -3 -2 -3 -3 -5 -4 -4 -4 -5 -5 -5 -5 -5 -6 -6 -6 -7 -7 -8 -8 -9 -9 -10 -10 -11 -11 -10 -10 -9 -9 -9 -9
-2 -2 -3 -3 -2 -3 -3 -3 -3 -3 -3 -3 -3 -3 -3 -4 -4 -4 -4 -4 -5 -5 -6 -6 -6 -6 -7 -7 -8 -8 -9 -9 -9 -11 -12 -11 -11 -10 -10 -10 -9 -9 -10
-2 -3 -3 -3 -3 -3 -3 -3 -3 -3 -3 -3 -3 -3 -4 -4 -4 -4 -4 -4 -5 -5 -5 -6 -6 -6 -7 -8 -8 -9 -9 -10 -11 -11 -12 -12 -11 -11 -11 -10 -10 -10 -10
-4 -4 -4 -4 -4 -3 -3 -3 -3 -3 -4 -4 -4 -4 -4 -4 -4 -4 -4 -4 -5 -5 -5 -6 -6 -7 -7 -8 -8 -9 -10 -10 -11 -12 -13 -13 -12 -13 -12 -11 -11 -10 -10
-4 -4 -4 -4 -4 -4 -3 -3 -3 -3 -3 -3 -4 -4 -4 -4 -4 -4 -4 -4 -4 -5 -5 -6 -6 -7 -7 -7 -7 -8 -9 -10 -10 -11 -12 -12 -12 -11 -11 -11 -11 -11 -10

GFSGL_925_temp_033.txt.gz
Temp
14 13 12 11 11 11 10 10 9 8 8 7 7 7 7 7 7 6 5 5 5 4 4 4 3 3 3 3 3 3 3 3 4 3 2 1 1 0 0 0 0 0 1
13 12 11 11 11 11 10 9 9 8 7 7 6 6 6 6 5 4 4 4 4 3 3 3 3 3 3 3 2 2 2 2 2 2 0 -0 -1 -1 -1 -1 -0 -0 0
12 12 12 12 11 11 10 9 8 7 7 6 6 6 5 5 4 4 3 3 3 2 2 2 3 2 1 1 1 0 -0 0 -0 -1 -1 -1 -1 -1 -1 -1 -1 -0 -0
12 12 12 12 11 10 9 8 7 7 6 6 6 6 5 4 4 3 3 3 2 2 2 2 1 1 0 -1 -2 -2 -2 -2 -2 -2 -2 -2 -2 -2 -2 -1 -1 -1 -1
11 12 12 11 10 9 8 7 7 6 6 5 5 5 4 3 3 2 2 2 2 2 2 1 1 -0 -2 -3 -4 -4 -4 -4 -4 -3 -3 -3 -3 -2 -2 -2 -1 -1 -1
11 11 11 10 9 8 8 7 6 6 6 5 5 4 4 3 1 1 -0 0 1 1 1 0 -0 -1 -1 -3 -3 -5 -5 -5 -5 -4 -4 -3 -3 -2 -3 -3 -3 -2 -0
11 11 10 9 8 8 7 7 6 6 5 5 5 4 3 2 0 -0 -1 -2 -0 0 -0 -1 -1 -1 -2 -2 -3 -4 -5 -4 -4 -4 -4 -4 -4 -4 -4 -3 -3 -3 -2
10 10 9 8 7 7 7 6 6 5 5 5 4 3 2 2 -0 -1 -2 -2 -0 -0 -1 -1 -1 -2 -3 -6 -6 -5 -4 -4 -3 -3 -4 -4 -5 -4 -4 -4 -4 -3 -3
10 9 8 8 7 7 6 6 6 5 4 4 4 3 2 2 0 -1 -2 -2 -1 -1 -1 -2 -2 -3 -4 -6 -7 -6 -6 -5 -4 -4 -5 -5 -5 -5 -5 -5 -4 -3 -3
9 8 7 7 6 6 6 5 5 4 4 4 3 3 2 1 -1 -1 -2 -3 -2 -2 -2 -2 -3 -5 -6 -8 -8 -7 -7 -5 -6 -6 -6 -5 -4 -4 -4 -4 -4 -4 -3
8 7 6 6 6 6 5 4 4 4 4 3 2 1 1 0 -0 -2 -3 -4 -3 -3 -3 -3 -3 -5 -7 -8 -8 -8 -7 -8 -7 -6 -6 -5 -5 -4 -4 -4 -4 -4 -4
5 5 5 5 5 5 4 4 4 4 3 2 1 -0 -0 -1 -1 -3 -3 -4 -5 -5 -4 -4 -4 -6 -8 -8 -8 -7 -8 -8 -6 -6 -6 -5 -5 -5 -5 -5 -4 -4 -4
5 4 5 5 4 4 4 4 4 3 3 2 1 -1 -1 -0 -1 -3 -3 -4 -5 -6 -5 -5 -6 -7 -7 -7 -6 -7 -7 -6 -7 -6 -6 -6 -6 -6 -5 -5 -5 -4 -4
4 4 4 4 3 3 3 3 3 2 1 1 0 -0 0 -0 -1 -2 -4 -5 -5 -6 -5 -5 -6 -6 -5 -5 -6 -5 -6 -6 -7 -6 -6 -6 -6 -6 -6 -5 -5 -4 -3
4 3 3 2 3 3 3 3 2 1 0 -0 -0 -1 -1 -1 -1 -2 -3 -3 -4 -5 -5 -6 -5 -4 -4 -4 -4 -5 -5 -6 -6 -7 -7 -7 -6 -6 -6 -6 -5 -5 -4
2 2 2 2 2 2 2 2 1 1 -0 -0 -1 -1 -2 -2 -3 -3 -4 -4 -5 -6 -6 -5 -4 -4 -5 -5 -5 -5 -5 -6 -6 -7 -7 -7 -7 -6 -6 -6 -5 -5 -5
1 1 1 1 2 2 1 1 1 1 0 -1 -1 -2 -2 -2 -3 -4 -4 -5 -6 -6 -6 -5 -4 -4 -5 -5 -4 -5 -5 -6 -8 -7 -7 -7 -8 -7 -7 -6 -5 -6 -5
1 1 1 2 2 0 -0 -0 -1 -1 -1 -1 -1 -2 -3 -3 -3 -4 -5 -5 -5 -6 -5 -4 -4 -4 -5 -4 -4 -5 -6 -7 -7 -7 -8 -8 -8 -8 -7 -6 -6 -6 -6
1 2 2 1 -0 -0 -1 -2 -1 -1 -1 -1 -1 -2 -2 -3 -3 -4 -5 -5 -4 -4 -4 -4 -4 -3 -4 -5 -5 -6 -7 -7 -8 -8 -8 -8 -8 -8 -7 -8 -7 -7 -6
3 3 2 1 0 -0 -1 -1 -1 -1 -2 -1 -2 -2 -2 -3 -4 -5 -4 -5 -5 -4 -4 -5 -4 -3 -4 -5 -6 -6 -7 -7 -7 -7 -8 -8 -8 -8 -7 -7 -8 -8 -6
3 2 1 0 -0 -1 -1 -2 -1 -1 -1 -1 -2 -2 -2 -3 -2 -3 -3 -4 -4 -4 -4 -5 -5 -4 -5 -5 -6 -6 -7 -7 -7 -8 -8 -8 -9 -9 -8 -8 -7 -7 -7
1 0 -0 -1 -1 -1 -1 -2 -2 -2 -2 -2 -2 -2 -3 -3 -3 -3 -3 -3 -3 -4 -4 -4 -5 -5 -5 -5 -6 -6 -6 -7 -8 -8 -8 -9 -9 -8 -8 -8 -8 -8 -7
-0 -1 -2 -2 -2 -2 -2 -2 -2 -2 -2 -2 -2 -2 -2 -3 -3 -3 -3 -3 -4 -4 -4 -4 -4 -5 -5 -5 -6 -6 -7 -7 -7 -8 -9 -9 -9 -9 -9 -8 -8 -8 -8
-1 -2 -2 -2 -3 -3 -3 -3 -2 -2 -3 -2 -3 -3 -3 -3 -3 -3 -3 -3 -4 -4 -4 -4 -5 -5 -5 -6 -6 -7 -7 -7 -8 -9 -10 -10 -10 -9 -9 -9 -9 -9 -8
-2 -2 -3 -3 -3 -3 -3 -3 -3 -3 -3 -3 -3 -3 -3 -3 -3 -3 -3 -3 -3 -4 -4 -4 -4 -5 -5 -6 -6 -7 -8 -8 -9 -9 -10 -11 -11 -11 -11 -10 -10 -10 -9
-3 -3 -3 -3 -3 -3 -3 -4 -4 -4 -4 -4 -3 -3 -3 -3 -3 -3 -3 -3 -3 -3 -4 -4 -4 -5 -5 -6 -6 -7 -8 -8 -9 -10 -10 -10 -10 -10 -10 -10 -10 -10 -9

GFSGL_925_temp_036.txt.gz
Temp
15 14 13 12 11 11 11 11 10 9 8 8 7 7 7 7 6 5 5 5 4 4 4 3 3 3 3 3 2 2 2 2 1 1 1 1 -0 -1 -1 -1 -1 -1 -1
15 13 12 11 11 11 11 10 10 9 8 7 7 7 6 6 5 5 4 4 4 3 3 3 2 3 2 2 1 1 -0 -1 -1 -1 -1 -1 -1 -1 -1 -1 -1 -1 -1
14 12 11 11 11 11 11 10 9 8 8 7 6 6 6 5 5 4 4 3 3 3 2 2 2 2 1 1 -0 -1 -2 -2 -2 -3 -3 -3 -3 -2 -2 -2 -2 -2 -2
13 12 12 11 11 11 10 10 9 8 7 6 6 6 6 4 4 3 3 3 2 2 2 2 2 1 0 -0 -1 -2 -3 -3 -4 -4 -4 -4 -3 -3 -3 -3 -2 -3 -2
13 11 11 11 11 10 9 9 8 7 6 6 6 6 5 4 3 3 2 2 1 1 1 1 1 0 -0 -1 -2 -3 -4 -4 -5 -5 -5 -4 -4 -3 -3 -3 -4 -4 -3
11 11 9 11 10 9 9 8 7 7 6 6 6 5 5 4 3 2 2 1 0 0 0 0 0 -0 -0 -1 -3 -4 -4 -5 -5 -5 -5 -5 -4 -4 -5 -4 -4 -4 -4
11 11 11 10 9 9 8 7 7 7 6 5 5 5 4 3 2 1 1 0 -0 -0 0 -0 -1 -1 -1 -2 -3 -4 -5 -5 -4 -4 -4 -5 -5 -5 -5 -5 -5 -5 -4
10 10 10 9 9 8 7 6 7 6 6 5 5 4 4 3 2 1 0 -0 -1 -1 -1 -1 -1 -1 -2 -3 -4 -5 -6 -6 -5 -4 -4 -5 -5 -5 -5 -5 -5 -5 -5
10 9 9 8 7 6 7 6 6 6 5 5 4 4 3 3 1 0 -0 -1 -2 -2 -2 -2 -2 -2 -3 -4 -5 -7 -7 -7 -6 -5 -6 -6 -6 -5 -5 -5 -5 -5 -5
7 7 7 6 5 6 6 6 6 5 5 4 4 3 3 2 0 -0 -1 -2 -2 -3 -2 -2 -2 -3 -4 -5 -7 -8 -8 -8 -7 -7 -7 -6 -6 -5 -5 -5 -5 -5 -5
6 5 5 4 5 6 6 5 5 4 4 4 3 2 2 1 0 -1 -1 -2 -2 -3 -4 -4 -3 -5 -5 -5 -7 -8 -8 -7 -7 -7 -6 -6 -6 -5 -5 -5 -5 -5 -4
5 4 4 4 5 5 5 4 4 3 4 3 3 2 1 0 -0 -1 -1 -2 -3 -4 -5 -5 -4 -5 -5 -6 -7 -6 -7 -7 -7 -7 -6 -6 -6 -6 -6 -6 -5 -5 -5
4 3 3 4 4 4 4 4 4 3 3 2 2 1 0 -0 -0 -1 -1 -2 -3 -4 -4 -5 -5 -5 -6 -6 -6 -6 -6 -6 -6 -7 -7 -7 -7 -6 -6 -6 -5 -5 -4
2 3 4 4 3 3 3 3 3 3 2 1 1 0 0 0 -1 -1 -2 -3 -4 -5 -4 -5 -5 -5 -5 -5 -5 -4 -5 -5 -6 -6 -7 -7 -7 -6 -6 -6 -6 -5 -5
3 3 3 2 2 2 2 2 3 2 1 1 1 0 -0 -1 -1 -1 -2 -3 -4 -4 -5 -5 -5 -5 -4 -4 -4 -4 -5 -5 -6 -6 -7 -7 -7 -7 -7 -7 -6 -6 -5
2 2 2 2 1 1 2 2 2 2 1 1 0 -0 -0 -1 -1 -2 -3 -2 -3 -4 -5 -5 -5 -5 -4 -5 -5 -5 -5 -5 -6 -6 -7 -7 -7 -8 -8 -7 -6 -6 -6
1 1 1 1 1 1 1 1 -0 -0 -0 0 -0 -0 -1 -1 -2 -2 -3 -3 -4 -5 -6 -6 -6 -5 -4 -4 -5 -4 -4 -5 -6 -7 -7 -8 -8 -8 -8 -7 -7 -7 -6
2 1 1 1 1 2 1 0 -0 -1 -1 -1 -1 -1 -1 -1 -2 -2 -4 -4 -5 -5 -6 -6 -6 -5 -4 -4 -4 -4 -5 -6 -7 -7 -8 -8 -8 -8 -8 -8 -8 -8 -7
2 2 2 1 2 1 0 -0 -1 -1 -1 -1 -1 -1 -1 -1 -2 -3 -3 -4 -5 -5 -5 -6 -5 -5 -4 -4 -4 -5 -6 -6 -7 -7 -8 -8 -8 -8 -8 -8 -7 -8 -8
2 3 3 2 2 -0 -0 -0 -1 -1 -1 -1 -1 -2 -1 -2 -3 -3 -4 -4 -5 -5 -4 -4 -5 -4 -4 -4 -4 -5 -6 -6 -7 -7 -7 -8 -8 -8 -9 -8 -8 -8 -8
1 1 1 1 1 0 -0 -1 -1 -1 -1 -2 -1 -1 -1 -2 -2 -3 -4 -4 -4 -4 -4 -4 -4 -4 -4 -4 -4 -5 -5 -6 -6 -7 -7 -8 -8 -9 -9 -8 -8 -8 -8
-1 -0 -0 -0 -0 -1 -1 -2 -2 -2 -2 -2 -2 -2 -2 -2 -3 -3 -3 -3 -3 -4 -4 -4 -4 -4 -4 -4 -5 -5 -6 -6 -7 -7 -8 -8 -9 -9 -9 -8 -8 -8 -8
-3 -3 -2 -2 -2 -2 -2 -2 -2 -2 -2 -3 -2 -2 -2 -2 -3 -3 -3 -3 -4 -3 -3 -4 -4 -4 -4 -4 -5 -5 -6 -6 -6 -7 -8 -8 -9 -9 -9 -9 -9 -9 -9
-3 -3 -3 -3 -3 -2 -3 -3 -3 -3 -3 -3 -2 -3 -3 -3 -3 -3 -3 -3 -3 -4 -4 -4 -4 -4 -4 -5 -5 -5 -5 -6 -7 -7 -8 -8 -9 -9 -9 -9 -9 -9 -9
-5 -4 -4 -3 -3 -3 -3 -3 -3 -3 -4 -4 -4 -3 -3 -3 -3 -3 -3 -3 -3 -3 -3 -3 -4 -4 -4 -4 -5 -5 -5 -6 -7 -8 -8 -9 -10 -10 -10 -10 -10 -10 -10
-6 -6 -4 -4 -3 -3 -4 -5 -5 -5 -6 -6 -6 -6 -6 -6 -5 -4 -3 -3 -3 -3 -3 -4 -4 -4 -4 -4 -4 -5 -6 -6 -7 -8 -9 -10 -10 -11 -10 -10 -10 -10 -10

GFSGL_925_temp_039.txt.gz
Temp
16 14 13 13 12 12 11 11 10 9 9 8 7 7 7 6 6 5 5 4 4 3 3 3 3 2 2 2 1 1 -0 -1 -2 -2 -2 -2 -2 -2 -2 -2 -2 -2 -2
14 14 13 12 11 11 11 10 9 9 9 8 7 7 6 6 6 5 4 4 3 3 3 2 2 2 2 1 1 -0 -1 -2 -3 -4 -4 -4 -4 -4 -3 -3 -3 -3 -2
14 13 12 12 11 10 10 9 9 9 8 7 7 6 6 6 5 4 4 3 3 2 2 2 2 2 1 1 -0 -1 -1 -2 -3 -4 -5 -5 -5 -4 -4 -3 -3 -3 -3
13 12 12 11 11 10 9 8 9 8 7 7 6 6 6 5 5 4 3 3 2 2 2 1 1 1 0 -0 -1 -1 -2 -3 -4 -4 -5 -5 -5 -5 -4 -4 -5 -5 -5
13 12 11 10 9 9 9 8 8 8 7 7 6 6 6 5 4 4 3 3 2 2 1 1 0 -0 -0 -1 -2 -3 -4 -4 -5 -5 -6 -6 -6 -5 -5 -5 -5 -5 -5
12 11 10 10 8 8 8 8 8 7 7 6 6 6 5 4 4 4 3 2 1 1 0 -0 -0 -1 -1 -2 -3 -3 -4 -5 -5 -6 -6 -6 -5 -6 -6 -5 -6 -6 -6
11 11 10 9 8 7 7 7 7 6 6 6 6 5 5 4 4 3 2 1 1 0 -0 -1 -1 -1 -1 -2 -2 -3 -4 -4 -6 -6 -6 -6 -6 -6 -6 -6 -6 -6 -6
9 9 8 6 7 6 6 6 6 6 6 6 5 5 4 4 3 3 1 1 0 -0 -1 -1 -2 -2 -2 -3 -3 -4 -4 -5 -6 -7 -6 -7 -7 -6 -6 -6 -6 -6 -6
8 7 6 6 5 5 5 5 4 4 5 5 5 4 4 4 3 2 1 -0 -1 -1 -2 -2 -2 -2 -3 -3 -4 -5 -5 -6 -6 -7 -7 -6 -6 -6 -6 -6 -6 -6 -6
5 4 4 4 5 5 4 4 5 5 5 4 4 4 3 3 2 1 0 -1 -1 -2 -2 -3 -3 -3 -4 -4 -5 -6 -7 -6 -7 -7 -7 -7 -6 -6 -6 -6 -6 -6 -6
3 3 4 5 5 3 4 4 4 4 4 4 3 3 3 3 2 1 0 -1 -1 -2 -3 -3 -4 -4 -5 -5 -6 -6 -6 -6 -7 -7 -7 -7 -7 -7 -6 -6 -6 -6 -6
4 4 5 4 3 3 4 4 4 4 4 3 3 3 2 1 1 0 -0 -1 -2 -2 -2 -3 -4 -5 -5 -5 -5 -5 -6 -6 -6 -6 -7 -7 -7 -7 -7 -6 -6 -6 -6
4 3 3 3 3 3 3 3 3 3 3 3 2 2 1 1 0 -0 -1 -1 -2 -3 -3 -3 -4 -5 -5 -5 -5 -5 -6 -6 -6 -6 -6 -7 -7 -7 -7 -7 -7 -6 -6
3 3 3 3 3 3 3 2 2 2 2 2 1 1 1 0 -0 -1 -1 -2 -2 -3 -3 -4 -4 -5 -5 -5 -5 -5 -5 -5 -5 -6 -7 -7 -7 -7 -7 -7 -7 -7 -6
3 3 3 2 2 2 2 2 2 2 2 1 1 1 0 0 -0 -1 -2 -2 -3 -3 -3 -4 -6 -5 -5 -4 -5 -5 -5 -5 -5 -6 -6 -7 -7 -8 -8 -8 -8 -7 -7
3 3 2 2 1 1 1 1 1 1 1 0 0 0 0 -0 -1 -1 -1 -2 -3 -3 -4 -5 -5 -5 -5 -5 -5 -5 -5 -5 -5 -6 -7 -7 -8 -8 -8 -8 -8 -8 -8
3 3 2 2 2 1 1 1 0 1 1 0 -0 -0 -1 -1 -1 -2 -3 -3 -3 -4 -5 -5 -5 -5 -5 -5 -5 -5 -5 -5 -6 -6 -7 -8 -8 -8 -8 -8 -8 -8 -8
2 2 2 2 2 1 1 1 0 1 -1 -1 -0 -0 -1 -1 -1 -1 -2 -3 -4 -5 -5 -5 -5 -5 -5 -5 -5 -4 -4 -5 -6 -6 -7 -7 -8 -8 -8 -8 -8 -8 -8
1 1 1 1 1 1 -0 -1 -1 -1 -1 -1 -1 -1 -1 -1 -1 -1 -1 -3 -4 -5 -5 -6 -5 -5 -5 -5 -5 -4 -4 -5 -5 -6 -7 -7 -8 -8 -8 -8 -8 -8 -8
-1 -2 -2 -2 -1 -1 -0 -1 -1 -2 -2 -2 -2 -2 -1 -2 -2 -2 -3 -3 -4 -4 -4 -5 -5 -5 -5 -5 -4 -5 -5 -5 -6 -6 -7 -8 -8 -8 -9 -9 -9 -8 -8
-3 -3 -3 -3 -3 -3 -2 -2 -2 -2 -2 -2 -2 -2 -2 -2 -2 -3 -3 -3 -4 -4 -4 -4 -4 -5 -5 -4 -4 -4 -5 -5 -5 -6 -7 -7 -8 -8 -8 -9 -9 -9 -8
-5 -5 -5 -4 -4 -4 -3 -3 -2 -3 -2 -2 -2 -2 -3 -3 -3 -3 -3 -3 -3 -3 -3 -3 -4 -4 -4 -4 -4 -4 -5 -5 -5 -6 -6 -7 -8 -8 -9 -9 -9 -9 -9
-6 -6 -6 -6 -5 -5 -4 -3 -3 -3 -3 -3 -3 -3 -3 -3 -3 -3 -3 -3 -3 -3 -3 -3 -4 -4 -4 -4 -4 -4 -4 -4 -5 -5 -6 -7 -8 -8 -9 -9 -9 -9 -9
-8 -7 -7 -7 -7 -5 -4 -4 -3 -3 -3 -4 -4 -5 -5 -4 -3 -3 -3 -3 -3 -3 -3 -3 -4 -4 -4 -4 -4 -4 -5 -5 -5 -5 -6 -7 -8 -8 -9 -9 -9 -10 -10
-11 -10 -11 -10 -9 -8 -7 -7 -7 -7 -7 -7 -8 -8 -7 -7 -7 -6 -6 -5 -4 -4 -3 -3 -4 -4 -4 -4 -4 -4 -4 -5 -5 -6 -6 -7 -8 -8 -9 -10 -10 -10 -10
-12 -12 -13 -13 -12 -11 -11 -10 -10 -10 -10 -10 -10 -10 -10 -9 -9 -9 -9 -8 -7 -6 -4 -4 -4 -4 -4 -4 -4 -4 -4 -5 -5 -6 -7 -7 -8 -9 -10 -10 -10 -10 -10

GFSGL_925_temp_042.txt.gz
Temp
16 15 14 13 12 12 11 10 10 9 8 7 6 7 7 7 6 6 5 5 4 3 3 3 2 2 2 1 1 1 0 -1 -3 -2 -3 -3 -3 -4 -4 -4 -4 -3 -3
16 14 13 12 12 11 11 10 9 8 8 8 7 7 7 6 6 5 5 4 4 3 2 2 2 2 2 1 1 0 -1 -2 -3 -4 -4 -4 -4 -4 -4 -4 -4 -4 -4
14 13 12 12 11 11 10 9 9 9 8 7 7 7 6 6 6 5 5 4 3 3 2 2 1 1 1 1 -0 -1 -1 -2 -3 -4 -4 -4 -5 -5 -5 -5 -5 -5 -5
13 13 12 11 11 10 10 9 8 8 8 7 7 6 6 6 5 5 4 4 3 2 2 2 1 1 0 -0 -1 -1 -2 -3 -4 -4 -5 -6 -6 -6 -6 -6 -6 -5 -5
12 12 11 10 9 9 8 8 8 7 7 7 6 6 6 6 5 5 4 4 3 2 2 1 1 0 -1 -1 -1 -2 -3 -4 -4 -5 -6 -6 -6 -6 -6 -6 -6 -6 -6
10 9 9 9 9 9 8 7 7 7 6 6 6 6 6 5 5 5 4 3 2 2 1 1 0 -0 -1 -1 -2 -2 -4 -4 -5 -6 -7 -7 -7 -7 -7 -7 -7 -7 -6
10 9 9 8 7 7 6 5 4 5 6 5 6 5 5 5 5 4 3 3 2 1 0 -0 -1 -1 -1 -2 -2 -3 -4 -4 -5 -6 -7 -7 -7 -7 -7 -7 -7 -7 -6
7 7 7 6 5 4 3 4 4 4 5 5 5 5 5 5 4 4 3 2 1 0 -0 -1 -1 -2 -2 -2 -3 -4 -4 -4 -5 -6 -7 -7 -7 -7 -7 -7 -6 -6 -6
4 4 4 4 3 4 4 4 4 4 4 4 5 5 4 4 4 4 2 1 0 -0 -1 -2 -2 -2 -2 -3 -4 -4 -5 -5 -6 -6 -7 -7 -7 -7 -7 -6 -6 -7 -6
3 4 5 5 4 4 3 3 4 4 4 4 4 4 3 3 3 3 2 1 0 -0 -1 -2 -2 -3 -3 -4 -5 -5 -5 -5 -6 -6 -6 -6 -7 -7 -7 -7 -7 -7 -7
5 5 4 3 3 3 3 3 4 4 4 3 3 3 3 3 2 2 2 1 0 -1 -1 -2 -2 -3 -4 -4 -5 -5 -5 -6 -6 -6 -7 -6 -7 -7 -7 -7 -7 -7 -7
4 4 3 3 3 3 3 3 3 3 3 3 3 2 3 2 2 1 1 0 -0 -1 -2 -2 -2 -3 -4 -5 -5 -5 -5 -6 -6 -6 -6 -6 -7 -7 -7 -7 -7 -7 -7
4 4 3 3 3 3 3 3 2 2 2 2 2 2 2 2 1 1 1 -0 -1 -1 -1 -2 -4 -4 -4 -5 -5 -5 -5 -5 -5 -6 -6 -6 -7 -7 -7 -8 -7 -7 -6
3 3 3 3 3 3 2 2 2 2 1 1 1 1 1 1 1 0 0 -0 -1 -3 -2 -3 -4 -4 -4 -5 -5 -5 -5 -5 -5 -5 -6 -6 -7 -7 -8 -8 -8 -8 -8
3 3 3 3 3 2 2 2 1 1 1 1 1 1 0 -0 0 0 -0 -1 -1 -1 -2 -3 -4 -5 -5 -5 -5 -5 -5 -5 -5 -5 -6 -7 -7 -8 -8 -8 -8 -8 -9
2 2 2 2 2 2 2 2 2 2 2 1 1 1 1 0 -0 -1 -1 -1 -2 -2 -3 -4 -5 -5 -5 -5 -5 -5 -5 -5 -5 -5 -6 -7 -7 -8 -8 -8 -8 -8 -9
0 0 0 -0 -0 -1 -1 -1 -2 -1 -0 0 1 0 -1 -1 -1 -1 -1 -2 -2 -2 -4 -4 -5 -5 -5 -5 -6 -6 -5 -5 -5 -5 -6 -7 -8 -8 -8 -8 -8 -8 -8
-1 -1 -2 -2 -3 -3 -2 -2 -2 -2 -2 -2 -1 -1 -1 -1 -2 -1 -1 -2 -3 -3 -4 -4 -5 -4 -5 -5 -5 -5 -5 -5 -5 -5 -6 -7 -8 -8 -9 -9 -9 -9 -9
-3 -4 -4 -4 -4 -4 -4 -3 -3 -2 -2 -2 -2 -2 -1 -1 -2 -2 -2 -3 -3 -4 -4 -5 -5 -5 -5 -5 -5 -5 -5 -5 -5 -5 -6 -6 -7 -8 -9 -9 -9 -9 -9
-6 -6 -5 -5 -5 -5 -5 -4 -4 -3 -3 -2 -2 -3 -2 -2 -2 -2 -2 -2 -3 -3 -4 -5 -5 -4 -4 -4 -5 -5 -5 -5 -5 -6 -6 -6 -7 -8 -9 -9 -9 -9 -9
-7 -7 -7 -7 -7 -6 -6 -6 -5 -5 -4 -3 -2 -3 -2 -3 -3 -4 -3 -3 -3 -3 -3 -4 -5 -4 -4 -4 -4 -5 -5 -5 -5 -6 -6 -6 -7 -8 -8 -9 -9 -9 -9
-9 -9 -9 -8 -8 -8 -8 -7 -6 -5 -4 -4 -4 -3 -3 -4 -4 -4 -4 -3 -3 -3 -3 -4 -4 -4 -4 -4 -4 -4 -5 -5 -5 -5 -5 -6 -7 -7 -8 -9 -9 -9 -9
-11 -10 -11 -11 -11 -11 -10 -8 -8 -8 -7 -5 -5 -5 -6 -6 -6 -6 -5 -4 -3 -4 -4 -4 -4 -4 -4 -4 -4 -4 -4 -4 -4 -4 -5 -6 -6 -7 -8 -9 -9 -10 -9
-12 -12 -13 -13 -13 -13 -12 -11 -11 -11 -11 -10 -10 -10 -10 -9 -9 -8 -8 -7 -6 -6 -5 -4 -4 -4 -3 -4 -4 -4 -4 -4 -4 -4 -5 -5 -6 -7 -8 -9 -9 -10 -10
-13 -14 -15 -15 -15 -15 -14 -13 -13 -14 -13 -13 -12 -12 -12 -11 -12 -12 -11 -10 -9 -8 -6 -5 -4 -4 -4 -4 -4 -4 -4 -4 -4 -4 -5 -6 -6 -7 -8 -9 -9 -10 -10
-15 -16 -16 -16 -16 -16 -16 -15 -15 -15 -15 -15 -14 -14 -14 -13 -14 -14 -14 -13 -12 -11 -10 -8 -6 -5 -4 -4 -4 -4 -4 -4 -4 -5 -5 -5 -6 -8 -8 -9 -10 -10 -10

GFSGL_925_temp_045.txt.gz
Temp
15 15 14 13 13 13 12 12 11 10 8 8 8 7 7 6 6 6 5 5 4 4 3 3 3 2 2 2 2 1 1 -1 -2 -2 -2 -2 -3 -3 -4 -4 -4 -4 -4
14 14 13 13 13 12 11 11 10 8 9 8 8 7 6 6 6 6 5 5 4 4 3 3 2 2 2 1 1 0 -1 -1 -2 -3 -3 -3 -3 -4 -5 -5 -5 -5 -5
12 12 12 12 11 10 10 9 8 8 8 7 7 7 6 6 6 5 5 5 4 4 3 3 2 2 1 1 0 -1 -1 -2 -3 -4 -5 -4 -4 -5 -5 -6 -5 -5 -5
11 11 10 9 10 10 9 8 8 8 8 7 7 6 6 6 6 5 5 5 4 3 3 2 2 1 1 1 -0 -1 -1 -2 -3 -4 -5 -5 -6 -6 -6 -6 -6 -6 -6
10 9 9 10 9 9 8 8 8 7 6 6 5 5 5 6 6 5 5 4 4 3 2 2 1 1 0 -0 -1 -1 -2 -3 -4 -5 -6 -7 -7 -7 -7 -7 -7 -7 -7
9 9 9 9 8 8 7 6 5 5 5 5 4 4 5 5 5 5 5 4 4 3 2 1 0 -0 -0 -1 -1 -2 -2 -3 -4 -5 -6 -7 -7 -7 -7 -8 -8 -8 -6
8 8 8 7 6 5 5 5 5 5 4 4 3 4 5 5 5 5 4 4 3 2 2 1 0 -0 -1 -1 -2 -3 -3 -4 -5 -6 -7 -7 -7 -7 -7 -8 -7 -7 -7
6 5 5 4 4 5 5 5 4 3 3 4 4 5 4 5 4 4 4 3 3 2 1 -0 -2 -1 -2 -2 -3 -3 -4 -4 -5 -5 -6 -7 -7 -7 -7 -7 -7 -7 -7
3 4 4 5 5 4 3 3 3 3 4 4 4 4 4 4 3 3 3 3 2 1 1 0 -1 -1 -2 -2 -3 -4 -4 -4 -5 -6 -7 -7 -7 -7 -7 -7 -7 -8 -7
5 5 4 4 4 3 3 3 3 3 4 4 3 3 3 3 3 3 3 3 2 1 1 -0 -2 -2 -2 -3 -4 -4 -5 -5 -5 -6 -6 -6 -6 -7 -7 -7 -8 -8 -8
5 5 4 4 3 3 3 3 3 3 3 3 3 3 3 3 3 2 2 1 1 1 0 -0 -1 -2 -2 -3 -4 -4 -5 -5 -6 -6 -6 -6 -6 -6 -7 -7 -8 -8 -9
4 4 3 3 3 3 3 3 3 2 2 2 2 2 2 2 2 2 2 1 1 0 -0 -0 -1 -2 -3 -3 -4 -5 -5 -6 -6 -6 -6 -6 -6 -6 -7 -8 -8 -8 -8
4 3 3 3 3 3 2 2 2 2 1 1 1 1 1 2 1 1 1 1 0 -1 -0 -1 -1 -2 -3 -4 -4 -5 -5 -6 -6 -6 -6 -6 -6 -7 -7 -8 -8 -8 -8
3 3 2 2 2 2 2 2 1 2 2 1 -0 -1 0 1 1 1 0 -0 -0 -1 -1 -2 -2 -3 -4 -4 -5 -5 -5 -5 -5 -5 -5 -5 -6 -7 -7 -8 -8 -8 -8
1 1 0 0 -0 -0 -0 -0 -0 0 0 -1 -1 -1 -1 -1 1 1 0 -0 -1 -1 -1 -3 -4 -5 -5 -5 -5 -5 -5 -5 -5 -5 -5 -5 -6 -7 -8 -8 -8 -8 -9
-1 -1 -2 -2 -2 -2 -3 -3 -2 -2 -1 -1 -1 -1 -1 -1 -2 -1 -1 -2 -1 -2 -3 -4 -5 -5 -5 -5 -5 -5 -5 -5 -5 -5 -5 -6 -6 -7 -8 -8 -9 -9 -9
-3 -3 -4 -4 -4 -5 -4 -4 -4 -4 -3 -3 -2 -2 -2 -1 -1 -2 -2 -2 -2 -3 -3 -4 -5 -5 -5 -5 -5 -5 -5 -5 -5 -5 -5 -5 -6 -7 -8 -8 -9 -9 -9
-4 -5 -5 -6 -6 -6 -6 -6 -6 -5 -5 -4 -4 -3 -2 -2 -2 -2 -2 -2 -3 -3 -3 -3 -4 -5 -5 -5 -5 -5 -5 -5 -6 -6 -5 -6 -6 -7 -8 -8 -9 -9 -9
-6 -7 -7 -7 -7 -7 -7 -7 -7 -6 -6 -6 -5 -4 -3 -3 -2 -2 -2 -3 -3 -3 -3 -4 -4 -5 -5 -5 -5 -5 -5 -5 -5 -5 -5 -6 -6 -7 -8 -8 -9 -9 -9
-8 -8 -8 -8 -8 -8 -8 -8 -8 -7 -7 -6 -5 -5 -5 -3 -3 -3 -3 -4 -4 -4 -4 -4 -4 -4 -4 -5 -5 -5 -5 -5 -6 -6 -6 -6 -6 -7 -8 -8 -9 -9 -9
-10 -10 -10 -10 -10 -10 -10 -10 -9 -8 -9 -10 -10 -8 -7 -5 -5 -4 -5 -4 -4 -5 -4 -3 -3 -4 -4 -5 -5 -5 -5 -5 -5 -5 -5 -6 -7 -7 -7 -8 -9 -9 -9
-11 -12 -12 -12 -12 -13 -13 -12 -11 -12 -11 -11 -11 -11 -10 -10 -9 -8 -7 -8 -7 -5 -4 -4 -4 -4 -4 -5 -5 -5 -5 -5 -5 -5 -5 -5 -6 -7 -7 -8 -9 -9 -9
-12 -13 -13 -13 -14 -14 -14 -14 -14 -14 -14 -13 -13 -12 -12 -12 -12 -12 -12 -12 -10 -9 -7 -6 -6 -4 -4 -5 -5 -5 -4 -4 -4 -4 -5 -5 -6 -7 -7 -8 -9 -9 -10
-14 -15 -15 -15 -15 -16 -16 -16 -16 -16 -16 -16 -15 -14 -14 -14 -14 -14 -14 -13 -12 -11 -10 -9 -8 -6 -6 -5 -5 -5 -4 -4 -4 -4 -5 -5 -5 -6 -7 -8 -9 -9 -10
-15 -16 -16 -17 -17 -17 -17 -17 -17 -17 -17 -17 -17 -16 -16 -15 -15 -15 -15 -15 -15 -13 -12 -11 -10 -9 -7 -6 -5 -4 -4 -4 -4 -4 -5 -5 -5 -6 -7 -8 -8 -9 -10
-16 -16 -17 -17 -18 -18 -18 -19 -19 -19 -19 -19 -18 -18 -18 -17 -17 -17 -17 -17 -16 -15 -13 -11 -11 -10 -8 -6 -5 -4 -4 -4 -4 -5 -5 -5 -6 -6 -7 -8 -9 -10 -10

GFSGL_925_temp_048.txt.gz
Temp
14 14 14 14 13 12 11 12 11 9 8 7 7 7 7 6 7 7 6 5 5 5 4 3 3 2 2 2 2 1 1 -0 -2 -1 -2 -2 -3 -3 -4 -4 -4 -5 -4
15 14 13 12 11 10 10 9 8 8 8 7 6 6 6 7 6 6 5 5 5 4 4 3 3 2 2 2 1 1 0 -0 -2 -3 -2 -3 -3 -4 -4 -5 -5 -5 -5
13 13 11 10 10 9 8 8 8 8 7 6 7 7 6 6 5 4 5 5 4 4 4 3 3 2 2 1 1 1 -0 -1 -2 -3 -4 -4 -5 -5 -5 -5 -6 -6 -6
11 10 9 8 8 9 9 9 8 8 7 7 6 6 5 4 4 5 5 5 5 4 4 3 3 2 2 1 1 0 -0 -1 -2 -3 -4 -5 -5 -5 -6 -7 -7 -7 -7
9 8 8 8 8 8 8 7 7 7 6 5 5 4 3 3 4 5 5 5 5 4 4 3 2 2 1 1 0 -0 -1 -2 -3 -4 -5 -6 -6 -6 -7 -7 -8 -8 -8
8 8 8 8 8 7 6 5 5 5 5 5 4 3 3 3 4 5 4 4 4 4 3 3 2 1 1 -0 -1 -1 -1 -2 -3 -4 -5 -6 -6 -7 -7 -8 -8 -8 -6
7 6 6 6 5 5 5 5 5 5 5 4 3 3 3 4 4 5 5 4 4 4 3 3 1 0 -0 -2 -1 -2 -2 -3 -3 -4 -5 -6 -7 -6 -7 -8 -8 -8 -7
4 4 5 5 5 5 5 5 4 3 3 3 3 3 4 4 4 4 4 4 3 3 3 2 1 1 -0 -1 -2 -2 -3 -3 -4 -5 -5 -5 -6 -7 -7 -7 -8 -8 -8
4 5 5 5 4 4 4 3 3 3 3 3 3 3 3 3 3 3 3 3 3 3 3 2 1 0 -0 -1 -3 -3 -3 -4 -4 -5 -5 -6 -7 -7 -7 -7 -7 -8 -8
5 4 4 4 4 4 3 3 3 3 3 3 3 3 3 3 3 2 2 2 2 2 2 1 1 0 -1 -2 -4 -3 -4 -4 -4 -5 -5 -6 -6 -6 -7 -7 -7 -9 -9
4 4 4 4 3 3 3 3 3 2 2 2 2 2 2 2 2 2 2 2 2 1 1 1 1 0 -1 -2 -4 -3 -3 -4 -5 -5 -6 -6 -6 -6 -6 -7 -7 -8 -9
4 3 3 3 3 2 2 2 2 2 1 1 1 1 2 2 2 2 1 1 1 0 0 1 0 -0 -1 -2 -3 -3 -3 -5 -5 -6 -6 -6 -6 -6 -6 -7 -7 -8 -8
3 2 2 1 1 1 1 0 0 0 -0 -0 -1 -1 -1 -0 -0 0 1 1 1 0 0 0 -0 -0 -1 -3 -3 -4 -4 -5 -5 -6 -6 -6 -6 -6 -6 -7 -8 -8 -8
1 0 -0 -0 -0 -0 -0 -1 -1 -2 -2 -3 -3 -2 -2 -2 -2 -1 -1 -0 -1 -0 -1 -1 -1 -2 -3 -3 -4 -4 -5 -5 -5 -6 -6 -6 -5 -6 -6 -7 -8 -8 -9
-1 -1 -2 -2 -3 -3 -3 -4 -4 -4 -4 -4 -4 -4 -3 -3 -3 -3 -3 -2 -2 -2 -2 -3 -3 -4 -4 -4 -5 -5 -5 -5 -6 -6 -6 -6 -6 -6 -7 -7 -8 -9 -9
-3 -4 -4 -5 -5 -5 -6 -6 -6 -6 -6 -6 -5 -5 -4 -4 -4 -3 -2 -3 -3 -3 -3 -3 -4 -4 -5 -5 -5 -5 -5 -5 -5 -5 -6 -6 -6 -6 -7 -7 -8 -9 -9
-5 -6 -6 -6 -7 -7 -7 -7 -7 -7 -7 -7 -6 -6 -6 -5 -5 -4 -4 -3 -3 -3 -3 -3 -4 -4 -4 -5 -5 -6 -6 -5 -4 -5 -5 -6 -6 -6 -7 -8 -8 -9 -9
-6 -7 -7 -8 -8 -8 -8 -8 -8 -8 -8 -8 -8 -7 -7 -7 -6 -5 -4 -4 -3 -3 -3 -3 -3 -4 -4 -5 -5 -5 -6 -5 -5 -5 -6 -6 -6 -6 -7 -8 -8 -9 -10
-8 -9 -9 -9 -9 -9 -10 -10 -10 -10 -9 -9 -10 -10 -10 -9 -8 -6 -5 -5 -4 -4 -4 -4 -4 -3 -3 -4 -5 -5 -6 -6 -5 -5 -6 -6 -6 -6 -7 -8 -8 -9 -10
-10 -10 -10 -10 -11 -11 -11 -12 -11 -11 -11 -11 -12 -12 -12 -11 -10 -10 -10 -9 -8 -6 -5 -4 -4 -4 -4 -4 -5 -5 -6 -6 -6 -6 -6 -6 -6 -6 -7 -7 -8 -9 -9
-11 -11 -11 -11 -12 -13 -13 -13 -14 -13 -14 -14 -14 -14 -13 -13 -12 -12 -12 -12 -12 -12 -11 -9 -7 -4 -4 -4 -5 -5 -6 -6 -6 -6 -5 -6 -6 -7 -7 -7 -8 -9 -9
-12 -13 -13 -14 -14 -14 -15 -15 -15 -16 -16 -16 -16 -15 -15 -14 -14 -14 -14 -14 -14 -13 -13 -12 -11 -9 -7 -5 -5 -5 -6 -6 -6 -5 -5 -6 -6 -6 -7 -8 -8 -9 -10
-13 -14 -14 -15 -15 -16 -16 -16 -17 -17 -17 -17 -17 -17 -17 -16 -16 -16 -16 -15 -15 -14 -13 -13 -13 -11 -9 -8 -7 -6 -6 -6 -5 -5 -5 -5 -6 -6 -7 -8 -8 -9 -10
-14 -15 -15 -16 -16 -17 -17 -17 -18 -18 -18 -18 -18 -18 -18 -18 -17 -17 -17 -17 -17 -16 -15 -14 -13 -13 -11 -10 -8 -7 -6 -6 -5 -5 -5 -5 -5 -6 -6 -8 -8 -9 -9
-15 -16 -16 -17 -18 -18 -18 -18 -19 -19 -19 -19 -19 -19 -19 -19 -19 -19 -18 -18 -18 -17 -16 -15 -14 -13 -12 -11 -9 -8 -7 -6 -5 -5 -5 -5 -5 -5 -6 -7 -8 -9 -9
-16 -16 -17 -17 -18 -19 -19 -19 -19 -20 -20 -20 -20 -20 -20 -20 -20 -20 -20 -20 -19 -18 -17 -16 -14 -14 -12 -11 -10 -9 -6 -6 -5 -5 -5 -6 -6 -6 -6 -7 -8 -9 -9

GFSGL_925_temp_051.txt.gz
Temp
14 13 13 13 12 12 12 10 10 9 8 6 6 7 7 6 5 6 6 5 5 5 5 4 4 3 3 3 2 2 2 2 2 2 1 0 -1 -2 -2 -3 -3 -4 -3
14 15 14 13 12 11 10 9 8 8 7 7 7 6 6 6 6 5 5 5 4 4 4 3 3 3 2 2 2 2 2 1 1 2 1 -0 -2 -2 -3 -3 -4 -4 -4
13 12 12 10 9 8 8 8 8 7 7 7 6 6 5 5 5 4 4 4 4 4 4 3 3 3 2 2 2 1 1 1 0 -0 0 -0 -2 -3 -3 -3 -4 -4 -4
11 10 8 7 7 8 7 7 6 6 6 6 5 5 5 5 4 4 4 4 4 4 4 4 3 2 2 2 2 1 1 0 0 -1 -1 -1 -2 -2 -4 -4 -3 -3 -4
10 8 7 7 7 7 7 7 6 6 6 5 5 5 5 4 4 3 3 3 3 4 4 4 3 3 3 2 1 1 0 -0 -0 -1 -1 -1 -2 -2 -2 -4 -4 -4 -4
7 6 6 7 7 6 6 5 5 4 3 4 4 4 4 4 3 3 3 3 3 3 3 3 3 3 2 2 1 0 -1 -0 -1 -1 -1 -1 -2 -2 -4 -4 -5 -4 -4
6 5 5 6 5 5 5 4 4 4 4 4 3 3 2 3 3 4 4 3 2 3 3 3 2 2 2 1 0 -0 -1 -1 -2 -2 -2 -2 -3 -4 -4 -5 -4 -5 -4
5 4 4 5 5 5 5 4 4 4 3 3 2 2 2 3 3 3 3 3 2 2 2 2 2 1 1 0 -1 -1 -1 -1 -3 -3 -3 -3 -4 -5 -5 -5 -5 -6 -5
4 4 5 5 4 4 4 4 3 3 2 2 2 2 2 2 3 3 2 2 1 2 1 2 1 1 1 1 -1 -3 -2 -2 -3 -3 -4 -4 -5 -5 -6 -6 -5 -5 -5
4 3 4 4 4 4 4 3 3 2 2 2 2 2 2 2 2 2 2 1 0 1 1 1 2 1 1 1 -2 -3 -3 -2 -3 -4 -4 -5 -5 -6 -6 -6 -6 -5 -5
3 3 3 3 3 3 2 2 1 1 1 1 1 1 1 1 1 1 1 0 -1 -0 0 0 -0 1 1 1 -0 -2 -3 -3 -4 -4 -4 -4 -5 -5 -5 -5 -6 -6 -6
2 2 2 2 1 1 1 0 0 -0 -1 -1 -1 -1 -1 -1 -2 -1 -1 -1 -1 -2 -2 -1 -0 1 1 0 -1 -2 -2 -3 -4 -4 -5 -5 -5 -5 -5 -5 -6 -6 -6
1 -0 -0 -0 -0 -1 -1 -1 -1 -2 -2 -2 -2 -2 -2 -3 -3 -3 -3 -3 -3 -3 -3 -2 -2 -1 -0 -1 -2 -2 -3 -5 -5 -5 -4 -5 -5 -5 -5 -6 -7 -7 -7
-1 -2 -2 -2 -2 -3 -3 -3 -3 -3 -4 -3 -4 -4 -4 -4 -4 -4 -4 -4 -4 -3 -3 -3 -3 -2 -3 -3 -3 -3 -4 -4 -4 -5 -4 -4 -5 -6 -6 -6 -6 -6 -7
-2 -3 -3 -4 -4 -4 -4 -5 -5 -5 -6 -6 -5 -6 -6 -6 -5 -6 -6 -5 -5 -4 -4 -3 -3 -3 -4 -3 -4 -4 -4 -4 -5 -5 -5 -5 -6 -6 -6 -6 -7 -7 -7
-3 -4 -5 -5 -5 -5 -5 -5 -6 -7 -7 -7 -7 -8 -7 -8 -8 -7 -6 -6 -5 -4 -4 -3 -3 -3 -3 -3 -3 -4 -4 -4 -4 -5 -5 -5 -5 -6 -6 -6 -7 -7 -6
-5 -6 -6 -6 -6 -6 -7 -7 -7 -7 -8 -8 -9 -9 -9 -10 -9 -8 -8 -7 -5 -4 -3 -3 -3 -3 -3 -4 -3 -4 -4 -4 -5 -5 -5 -5 -6 -6 -6 -6 -6 -7 -7
-7 -8 -8 -8 -8 -8 -8 -9 -8 -8 -9 -9 -9 -10 -11 -11 -10 -10 -10 -9 -8 -8 -6 -4 -3 -3 -3 -3 -3 -4 -4 -4 -5 -6 -6 -5 -6 -6 -6 -6 -6 -7 -7
-8 -8 -9 -9 -10 -10 -10 -10 -10 -10 -10 -10 -10 -11 -12 -13 -12 -11 -11 -11 -11 -10 -10 -10 -9 -7 -4 -4 -4 -4 -4 -4 -5 -6 -6 -6 -6 -6 -6 -6 -6 -7 -8
-9 -11 -11 -10 -11 -11 -11 -11 -11 -11 -12 -12 -12 -13 -13 -14 -13 -12 -12 -12 -12 -12 -12 -12 -11 -10 -9 -6 -4 -4 -4 -5 -5 -6 -6 -6 -7 -7 -6 -6 -7 -7 -7
-10 -11 -12 -12 -12 -13 -13 -13 -13 -13 -13 -14 -14 -15 -16 -15 -14 -13 -13 -14 -14 -13 -14 -13 -13 -12 -11 -10 -9 -5 -5 -5 -6 -6 -7 -7 -7 -7 -7 -7 -7 -8 -7
-12 -13 -13 -13 -14 -14 -15 -15 -15 -15 -15 -15 -15 -16 -17 -15 -15 -15 -15 -15 -15 -15 -15 -15 -14 -14 -14 -13 -12 -10 -7 -6 -6 -7 -7 -7 -7 -7 -7 -7 -7 -8 -8
-14 -14 -14 -15 -16 -16 -16 -17 -17 -17 -17 -17 -17 -17 -17 -17 -17 -17 -16 -17 -17 -17 -16 -16 -16 -15 -15 -14 -14 -13 -10 -9 -6 -6 -7 -7 -7 -7 -7 -7 -8 -8 -8
-14 -15 -16 -16 -17 -17 -18 -18 -18 -18 -19 -18 -18 -18 -18 -18 -18 -18 -18 -18 -18 -18 -18 -18 -17 -16 -16 -14 -14 -13 -12 -11 -9 -7 -6 -7 -7 -7 -7 -7 -8 -8 -9
-15 -16 -17 -17 -18 -19 -19 -19 -19 -20 -20 -20 -20 -19 -19 -19 -19 -19 -19 -19 -19 -19 -19 -18 -18 -17 -16 -15 -13 -12 -11 -10 -9 -7 -6 -7 -7 -7 -7 -8 -8 -8 -9
-16 -16 -17 -18 -19 -19 -20 -20 -20 -21 -21 -21 -21 -21 -21 -21 -20 -20 -20 -20 -20 -20 -20 -19 -18 -17 -15 -14 -13 -11 -10 -10 -9 -7 -7 -6 -7 -7 -8 -8 -8 -9 -10

GFSGL_925_temp_054.txt.gz
Temp
18 17 16 15 15 13 12 11 11 11 10 9 8 6 5 6 5 5 4 4 4 5 7 6 6 6 6 6 6 6 5 5 6 6 6 5 4 2 2 1 1 0 -0
18 17 16 14 12 12 11 10 10 10 9 7 6 6 6 6 5 4 4 4 5 7 7 6 6 6 6 5 5 5 5 5 5 5 5 4 4 3 2 1 0 -0 -0
17 15 12 11 10 10 9 9 9 8 7 6 6 6 6 5 4 5 4 4 6 6 6 6 6 6 6 6 5 5 5 5 5 4 4 4 3 3 1 1 0 -0 -0
12 10 9 9 9 8 8 7 6 6 6 5 6 6 5 5 5 4 4 5 5 6 6 5 6 6 6 6 5 5 5 4 4 4 3 3 3 3 1 1 1 1 0
9 8 8 7 7 7 7 7 6 5 5 6 5 4 5 5 3 3 3 3 5 5 5 5 5 5 5 5 5 5 5 4 3 3 2 2 2 2 2 2 0 -0 -0
8 7 7 7 6 6 6 6 5 5 5 5 5 5 4 3 3 3 3 4 4 5 6 6 6 5 4 3 3 3 3 4 3 1 2 2 1 1 2 1 -0 -0 0
8 7 7 7 6 6 5 5 5 5 5 4 4 4 3 3 3 3 3 3 4 5 5 5 5 5 5 4 3 3 2 1 1 1 1 1 1 1 1 0 -1 -1 -1
8 7 6 6 6 6 5 4 4 4 4 4 4 4 5 5 4 3 3 2 3 4 4 4 4 4 4 4 4 3 2 1 0 -1 -1 0 1 0 -0 -1 -2 -2 -2
7 7 6 6 5 5 5 5 4 5 5 5 5 4 4 4 3 2 2 2 3 3 3 4 4 4 4 3 2 2 2 2 1 -0 -1 -1 -1 -2 -3 -3 -3 -2 -2
7 6 6 6 4 4 5 5 5 4 4 4 4 4 3 3 3 1 0 0 1 2 2 2 2 2 2 2 1 1 1 1 1 -0 -2 -3 -3 -4 -4 -5 -3 -3 -2
6 5 4 4 4 4 4 4 4 4 3 3 2 2 2 1 1 -0 -2 -2 -1 -1 -1 -0 0 1 1 1 1 -0 -0 0 0 -1 -2 -2 -1 -1 -2 -4 -4 -3 -3
5 4 4 3 3 3 3 3 3 3 2 2 1 1 0 -0 -1 -2 -3 -3 -3 -3 -2 -2 -1 -1 -1 -2 -1 -2 -1 -1 -2 -2 -3 -3 -1 -1 -2 -2 -2 -3 -3
4 3 3 2 2 2 2 2 2 1 1 0 -0 -1 -1 -2 -2 -2 -4 -5 -5 -4 -4 -3 -3 -3 -3 -3 -3 -2 -2 -3 -2 -3 -3 -3 -2 -2 -2 -3 -3 -3 -4
3 2 2 1 1 1 1 0 0 -1 -1 -2 -2 -2 -3 -3 -3 -5 -6 -5 -5 -5 -4 -3 -3 -3 -2 -2 -3 -3 -2 -3 -3 -3 -3 -2 -3 -4 -3 -3 -4 -4 -4
2 1 0 -0 -0 0 -1 -2 -3 -3 -5 -4 -4 -5 -5 -5 -6 -8 -8 -7 -7 -7 -6 -4 -3 -2 -1 -1 -2 -3 -3 -3 -3 -3 -3 -3 -3 -4 -4 -4 -4 -4 -4
1 -0 -2 -1 -2 -1 -1 -2 -5 -6 -7 -7 -8 -8 -8 -8 -9 -9 -8 -9 -8 -7 -5 -4 -3 -2 -2 -1 -1 -2 -3 -3 -3 -3 -3 -3 -3 -4 -4 -4 -4 -4 -4
-1 -2 -3 -3 -3 -3 -3 -3 -3 -4 -6 -8 -8 -9 -10 -11 -10 -10 -9 -9 -7 -7 -6 -6 -5 -5 -6 -2 -1 -2 -3 -3 -4 -4 -3 -3 -4 -4 -4 -4 -4 -4 -4
-5 -5 -4 -4 -4 -5 -5 -5 -5 -6 -6 -6 -7 -9 -10 -11 -11 -10 -10 -9 -8 -7 -7 -7 -8 -7 -7 -6 -5 -3 -3 -3 -3 -3 -3 -4 -4 -4 -4 -4 -4 -4 -4
-4 -5 -6 -6 -7 -7 -7 -7 -7 -7 -7 -7 -8 -8 -10 -12 -11 -10 -10 -9 -10 -9 -9 -9 -9 -9 -9 -8 -7 -6 -4 -3 -3 -3 -4 -4 -4 -4 -4 -4 -4 -4 -4
-7 -9 -8 -7 -7 -8 -8 -8 -8 -8 -8 -8 -9 -10 -11 -12 -11 -10 -10 -10 -11 -11 -11 -11 -10 -10 -10 -10 -9 -9 -7 -5 -3 -4 -4 -4 -4 -4 -4 -4 -4 -4 -5
-6 -8 -10 -8 -8 -9 -9 -9 -9 -10 -10 -10 -10 -11 -15 -14 -11 -11 -12 -11 -12 -12 -12 -12 -12 -12 -11 -11 -11 -10 -10 -8 -5 -4 -4 -4 -4 -5 -5 -5 -5 -5 -4
-9 -9 -9 -10 -10 -11 -12 -11 -11 -11 -11 -12 -12 -12 -14 -13 -13 -13 -13 -13 -13 -14 -14 -14 -13 -13 -13 -12 -13 -13 -11 -10 -8 -8 -5 -5 -5 -5 -5 -5 -5 -5 -5
-11 -11 -11 -11 -12 -13 -12 -13 -12 -13 -13 -13 -13 -13 -14 -14 -14 -14 -14 -15 -14 -15 -15 -15 -15 -15 -14 -14 -14 -14 -13 -11 -10 -11 -10 -6 -5 -5 -5 -5 -5 -5 -5
-12 -12 -12 -13 -13 -13 -13 -14 -14 -14 -15 -14 -14 -14 -14 -15 -15 -15 -15 -15 -16 -16 -16 -16 -16 -16 -15 -15 -15 -15 -14 -13 -13 -13 -11 -9 -6 -5 -5 -5 -5 -5 -5
-13 -13 -13 -13 -14 -14 -14 -14 -15 -15 -15 -15 -15 -16 -16 -16 -16 -16 -16 -17 -17 -17 -17 -18 -17 -16 -16 -16 -16 -16 -14 -14 -14 -14 -12 -9 -6 -5 -5 -5 -5 -6 -6
-13 -14 -14 -15 -15 -15 -15 -16 -16 -16 -16 -17 -17 -17 -17 -17 -17 -17 -17 -17 -17 -18 -18 -17 -17 -17 -17 -17 -16 -15 -15 -12 -13 -12 -12 -9 -6 -6 -6 -5 -5 -6 -6

GFSGL_925_temp_057.txt.gz
Temp
21 20 18 16 15 15 14 14 13 11 10 9 9 9 8 6 5 5 6 5 5 4 5 5 6 8 8 8 8 8 7 7 8 8 8 7 7 6 6 4 3 3 2
22 20 17 16 15 14 13 13 12 11 10 9 8 7 6 6 6 5 5 5 4 4 5 6 7 7 7 7 7 7 7 7 7 7 7 7 6 6 5 5 3 3 2
21 16 14 13 13 12 12 11 10 9 8 6 6 6 5 5 4 4 5 5 4 4 5 6 7 7 7 7 7 7 7 7 7 7 7 6 6 6 5 4 3 3 2
15 12 11 10 10 9 9 8 7 6 6 6 5 5 5 4 5 5 4 4 4 5 5 5 6 6 7 7 7 7 7 7 7 6 6 6 5 5 5 4 3 3 3
10 9 8 8 8 7 7 6 6 5 5 5 4 4 5 5 5 4 4 3 4 4 5 5 7 7 7 6 6 6 6 6 7 6 5 5 5 4 3 3 2 2 3
9 9 9 9 9 9 8 8 7 6 5 5 5 5 5 4 4 3 3 3 4 5 6 6 7 7 7 7 6 5 5 4 4 4 5 4 4 3 2 2 2 2 2
10 10 10 10 9 8 8 8 7 6 6 5 5 4 4 3 4 4 3 3 4 5 5 6 6 6 6 6 6 6 5 4 4 3 2 3 3 2 2 2 1 1 1
11 10 9 9 9 8 7 7 6 6 6 5 5 5 4 6 5 4 3 3 4 4 5 5 5 5 5 5 5 5 5 4 4 2 1 1 1 1 1 1 1 0 -0
10 10 9 8 7 8 7 7 6 6 6 7 7 6 6 6 4 3 2 2 2 3 3 3 4 3 3 3 2 3 3 3 3 3 2 1 0 1 0 0 -1 -1 -1
10 9 8 8 8 7 7 7 7 7 6 6 6 5 5 4 2 1 0 0 -0 0 1 1 0 0 0 1 -0 -0 0 1 2 2 1 -1 -1 -1 -1 -1 -2 -2 -1
8 8 7 7 7 7 6 6 6 6 5 4 4 3 3 2 1 -0 -2 -2 -2 -3 -3 -2 -2 -1 -1 -2 -1 -3 -2 -2 -1 0 1 0 -1 -0 -1 -3 -3 -3 -2
7 7 7 6 6 6 6 5 5 5 4 3 2 2 2 1 -0 -1 -3 -4 -4 -4 -4 -3 -3 -3 -3 -3 -3 -3 -3 -3 -2 -2 -1 -1 -1 -2 -1 -1 -2 -2 -2
7 6 6 5 5 5 5 4 5 4 3 2 1 1 1 -1 -1 -2 -4 -5 -5 -5 -5 -5 -5 -4 -4 -3 -2 -2 -2 -2 -3 -2 -2 -2 -1 -1 -2 -3 -2 -1 -1
6 5 5 5 4 4 4 3 3 1 0 0 0 -1 -1 -2 -2 -5 -6 -6 -6 -6 -6 -6 -5 -4 -3 -2 -1 -2 -2 -2 -3 -2 -2 -2 -1 -2 -2 -3 -3 -3 -3
5 4 4 3 3 3 2 1 -1 -3 -4 -3 -3 -4 -4 -5 -6 -8 -8 -7 -8 -8 -7 -6 -4 -4 -3 -3 -3 -2 -1 -2 -2 -2 -2 -2 -1 -2 -3 -3 -3 -3 -3
4 3 2 1 1 2 2 -1 -3 -3 -4 -6 -7 -7 -7 -8 -9 -10 -9 -8 -9 -7 -6 -4 -5 -6 -5 -5 -4 -4 -3 -2 -2 -2 -2 -2 -2 -2 -3 -3 -3 -4 -3
2 1 -1 0 0 0 -1 -1 -0 -5 -5 -5 -7 -7 -9 -10 -10 -10 -9 -9 -8 -7 -6 -5 -6 -7 -7 -7 -6 -6 -5 -4 -3 -3 -3 -2 -3 -2 -3 -3 -3 -4 -4
-1 -1 -0 -1 -1 -2 -2 -2 -3 -3 -4 -4 -6 -7 -8 -9 -10 -10 -9 -9 -6 -7 -7 -7 -7 -8 -8 -8 -8 -8 -7 -6 -5 -3 -3 -3 -3 -3 -3 -3 -3 -3 -3
-1 -1 -2 -3 -4 -4 -4 -4 -4 -5 -5 -5 -5 -6 -7 -9 -10 -9 -8 -8 -8 -8 -8 -8 -8 -9 -9 -10 -9 -9 -9 -8 -7 -6 -3 -3 -3 -3 -3 -3 -3 -4 -4
-5 -5 -4 -4 -5 -5 -5 -5 -5 -5 -6 -6 -6 -6 -8 -11 -10 -9 -9 -9 -9 -9 -10 -10 -10 -11 -11 -11 -10 -10 -10 -10 -9 -7 -6 -3 -3 -3 -3 -3 -3 -4 -4
-3 -6 -6 -5 -5 -6 -6 -6 -7 -7 -7 -7 -8 -8 -11 -12 -11 -9 -10 -10 -10 -11 -11 -11 -12 -12 -12 -12 -11 -11 -11 -11 -10 -9 -8 -7 -4 -4 -4 -3 -4 -4 -4
-6 -6 -7 -7 -7 -8 -9 -8 -8 -8 -8 -9 -9 -9 -11 -11 -10 -11 -11 -11 -12 -12 -12 -13 -13 -13 -13 -13 -13 -12 -12 -12 -12 -11 -10 -10 -8 -6 -4 -4 -4 -4 -4
-8 -8 -8 -8 -9 -10 -10 -9 -10 -9 -10 -10 -11 -11 -11 -11 -12 -12 -12 -13 -13 -13 -14 -14 -14 -14 -14 -14 -14 -14 -13 -13 -13 -12 -12 -12 -10 -9 -5 -4 -4 -4 -4
-9 -10 -9 -10 -10 -11 -10 -11 -11 -11 -12 -12 -11 -11 -12 -12 -13 -13 -13 -14 -14 -15 -15 -15 -15 -16 -15 -15 -15 -15 -14 -14 -14 -13 -13 -13 -12 -10 -8 -4 -4 -5 -5
-10 -10 -11 -11 -11 -11 -11 -11 -12 -12 -12 -12 -12 -13 -13 -13 -14 -14 -14 -15 -15 -16 -16 -17 -16 -16 -16 -16 -16 -15 -15 -14 -14 -15 -15 -13 -12 -12 -9 -6 -5 -5 -5
-11 -11 -12 -12 -12 -12 -12 -12 -13 -13 -13 -13 -14 -14 -14 -14 -15 -15 -15 -16 -16 -17 -17 -17 -17 -16 -16 -16 -15 -15 -15 -15 -15 -15 -14 -14 -13 -11 -9 -5 -5 -5 -5

GFSGL_925_temp_063.txt.gz
Temp
19 19 19 20 20 17 18 17 16 15 13 14 14 13 11 11 10 9 9 8 7 7 7 6 6 6 6 6 6 7 7 7 6 6 7 7 7 7 7 7 7 6 6
19 19 19 17 18 17 16 14 13 13 12 13 12 11 10 9 9 8 7 6 6 6 6 5 6 5 6 6 6 7 7 7 7 5 6 6 7 7 7 7 7 6 5
17 17 17 17 14 14 14 13 12 12 12 11 10 10 9 8 7 7 6 6 6 6 5 5 5 5 5 5 6 6 7 7 7 6 5 6 6 6 6 6 6 4 4
14 14 13 13 13 13 12 11 11 11 10 10 9 8 7 7 6 6 5 5 5 5 5 5 5 5 5 5 5 6 6 6 6 6 5 5 5 5 5 5 5 5 4
11 11 11 11 11 10 10 10 10 9 8 8 7 6 6 6 5 5 5 5 5 4 4 5 5 5 5 5 5 4 4 3 4 3 3 3 3 3 3 4 4 4 3
11 10 10 10 9 9 9 8 8 7 7 6 6 5 5 5 5 5 5 4 4 4 4 4 4 4 4 3 3 3 2 0 0 0 0 1 2 2 3 3 2 1 -0
10 9 8 8 8 8 7 7 6 6 5 5 5 5 5 5 5 4 4 3 3 3 3 2 2 2 2 2 1 1 1 1 -1 -1 -1 -1 -0 -0 0 0 0 0 -1
9 9 8 8 7 7 6 6 5 5 5 5 5 5 4 4 4 3 3 2 2 2 1 1 0 0 -0 -1 -2 -2 -3 -3 -3 -3 -2 -2 -2 -2 -1 -2 -1 0 -0
10 9 8 8 8 7 6 6 5 5 5 5 5 4 4 3 2 2 2 2 1 0 -0 -1 -2 -2 -3 -3 -4 -5 -5 -4 -3 -3 -4 -3 -3 -3 -3 -2 -1 -1 -1
9 9 8 8 7 6 7 6 6 6 6 5 4 4 3 2 1 1 0 -0 -1 -2 -2 -3 -3 -4 -4 -5 -5 -5 -6 -5 -4 -4 -4 -4 -4 -4 -3 -2 -2 -1 -2
9 8 8 8 7 7 7 6 6 5 5 4 2 2 1 1 0 -0 -1 -2 -3 -3 -4 -4 -4 -4 -5 -5 -5 -5 -5 -4 -4 -4 -4 -4 -3 -3 -3 -3 -2 -2 -2
8 8 8 8 7 7 7 6 6 5 5 3 2 -0 -0 -1 -1 -2 -3 -3 -4 -4 -5 -5 -5 -5 -5 -5 -5 -6 -6 -5 -6 -5 -5 -4 -4 -3 -2 -2 -3 -3 -2
8 8 8 7 7 7 6 5 4 4 3 2 1 -0 -2 -3 -3 -3 -3 -3 -4 -5 -6 -6 -5 -5 -5 -6 -6 -7 -7 -7 -7 -7 -6 -6 -3 -3 -3 -3 -3 -2 -3
7 7 7 6 6 6 5 4 3 2 2 1 0 -2 -3 -4 -4 -4 -4 -4 -5 -6 -6 -6 -6 -6 -6 -7 -7 -8 -8 -8 -8 -8 -8 -7 -5 -3 -3 -3 -3 -3 -3
6 6 6 5 4 3 2 2 1 0 1 -0 -1 -2 -3 -4 -5 -6 -6 -7 -8 -8 -7 -7 -7 -7 -8 -8 -9 -9 -9 -9 -9 -9 -9 -8 -7 -5 -3 -3 -2 -3 -3
5 5 4 3 2 1 0 -2 -2 -1 -2 -2 -3 -3 -4 -6 -7 -7 -8 -8 -8 -7 -7 -7 -8 -8 -9 -10 -10 -10 -10 -10 -10 -10 -10 -9 -8 -7 -5 -3 -3 -3 -3
3 3 2 2 1 -1 -2 -2 -5 -5 -4 -4 -4 -5 -6 -6 -7 -8 -8 -8 -8 -8 -8 -8 -9 -10 -10 -11 -11 -11 -11 -11 -11 -11 -11 -11 -10 -8 -8 -5 -3 -3 -4
2 1 1 -0 -0 -1 -2 -2 -3 -4 -5 -6 -6 -6 -7 -8 -8 -8 -8 -8 -8 -9 -9 -10 -10 -11 -11 -12 -12 -12 -13 -13 -12 -12 -12 -12 -11 -10 -9 -9 -4 -4 -4
-1 -1 -1 -2 -2 -2 -3 -3 -4 -5 -5 -5 -6 -7 -8 -9 -8 -8 -8 -9 -9 -10 -10 -11 -11 -12 -12 -13 -13 -13 -13 -14 -13 -13 -13 -12 -12 -11 -11 -10 -9 -4 -3
-3 -3 -4 -5 -5 -6 -6 -6 -6 -6 -5 -5 -6 -7 -8 -9 -9 -9 -10 -10 -11 -11 -12 -12 -13 -13 -14 -14 -14 -14 -15 -15 -14 -14 -14 -13 -13 -13 -12 -11 -11 -9 -5
-5 -6 -6 -6 -7 -7 -7 -7 -7 -7 -7 -7 -8 -8 -9 -9 -10 -10 -11 -11 -12 -12 -13 -13 -14 -14 -14 -15 -15 -16 -15 -15 -15 -15 -15 -15 -14 -14 -13 -13 -12 -11 -9
-7 -7 -7 -7 -8 -8 -8 -8 -8 -8 -8 -8 -9 -10 -10 -10 -11 -11 -12 -12 -13 -13 -14 -14 -15 -15 -16 -16 -16 -16 -16 -15 -16 -16 -16 -15 -15 -14 -14 -14 -13 -12 -10
-8 -8 -9 -9 -9 -9 -9 -9 -9 -9 -10 -10 -10 -10 -11 -11 -12 -12 -13 -13 -14 -14 -15 -15 -16 -16 -16 -16 -17 -17 -17 -17 -16 -16 -16 -15 -15 -15 -15 -15 -14 -12 -12
-9 -9 -9 -10 -10 -10 -10 -10 -10 -10 -11 -11 -11 -12 -12 -13 -13 -13 -14 -14 -15 -15 -16 -16 -17 -17 -17 -17 -17 -17 -17 -16 -16 -16 -16 -16 -16 -15 -15 -15 -14 -13 -12
-10 -10 -10 -10 -11 -11 -11 -11 -11 -12 -12 -12 -13 -13 -14 -14 -14 -15 -15 -16 -16 -16 -17 -17 -17 -18 -18 -18 -17 -17 -17 -17 -16 -16 -16 -16 -16 -15 -15 -15 -14 -13 -12
-11 -11 -11 -11 -12 -12 -12 -12 -12 -13 -13 -14 -14 -14 -15 -15 -16 -16 -16 -17 -17 -17 -18 -18 -18 -19 -19 -18 -18 -18 -17 -16 -15 -14 -15 -16 -15 -15 -14 -14 -14 -14 -13

GFSGL_925_temp_066.txt.gz
Temp
16 16 16 16 16 16 16 14 14 14 16 14 13 13 13 12 12 11 10 10 9 8 7 7 6 6 6 6 6 6 6 6 5 6 6 7 7 7 7 7 7 7 7
16 17 17 17 16 16 14 14 14 14 13 13 13 13 12 11 11 10 9 8 8 6 6 6 6 5 5 5 5 6 6 6 5 5 6 6 6 6 6 6 6 6 6
16 16 17 16 16 14 14 15 15 14 12 12 12 11 11 11 10 9 9 8 7 6 6 5 5 5 5 5 5 5 5 5 5 5 4 4 4 5 5 5 5 5 5
17 17 16 15 15 14 13 14 13 12 12 11 11 11 10 9 8 8 7 6 6 5 5 5 5 5 5 4 4 3 3 3 3 2 2 1 2 2 3 3 3 4 4
15 14 14 14 13 11 12 12 12 12 12 11 10 9 8 8 7 6 6 5 5 4 4 4 4 4 3 3 3 3 2 2 1 -0 -1 -1 -0 0 1 1 1 1 2
12 11 11 11 10 10 10 10 11 10 9 8 7 7 7 6 6 5 5 5 4 4 4 3 3 3 3 2 1 1 0 -1 -2 -2 -3 -2 -2 -2 -1 -1 -1 -1 -0
10 9 9 8 8 9 9 8 7 7 7 6 6 6 5 5 5 5 4 4 3 3 3 3 2 2 1 1 1 1 0 -1 -2 -3 -4 -4 -3 -3 -3 -3 -3 -2 -2
9 8 8 8 7 7 6 6 6 6 6 6 5 5 5 4 4 4 3 3 2 2 2 1 1 0 -1 -2 -2 -2 -3 -3 -3 -3 -3 -4 -3 -3 -4 -4 -4 -4 -4
9 8 7 7 6 6 5 5 6 5 5 5 5 4 4 3 3 3 3 2 1 0 -0 -1 -1 -1 -2 -3 -4 -5 -5 -5 -5 -5 -5 -5 -4 -4 -4 -4 -4 -4 -3
8 8 8 7 6 5 6 6 5 5 4 4 4 4 4 2 2 2 2 1 0 -1 -1 -2 -3 -3 -4 -4 -5 -5 -6 -6 -6 -6 -5 -5 -5 -5 -4 -4 -4 -4 -3
8 7 7 6 6 6 6 6 5 4 4 3 3 1 1 1 0 0 -0 -0 -1 -2 -3 -4 -4 -4 -5 -5 -6 -6 -6 -7 -7 -7 -7 -6 -6 -5 -4 -4 -3 -4 -4
8 7 6 6 6 6 6 5 5 4 3 1 0 -1 -2 -2 -1 -2 -2 -2 -2 -3 -5 -5 -5 -5 -6 -6 -6 -7 -7 -8 -8 -8 -8 -7 -8 -7 -6 -4 -3 -3 -3
7 7 7 7 6 7 6 5 3 3 2 -1 -2 -3 -4 -4 -4 -3 -3 -4 -4 -5 -6 -6 -6 -6 -6 -7 -7 -8 -8 -9 -9 -10 -9 -9 -9 -9 -7 -6 -4 -3 -4
7 6 6 6 6 5 4 4 3 2 -1 -2 -3 -4 -5 -5 -5 -5 -5 -5 -6 -6 -6 -6 -6 -7 -7 -8 -8 -9 -10 -10 -10 -10 -10 -10 -10 -9 -8 -7 -5 -3 -3
6 5 4 4 4 2 2 2 2 1 2 0 -2 -2 -4 -5 -6 -6 -6 -6 -7 -7 -7 -7 -8 -8 -9 -9 -10 -10 -11 -11 -11 -11 -11 -11 -11 -10 -10 -8 -7 -3 -3
4 3 3 2 1 0 -0 -2 -1 -1 -0 -0 -1 -2 -4 -5 -7 -7 -8 -8 -8 -7 -8 -8 -9 -10 -10 -11 -11 -12 -12 -12 -12 -12 -12 -12 -12 -12 -10 -10 -9 -7 -3
3 2 1 1 -1 -1 -2 -2 -4 -4 -4 -4 -4 -5 -5 -6 -7 -7 -8 -8 -8 -8 -8 -9 -10 -11 -11 -12 -12 -13 -13 -13 -13 -13 -13 -13 -13 -12 -11 -11 -10 -10 -7
1 1 -0 -1 -1 -2 -2 -3 -4 -5 -5 -6 -6 -6 -7 -8 -8 -8 -8 -8 -8 -9 -10 -10 -11 -12 -12 -13 -13 -14 -14 -14 -14 -14 -14 -14 -14 -13 -13 -12 -11 -11 -10
-2 -3 -2 -2 -3 -3 -4 -4 -5 -5 -5 -5 -6 -7 -8 -8 -9 -9 -9 -9 -10 -10 -11 -12 -12 -13 -13 -14 -14 -14 -15 -15 -15 -15 -15 -15 -15 -15 -14 -13 -12 -12 -11
-3 -2 -2 -3 -4 -5 -6 -6 -6 -6 -6 -7 -7 -7 -8 -9 -9 -9 -10 -11 -11 -11 -12 -13 -13 -14 -14 -14 -15 -15 -16 -16 -16 -16 -16 -16 -15 -15 -15 -14 -13 -13 -12
-4 -5 -6 -6 -6 -6 -7 -7 -7 -7 -8 -8 -8 -9 -9 -10 -10 -10 -11 -11 -12 -12 -13 -13 -14 -14 -15 -16 -16 -16 -16 -16 -16 -16 -17 -16 -16 -16 -16 -15 -14 -14 -13
-6 -7 -7 -7 -8 -8 -8 -9 -9 -9 -9 -9 -10 -10 -10 -11 -11 -11 -12 -12 -13 -13 -14 -15 -15 -15 -16 -16 -17 -17 -17 -17 -17 -17 -17 -17 -17 -16 -16 -15 -15 -15 -14
-8 -8 -8 -9 -9 -9 -10 -9 -10 -10 -10 -10 -11 -11 -12 -12 -12 -13 -13 -14 -14 -15 -15 -15 -16 -17 -17 -17 -18 -18 -18 -18 -17 -17 -17 -17 -17 -16 -16 -16 -15 -15 -14
-9 -9 -10 -10 -10 -10 -11 -11 -11 -11 -11 -12 -12 -12 -13 -13 -14 -14 -15 -15 -16 -16 -16 -17 -17 -17 -17 -18 -18 -18 -18 -18 -17 -17 -17 -17 -17 -16 -16 -16 -15 -15 -14
-10 -11 -11 -11 -11 -12 -12 -12 -12 -12 -13 -13 -13 -14 -14 -15 -15 -16 -16 -16 -17 -17 -18 -18 -18 -18 -18 -18 -18 -18 -18 -18 -18 -17 -17 -17 -17 -16 -17 -16 -16 -15 -14
-12 -12 -12 -12 -13 -13 -13 -13 -14 -14 -14 -14 -15 -15 -15 -16 -16 -17 -17 -18 -18 -18 -19 -19 -19 -19 -19 -19 -19 -20 -19 -18 -17 -16 -16 -16 -16 -16 -16 -15 -15 -14 -14

GFSGL_925_temp_069.txt.gz
Temp
13 13 13 13 13 13 14 14 14 15 14 13 13 13 12 13 12 12 12 11 11 10 9 8 8 8 7 6 6 6 5 5 4 5 6 6 6 6 6 6 6 6 6
15 14 14 14 15 14 14 14 15 15 15 14 13 12 12 12 12 12 11 11 10 10 9 7 6 6 6 5 5 5 5 5 4 3 4 4 4 5 4 4 5 4 4
14 15 15 15 16 14 14 15 15 15 15 14 14 11 12 12 12 11 11 10 9 8 7 6 6 5 5 5 5 5 5 4 3 2 1 2 2 3 3 3 3 3 3
14 14 14 14 13 14 14 15 14 14 13 12 11 11 11 11 10 10 9 9 8 7 6 6 5 5 5 4 4 4 4 3 2 1 1 0 1 1 0 -0 -1 -0 -0
14 14 14 14 14 14 15 15 13 13 13 12 11 10 10 9 9 9 8 7 6 5 5 4 4 4 4 4 4 3 2 2 1 0 -0 -1 -2 -2 -2 -2 -2 -3 -3
14 14 14 13 14 13 14 12 11 11 11 11 10 10 9 8 9 8 7 6 5 5 4 3 3 2 3 3 2 2 1 0 -1 -2 -3 -4 -4 -3 -3 -4 -4 -4 -4
13 12 11 12 12 12 12 11 10 10 9 9 8 8 7 7 7 6 6 5 4 4 3 2 2 1 1 1 0 0 -0 -2 -3 -3 -4 -4 -4 -4 -5 -5 -5 -5 -5
11 10 10 10 10 9 9 8 8 8 8 7 7 7 6 6 5 5 4 4 3 2 2 2 1 0 -0 -1 -1 -1 -2 -2 -3 -4 -5 -5 -5 -5 -5 -5 -5 -4 -4
10 10 9 9 8 7 7 7 7 6 6 6 5 5 5 4 4 4 4 3 2 1 1 0 -0 -1 -2 -2 -3 -3 -3 -4 -5 -5 -5 -5 -5 -5 -5 -5 -4 -4 -4
9 9 8 8 8 7 7 6 6 6 5 5 4 4 4 3 3 2 3 2 1 0 -1 -2 -2 -2 -3 -4 -5 -5 -6 -6 -6 -6 -5 -5 -5 -5 -5 -5 -5 -4 -4
9 8 8 7 7 6 6 5 4 4 4 3 3 2 2 2 1 2 1 1 1 -1 -2 -3 -3 -4 -4 -5 -6 -6 -7 -7 -7 -8 -8 -8 -8 -8 -7 -7 -6 -6 -4
8 7 7 6 6 5 5 3 3 3 2 1 0 -0 -0 -0 0 -0 -0 -0 -1 -2 -3 -4 -5 -5 -6 -6 -6 -7 -8 -8 -9 -9 -9 -10 -10 -9 -9 -8 -7 -6 -6
7 6 5 5 5 4 4 3 2 2 0 -2 -2 -3 -3 -3 -3 -2 -2 -2 -3 -3 -4 -5 -6 -6 -7 -7 -7 -8 -9 -9 -10 -10 -11 -11 -11 -10 -10 -9 -8 -8 -6
5 5 5 5 4 4 4 4 2 0 -2 -3 -4 -5 -5 -5 -4 -4 -4 -4 -5 -5 -6 -6 -7 -7 -7 -8 -9 -10 -10 -11 -11 -11 -12 -11 -12 -12 -11 -10 -10 -9 -8
5 4 3 3 3 1 1 0 1 -0 0 -1 -3 -3 -4 -6 -5 -5 -5 -5 -6 -6 -7 -8 -8 -8 -9 -10 -10 -11 -11 -12 -12 -12 -13 -13 -13 -13 -12 -12 -11 -10 -9
3 2 1 1 -0 -1 -2 -3 -1 -0 -0 0 -0 -1 -4 -4 -6 -7 -7 -7 -8 -8 -8 -8 -9 -10 -10 -11 -11 -12 -12 -13 -13 -13 -14 -14 -14 -14 -13 -13 -12 -11 -10
2 0 -1 -1 -2 -3 -3 -4 -6 -5 -3 -3 -3 -3 -4 -6 -7 -8 -8 -8 -8 -8 -8 -10 -10 -11 -11 -12 -12 -13 -13 -14 -14 -15 -15 -15 -15 -15 -14 -14 -13 -12 -12
-0 -2 -2 -3 -3 -2 -3 -3 -4 -5 -6 -7 -6 -6 -6 -7 -8 -8 -8 -8 -9 -9 -10 -10 -11 -12 -12 -13 -14 -14 -14 -15 -15 -15 -15 -15 -15 -16 -15 -15 -14 -13 -13
-3 -4 -4 -4 -4 -4 -4 -4 -4 -5 -6 -6 -7 -7 -8 -8 -8 -8 -9 -9 -10 -10 -11 -11 -12 -13 -13 -14 -14 -15 -15 -16 -16 -16 -16 -16 -16 -16 -16 -16 -16 -15 -14
-3 -3 -2 -3 -4 -5 -5 -5 -5 -6 -6 -6 -6 -7 -8 -9 -9 -10 -10 -10 -11 -11 -12 -12 -13 -14 -14 -15 -15 -16 -16 -16 -16 -16 -16 -17 -17 -17 -17 -17 -16 -15 -15
-5 -5 -5 -6 -6 -6 -6 -7 -7 -7 -8 -8 -8 -8 -9 -9 -10 -11 -11 -11 -12 -12 -13 -13 -14 -15 -15 -16 -16 -17 -17 -17 -17 -17 -17 -17 -17 -17 -17 -17 -17 -16 -16
-6 -7 -7 -8 -8 -8 -8 -9 -9 -9 -9 -9 -10 -10 -10 -11 -11 -11 -12 -12 -13 -13 -14 -15 -15 -16 -16 -17 -17 -17 -18 -18 -18 -18 -18 -18 -18 -18 -17 -17 -17 -17 -16
-8 -9 -9 -10 -10 -10 -10 -10 -10 -10 -11 -11 -11 -11 -12 -12 -12 -13 -13 -14 -14 -15 -15 -16 -16 -17 -17 -17 -17 -18 -19 -18 -18 -18 -18 -18 -18 -18 -17 -17 -17 -17 -16
-10 -10 -11 -11 -11 -11 -11 -12 -12 -12 -12 -12 -12 -13 -13 -14 -14 -15 -15 -15 -16 -16 -17 -17 -18 -18 -18 -18 -18 -19 -19 -19 -19 -19 -19 -19 -18 -17 -18 -17 -17 -17 -16
-11 -12 -12 -12 -13 -13 -13 -13 -14 -14 -14 -14 -14 -15 -15 -15 -16 -16 -16 -17 -17 -18 -18 -19 -19 -19 -19 -19 -19 -19 -19 -20 -19 -19 -18 -18 -18 -17 -17 -17 -17 -16 -16
-13 -13 -13 -14 -14 -14 -15 -15 -15 -15 -16 -16 -16 -16 -16 -17 -17 -17 -18 -19 -19 -19 -19 -20 -20 -20 -21 -20 -20 -20 -20 -19 -18 -17 -17 -18 -17 -17 -17 -17 -16 -16 -16

GFSGL_925_temp_072.txt.gz
Temp
11 11 11 11 11 12 12 12 12 13 14 15 15 15 14 13 13 12 12 12 12 12 11 11 10 9 8 8 7 7 6 6 4 5 5 6 6 6 5 5 5 5 5
12 12 12 12 13 14 14 14 14 13 14 14 15 14 13 12 12 12 12 12 12 11 11 10 9 8 7 7 6 6 6 5 4 3 4 4 4 4 4 3 4 4 4
12 12 12 12 13 12 12 12 12 13 14 15 15 14 13 12 13 12 13 12 11 10 10 9 9 7 7 6 6 5 4 4 3 2 2 2 2 3 2 3 3 2 2
13 13 12 12 13 13 13 13 13 13 14 14 14 13 12 12 12 12 11 11 10 9 8 8 7 6 6 5 4 4 4 3 2 2 1 1 1 1 0 -0 -1 0 -1
13 13 13 13 13 13 13 13 13 13 14 12 13 12 12 12 12 11 10 9 8 7 6 6 5 5 5 4 4 3 2 2 1 1 -0 -1 -1 -1 -2 -3 -4 -4 -4
13 13 13 13 13 13 13 13 12 12 13 12 12 12 12 11 10 10 9 8 7 6 5 4 4 4 3 3 3 2 2 1 1 -1 -2 -3 -3 -3 -4 -5 -6 -6 -4
13 13 13 13 13 13 13 12 12 12 12 11 11 11 10 9 8 8 7 6 5 5 4 3 2 2 1 1 1 1 0 -0 -1 -2 -3 -4 -4 -4 -6 -6 -5 -5 -5
13 13 13 13 12 12 12 11 11 10 10 10 10 9 7 7 6 6 6 5 4 3 3 2 2 0 -0 -0 -0 -1 -2 -2 -3 -4 -4 -4 -5 -5 -5 -5 -5 -5 -5
13 13 12 11 11 11 10 9 9 8 7 7 6 6 6 5 5 5 5 4 3 1 0 0 0 -1 -2 -1 -1 -2 -3 -4 -4 -4 -4 -4 -4 -4 -6 -6 -6 -6 -5
11 11 10 10 10 10 9 8 8 7 6 5 5 5 5 4 3 4 4 3 1 -0 -1 -1 -2 -1 -2 -3 -3 -4 -5 -6 -5 -5 -4 -4 -5 -5 -6 -6 -7 -7 -6
10 10 10 10 9 9 7 6 5 4 4 3 3 2 3 3 2 2 3 2 2 -1 -1 -3 -3 -3 -4 -5 -5 -5 -6 -6 -6 -6 -7 -6 -7 -7 -7 -7 -8 -9 -9
10 9 8 7 7 6 5 4 4 3 2 0 0 -1 -0 0 1 1 1 1 0 0 -2 -3 -4 -4 -5 -6 -6 -6 -7 -7 -7 -8 -9 -9 -10 -10 -9 -8 -8 -9 -9
8 7 6 6 5 5 4 3 2 1 -0 -2 -2 -4 -4 -3 -2 -1 -1 -1 -1 -2 -3 -4 -4 -6 -6 -7 -7 -7 -8 -8 -9 -10 -11 -11 -11 -11 -11 -11 -10 -9 -9
6 5 5 4 3 3 2 2 1 -0 -1 -2 -3 -4 -4 -4 -3 -2 -2 -2 -3 -3 -4 -6 -6 -7 -7 -7 -8 -9 -9 -10 -11 -11 -12 -12 -12 -12 -12 -12 -12 -11 -11
4 3 2 2 1 0 0 0 1 0 2 1 -1 -1 -2 -4 -4 -3 -3 -4 -4 -5 -6 -7 -8 -8 -8 -9 -10 -10 -11 -11 -12 -12 -13 -13 -13 -13 -13 -13 -13 -12 -12
2 1 1 1 -0 -1 -1 -2 -1 -1 -1 -0 -1 -2 -4 -4 -6 -6 -6 -5 -7 -7 -8 -8 -8 -9 -9 -10 -11 -11 -12 -12 -13 -13 -14 -14 -14 -14 -14 -14 -13 -13 -13
1 0 -1 -1 -2 -3 -3 -4 -5 -5 -5 -4 -4 -4 -4 -5 -6 -6 -6 -8 -8 -8 -8 -9 -9 -10 -10 -11 -12 -12 -13 -13 -14 -14 -15 -15 -15 -15 -15 -15 -15 -14 -14
-2 -3 -3 -4 -4 -5 -5 -5 -5 -5 -6 -7 -6 -6 -6 -6 -7 -7 -8 -8 -8 -9 -9 -10 -10 -11 -12 -12 -13 -13 -14 -14 -15 -15 -16 -16 -16 -16 -16 -16 -16 -16 -15
-4 -4 -5 -5 -5 -4 -4 -5 -5 -5 -6 -7 -7 -7 -7 -7 -8 -8 -8 -8 -9 -10 -10 -11 -11 -12 -13 -13 -14 -15 -15 -15 -16 -16 -16 -16 -16 -17 -17 -17 -17 -17 -16
-4 -4 -4 -4 -4 -5 -5 -5 -5 -6 -6 -7 -7 -8 -8 -8 -9 -9 -9 -10 -10 -10 -11 -12 -12 -13 -14 -14 -15 -15 -16 -16 -16 -17 -17 -17 -17 -17 -17 -17 -17 -18 -17
-6 -6 -6 -6 -7 -7 -7 -7 -7 -7 -8 -8 -9 -9 -9 -9 -10 -10 -11 -11 -11 -12 -12 -13 -14 -14 -15 -15 -16 -17 -17 -17 -17 -18 -18 -18 -18 -18 -17 -18 -18 -18 -17
-7 -8 -8 -9 -9 -9 -9 -9 -9 -9 -10 -10 -10 -11 -11 -11 -11 -12 -12 -13 -13 -14 -14 -15 -15 -16 -16 -17 -17 -18 -18 -18 -18 -18 -18 -18 -18 -18 -18 -18 -18 -18 -17
-9 -10 -10 -10 -10 -10 -11 -11 -11 -11 -11 -12 -12 -12 -12 -13 -13 -13 -14 -14 -15 -15 -16 -16 -17 -17 -18 -18 -18 -19 -19 -19 -19 -19 -19 -19 -19 -19 -19 -19 -18 -18 -17
-11 -11 -11 -12 -12 -12 -12 -13 -13 -13 -13 -13 -14 -14 -14 -14 -15 -15 -16 -16 -16 -17 -18 -18 -18 -19 -19 -19 -19 -19 -20 -20 -20 -20 -20 -20 -20 -19 -19 -19 -19 -18 -18
-12 -12 -13 -13 -14 -14 -14 -15 -15 -15 -15 -15 -15 -15 -16 -16 -17 -17 -17 -18 -18 -19 -19 -19 -20 -20 -20 -21 -21 -21 -21 -21 -21 -21 -20 -20 -20 -19 -19 -19 -18 -18 -18
-14 -14 -14 -15 -15 -16 -16 -16 -16 -16 -17 -17 -17 -17 -17 -18 -18 -19 -19 -19 -20 -20 -20 -21 -21 -21 -22 -22 -21 -21 -21 -21 -21 -19 -20 -19 -19 -19 -18 -19 -18 -19 -18

GFSGL_925_temp_075.txt.gz
Temp
12 11 11 11 11 12 13 13 13 13 14 15 15 14 14 14 15 14 13 12 12 12 12 12 11 11 10 9 9 8 8 8 8 7 7 6 6 6 5 5 5 5 4
12 12 11 11 11 11 13 14 13 13 14 13 13 13 14 15 14 14 13 12 11 12 11 11 10 10 9 9 8 7 6 6 6 6 5 5 5 4 5 5 4 3 3
12 11 11 11 11 11 12 12 12 12 12 12 12 13 14 14 14 13 12 11 11 11 12 10 10 9 9 8 6 6 5 5 5 4 3 3 3 2 2 2 3 2 3
12 12 11 11 11 11 12 12 11 11 11 12 12 13 12 12 12 12 12 11 11 11 11 10 9 8 8 6 6 5 5 4 3 2 2 2 2 1 0 1 1 -0 -1
12 12 12 12 12 12 12 11 12 12 12 12 13 13 14 11 12 11 11 11 10 10 10 8 7 7 7 6 6 5 4 3 2 1 1 1 2 1 1 -1 -1 -1 -1
13 13 13 12 12 12 12 12 12 12 12 12 13 12 13 11 11 12 12 11 10 9 7 6 6 5 5 4 4 4 3 3 2 1 2 2 1 -1 -2 -2 -2 -1 0
13 13 13 13 12 12 12 12 12 12 12 11 11 11 11 11 11 11 11 10 8 6 6 4 3 3 4 3 2 2 2 1 1 0 0 -1 -2 -2 -3 -3 -2 -2 -2
13 13 13 13 13 13 12 12 12 12 12 11 11 11 11 11 11 10 8 7 6 5 4 4 3 2 1 2 1 0 -0 -2 -2 -2 -3 -4 -4 -4 -4 -4 -3 -3 -3
14 13 13 13 13 11 11 11 11 11 10 10 10 10 9 9 8 7 6 5 3 2 1 2 1 0 -0 -0 -0 -2 -3 -4 -4 -3 -3 -4 -4 -5 -5 -5 -4 -4 -3
14 13 13 12 11 11 11 11 11 10 9 8 7 7 7 6 4 4 5 3 1 -1 -1 -1 -1 -0 -1 -1 -1 -3 -3 -4 -5 -5 -6 -5 -5 -6 -5 -6 -6 -5 -5
11 11 11 11 11 10 10 9 8 7 6 5 4 3 3 4 3 3 4 2 1 -2 -2 -3 -3 -2 -2 -3 -3 -4 -4 -6 -6 -6 -7 -7 -7 -7 -7 -8 -8 -7 -6
11 10 10 10 9 8 8 6 5 4 3 1 0 -1 -0 1 1 2 2 2 0 0 -3 -3 -4 -4 -5 -5 -6 -6 -6 -6 -7 -8 -8 -8 -8 -8 -8 -9 -9 -9 -8
9 8 7 7 6 6 6 4 3 2 1 -1 -2 -3 -3 -2 -2 -1 -1 -1 -1 -1 -3 -3 -4 -6 -7 -7 -7 -7 -7 -8 -9 -8 -8 -8 -9 -9 -9 -9 -10 -9 -9
6 5 5 5 4 3 3 2 1 0 -1 -2 -3 -4 -4 -5 -4 -4 -3 -3 -3 -4 -5 -6 -6 -7 -7 -7 -8 -8 -9 -9 -10 -9 -9 -10 -10 -10 -10 -10 -10 -10 -10
4 3 2 2 2 1 0 0 -0 -1 -1 -2 -3 -4 -5 -6 -6 -4 -4 -4 -4 -5 -5 -7 -7 -7 -8 -8 -9 -9 -10 -10 -10 -10 -11 -10 -11 -11 -11 -11 -12 -10 -10
2 1 0 -0 -1 -2 -2 -3 -2 -1 -1 -1 -2 -3 -5 -6 -6 -5 -4 -5 -6 -4 -7 -7 -8 -8 -8 -8 -8 -9 -10 -11 -11 -11 -11 -12 -12 -12 -12 -12 -12 -11 -11
0 -1 -2 -2 -2 -3 -4 -4 -5 -5 -4 -3 -3 -3 -4 -5 -5 -6 -7 -7 -8 -7 -7 -8 -8 -9 -9 -9 -9 -10 -10 -12 -13 -13 -13 -13 -13 -13 -13 -13 -13 -12 -12
-3 -3 -4 -4 -4 -5 -5 -5 -5 -5 -6 -6 -6 -6 -6 -7 -7 -7 -7 -8 -8 -8 -8 -9 -9 -10 -10 -10 -11 -11 -12 -13 -13 -13 -14 -14 -14 -14 -14 -14 -13 -13 -13
-2 -4 -4 -4 -4 -4 -5 -5 -5 -6 -6 -6 -6 -7 -7 -7 -8 -8 -8 -8 -8 -8 -9 -9 -10 -10 -11 -12 -12 -13 -14 -14 -14 -15 -15 -15 -16 -15 -15 -15 -15 -15 -15
-5 -5 -5 -5 -5 -5 -5 -5 -5 -5 -6 -6 -6 -8 -8 -8 -8 -9 -9 -9 -9 -9 -10 -10 -11 -12 -13 -13 -14 -14 -15 -15 -15 -15 -15 -16 -16 -16 -16 -16 -15 -15 -14
-7 -7 -7 -7 -7 -7 -7 -7 -7 -7 -8 -8 -9 -10 -9 -9 -10 -10 -10 -11 -11 -12 -12 -13 -13 -14 -15 -15 -15 -15 -16 -16 -16 -17 -17 -17 -17 -17 -17 -16 -16 -15 -15
-8 -8 -8 -9 -9 -9 -9 -9 -9 -9 -9 -10 -10 -11 -11 -11 -11 -12 -13 -14 -14 -15 -15 -15 -16 -16 -16 -17 -17 -18 -18 -18 -18 -18 -18 -18 -18 -17 -17 -16 -16 -16 -15
-10 -10 -10 -10 -10 -11 -11 -11 -11 -11 -11 -12 -12 -12 -13 -13 -14 -14 -15 -16 -16 -17 -17 -18 -18 -18 -18 -19 -19 -20 -20 -19 -19 -19 -19 -19 -18 -18 -17 -17 -17 -16 -16
-11 -11 -12 -12 -13 -13 -13 -13 -13 -14 -14 -14 -14 -14 -15 -16 -16 -17 -17 -17 -18 -18 -18 -18 -19 -19 -20 -21 -21 -21 -21 -21 -21 -21 -20 -20 -20 -19 -18 -18 -17 -17 -17
-13 -14 -14 -14 -14 -15 -15 -15 -16 -16 -16 -16 -16 -16 -17 -18 -18 -19 -19 -19 -19 -19 -19 -19 -20 -21 -21 -21 -21 -21 -22 -22 -22 -22 -22 -21 -21 -20 -20 -19 -18 -17 -17
-15 -16 -16 -16 -16 -17 -17 -17 -18 -18 -18 -19 -19 -19 -19 -19 -20 -20 -20 -20 -21 -21 -21 -22 -22 -21 -22 -22 -22 -23 -22 -22 -21 -21 -22 -22 -21 -20 -19 -19 -18 -18 -17

GFSGL_925_temp_081.txt.gz
Temp
18 17 16 15 15 15 15 15 15 15 15 15 15 14 14 15 15 15 15 15 15 15 15 15 14 14 14 13 12 11 10 10 10 11 12 12 11 10 9 8 9 8 8
19 18 17 17 17 15 15 16 15 15 15 15 15 15 15 15 15 15 15 15 16 16 16 15 14 13 13 12 11 11 10 10 10 10 11 11 10 10 9 7 8 7 7
20 19 18 17 17 17 16 16 16 15 15 15 16 16 16 16 16 16 16 16 16 16 16 15 13 12 12 11 10 10 10 10 9 9 9 9 8 8 7 6 6 6 6
19 19 18 17 17 17 17 16 16 15 15 16 16 16 16 16 16 16 16 16 16 16 15 14 13 13 11 10 10 9 10 9 8 8 8 6 5 4 5 5 5 5 5
20 19 19 18 17 17 17 17 16 16 16 16 16 16 16 16 16 16 16 16 16 15 14 13 13 12 11 11 10 9 9 8 7 6 4 4 3 3 4 4 4 5 5
20 19 19 18 17 17 17 17 16 16 16 16 16 16 16 16 16 16 16 16 15 14 13 12 12 11 10 11 10 10 9 7 5 4 3 3 3 3 4 4 4 4 4
20 20 19 19 18 17 17 17 17 16 16 16 16 16 16 16 15 15 15 15 14 12 12 11 10 10 10 9 8 7 6 5 5 4 3 2 3 3 4 4 3 3 4
21 20 20 19 19 18 18 17 17 17 16 16 16 16 16 16 15 15 14 14 13 12 11 10 10 10 8 8 6 4 3 2 2 2 1 1 1 3 3 2 2 3 3
21 21 21 20 19 19 18 18 17 17 16 16 16 15 16 16 15 15 14 12 11 10 9 8 7 6 5 4 4 2 0 -0 -0 -0 -0 -1 0 1 1 1 1 1 1
23 21 21 21 20 19 19 18 17 17 16 15 15 14 14 14 14 13 12 11 8 5 3 2 2 3 0 -0 1 -1 -2 -3 -3 -4 -2 -1 -1 -1 -1 -1 -1 -0 -0
24 23 21 20 20 19 18 18 17 15 12 11 10 8 9 9 9 8 7 7 4 0 -1 -2 -2 -1 -1 -1 -1 -2 -2 -4 -2 -2 -2 -2 -2 -2 -3 -3 -3 -2 -2
18 22 20 20 19 18 17 12 11 11 9 6 4 2 2 2 2 2 3 4 1 -0 -3 -3 -4 -4 -4 -4 -4 -4 -4 -3 -3 -3 -3 -2 -2 -2 -2 -2 -3 -4 -4
12 10 10 12 11 10 9 7 6 5 3 1 -0 -2 -2 -2 -2 -1 0 -0 -1 -2 -4 -4 -5 -5 -5 -6 -6 -5 -5 -5 -5 -5 -4 -2 -2 -3 -4 -5 -5 -5 -5
5 4 5 4 4 5 4 3 2 2 1 -0 -2 -3 -4 -4 -4 -4 -4 -4 -3 -4 -5 -6 -6 -6 -6 -7 -6 -7 -6 -6 -5 -5 -5 -5 -5 -5 -5 -6 -6 -6 -6
2 1 0 -0 -1 -1 -1 -0 1 0 0 -1 -3 -4 -4 -5 -5 -5 -4 -5 -5 -5 -5 -6 -6 -6 -6 -6 -6 -6 -6 -7 -6 -6 -7 -6 -6 -6 -7 -7 -7 -7 -7
-0 -1 -1 -2 -2 -3 -3 -4 -3 -2 -2 -2 -3 -3 -5 -5 -5 -5 -5 -5 -5 -5 -5 -5 -5 -5 -4 -5 -5 -6 -6 -7 -7 -7 -8 -8 -8 -8 -8 -8 -8 -8 -8
-0 -1 -2 -2 -3 -3 -3 -4 -4 -5 -5 -5 -5 -5 -5 -5 -5 -5 -6 -6 -5 -4 -4 -4 -5 -5 -6 -6 -7 -7 -7 -8 -9 -8 -9 -9 -9 -9 -10 -9 -9 -9 -9
-2 -2 -2 -3 -4 -4 -4 -4 -5 -5 -5 -5 -5 -5 -5 -6 -6 -6 -6 -6 -5 -5 -5 -5 -6 -6 -6 -7 -7 -8 -8 -9 -9 -10 -10 -10 -11 -11 -11 -10 -10 -10 -10
-4 -4 -4 -4 -4 -5 -5 -5 -5 -5 -6 -6 -6 -6 -6 -6 -6 -6 -5 -5 -5 -6 -6 -7 -7 -7 -8 -8 -9 -10 -10 -10 -11 -11 -11 -11 -12 -12 -12 -12 -12 -12 -12
-5 -5 -4 -4 -4 -4 -4 -5 -5 -5 -6 -6 -6 -7 -6 -6 -7 -7 -7 -7 -7 -7 -8 -8 -9 -10 -10 -10 -10 -11 -11 -11 -11 -12 -12 -13 -13 -13 -13 -13 -13 -13 -12
-6 -6 -6 -5 -5 -5 -5 -6 -7 -7 -8 -8 -8 -8 -8 -8 -9 -9 -10 -10 -10 -10 -10 -10 -11 -11 -11 -12 -12 -12 -12 -13 -13 -13 -14 -14 -14 -14 -14 -14 -14 -14 -13
-7 -7 -7 -7 -7 -7 -7 -7 -7 -8 -8 -9 -9 -9 -9 -9 -10 -10 -11 -12 -12 -12 -12 -12 -12 -13 -13 -14 -14 -14 -14 -14 -15 -15 -15 -15 -15 -15 -15 -15 -14 -14 -14
-8 -8 -8 -8 -9 -9 -9 -9 -9 -9 -9 -10 -10 -10 -11 -11 -11 -12 -12 -13 -13 -14 -15 -15 -15 -15 -15 -16 -16 -16 -16 -16 -16 -17 -17 -17 -17 -16 -16 -16 -15 -15 -15
-9 -9 -9 -10 -10 -10 -10 -10 -10 -10 -10 -11 -11 -11 -12 -12 -13 -13 -14 -15 -15 -15 -15 -16 -16 -17 -18 -18 -18 -18 -17 -18 -19 -19 -19 -18 -18 -17 -17 -17 -16 -16 -16
-10 -10 -10 -10 -11 -11 -11 -11 -11 -11 -12 -12 -12 -12 -13 -13 -14 -14 -15 -16 -17 -17 -17 -17 -17 -18 -18 -19 -19 -19 -19 -20 -21 -22 -22 -20 -19 -18 -18 -17 -16 -16 -15
-12 -12 -12 -12 -12 -12 -12 -12 -13 -13 -13 -13 -14 -14 -14 -14 -15 -15 -16 -17 -18 -18 -18 -18 -18 -19 -19 -19 -19 -20 -21 -21 -22 -23 -23 -21 -20 -18 -17 -17 -17 -17 -16

GFSGL_925_temp_084.txt.gz
Temp
14 14 14 14 14 14 14 13 13 13 13 13 13 13 13 13 14 13 14 14 15 15 15 14 14 15 15 15 15 15 14 13 12 13 12 12 12 11 12 11 10 9 9
17 15 14 14 15 14 14 14 14 13 13 14 14 14 14 14 13 13 14 14 15 15 14 14 14 14 14 14 14 14 13 12 11 10 11 11 11 12 11 11 9 9 8
19 18 15 15 15 15 15 15 14 14 14 14 15 15 15 14 14 14 14 15 15 15 15 15 15 15 14 13 13 12 12 11 10 10 10 10 10 9 10 9 9 8 8
20 19 18 17 16 16 15 15 15 15 15 15 15 15 15 15 14 14 15 15 15 15 15 15 15 15 15 13 12 12 11 10 10 9 9 8 9 9 8 8 7 7 7
19 20 19 18 17 17 17 16 16 16 15 15 15 15 15 15 15 15 15 15 15 15 15 15 15 15 15 14 13 12 11 10 9 9 8 7 6 6 6 6 5 5 5
19 19 19 19 18 17 17 17 16 16 16 16 15 15 15 15 16 16 16 16 16 16 15 15 15 15 14 13 13 12 11 9 8 8 8 7 6 5 4 3 3 2 1
20 20 20 19 19 18 17 17 17 16 16 16 15 15 15 15 16 16 16 16 16 16 16 15 15 14 13 13 12 11 10 9 9 8 7 5 3 2 2 2 1 -0 1
22 21 20 20 19 19 18 17 17 16 16 16 16 16 15 16 16 16 16 16 15 15 15 14 14 13 12 12 11 9 7 6 6 5 4 2 2 1 2 1 -0 -1 -0
23 22 21 20 19 19 18 17 17 17 16 16 16 16 15 16 16 16 16 16 15 14 13 12 12 11 10 8 7 3 0 -0 -0 1 1 0 0 -0 -1 -1 -2 -2 -0
21 22 22 21 20 20 19 18 17 17 17 16 16 16 15 16 15 16 16 14 12 10 9 7 6 5 4 3 3 1 -2 -3 -2 -2 -3 -2 -2 -2 -2 -2 -1 -0 -0
15 14 18 21 21 20 20 19 18 17 17 16 14 12 11 11 12 13 13 11 9 5 2 0 -1 0 -1 -0 0 -1 -2 -4 -5 -5 -4 -4 -2 -2 -2 -1 -1 -2 -2
10 9 9 11 15 19 19 16 15 13 9 6 6 5 4 5 5 6 7 8 5 3 -2 -3 -4 -2 -2 -2 -3 -4 -5 -5 -5 -5 -2 -2 -2 -3 -3 -3 -3 -3 -3
5 4 4 5 6 7 8 8 10 10 8 3 2 -0 -1 -1 -0 1 2 2 1 -2 -4 -4 -5 -4 -4 -5 -5 -5 -5 -5 -5 -5 -4 -5 -5 -4 -5 -5 -5 -5 -5
3 1 0 -0 -0 1 2 3 3 3 2 0 -1 -2 -3 -4 -4 -3 -3 -4 -4 -5 -5 -5 -5 -5 -6 -6 -6 -6 -6 -5 -5 -6 -6 -6 -6 -6 -6 -7 -7 -6 -7
1 1 -1 -2 -2 -3 -4 -3 -2 -1 0 -1 -2 -3 -4 -4 -4 -4 -4 -5 -5 -6 -6 -6 -6 -6 -6 -6 -6 -6 -6 -6 -7 -7 -7 -7 -7 -7 -7 -7 -8 -8 -8
-1 -1 -2 -2 -3 -3 -4 -4 -4 -4 -3 -3 -3 -3 -4 -4 -4 -4 -5 -5 -5 -5 -5 -5 -5 -5 -5 -5 -6 -6 -7 -7 -8 -8 -8 -8 -8 -9 -9 -9 -9 -9 -9
-2 -2 -3 -3 -3 -3 -4 -4 -4 -5 -5 -5 -5 -5 -5 -5 -5 -5 -4 -4 -4 -4 -5 -5 -6 -6 -6 -6 -7 -8 -8 -9 -9 -9 -9 -10 -10 -10 -10 -10 -10 -10 -10
-4 -4 -4 -4 -4 -5 -5 -5 -5 -5 -5 -5 -6 -6 -5 -5 -5 -5 -5 -5 -6 -6 -6 -6 -7 -7 -7 -8 -8 -9 -9 -10 -10 -10 -10 -11 -11 -11 -12 -12 -12 -12 -12
-4 -4 -4 -5 -5 -5 -5 -5 -5 -6 -6 -6 -6 -6 -6 -6 -6 -6 -6 -7 -7 -7 -8 -8 -9 -9 -9 -10 -10 -10 -10 -11 -11 -11 -12 -12 -12 -13 -13 -13 -13 -13 -13
-5 -5 -4 -4 -4 -5 -5 -6 -6 -6 -6 -6 -6 -7 -8 -8 -9 -9 -9 -9 -9 -9 -9 -10 -10 -11 -11 -11 -11 -11 -12 -12 -13 -13 -13 -13 -14 -14 -14 -14 -14 -14 -14
-6 -6 -6 -6 -6 -7 -7 -8 -8 -8 -8 -8 -9 -9 -9 -10 -10 -11 -11 -11 -11 -11 -11 -11 -12 -12 -12 -13 -13 -13 -14 -14 -14 -14 -15 -15 -15 -15 -15 -15 -15 -15 -14
-8 -8 -8 -8 -8 -8 -8 -8 -8 -9 -9 -9 -10 -10 -10 -11 -11 -12 -12 -13 -13 -13 -13 -13 -14 -14 -14 -15 -15 -15 -15 -15 -15 -16 -16 -16 -16 -16 -16 -16 -16 -16 -15
-9 -9 -9 -9 -9 -9 -9 -9 -10 -10 -10 -11 -11 -12 -12 -12 -13 -13 -13 -14 -14 -15 -15 -15 -15 -16 -16 -16 -16 -16 -17 -17 -17 -18 -18 -18 -18 -17 -17 -17 -17 -16 -16
-9 -9 -10 -10 -10 -10 -10 -10 -10 -11 -11 -11 -12 -12 -13 -13 -14 -14 -15 -15 -15 -16 -16 -16 -17 -17 -18 -18 -18 -18 -18 -18 -19 -19 -20 -19 -19 -19 -18 -18 -17 -17 -16
-10 -11 -11 -11 -11 -11 -11 -12 -12 -12 -12 -13 -13 -13 -14 -14 -15 -15 -16 -17 -17 -17 -17 -17 -18 -18 -18 -19 -19 -19 -19 -19 -20 -19 -20 -21 -20 -20 -19 -18 -17 -17 -17
-12 -12 -12 -12 -13 -13 -13 -13 -13 -14 -14 -14 -14 -15 -15 -16 -16 -17 -18 -18 -18 -18 -18 -18 -19 -19 -19 -19 -19 -20 -20 -20 -21 -22 -22 -21 -20 -20 -19 -18 -18 -18 -17

GFSGL_925_temp_090.txt.gz
Temp
12 12 12 12 12 12 12 12 12 12 12 12 12 13 13 13 13 13 14 14 14 14 14 14 15 15 14 14 14 14 13 13 12 13 13 14 15 14 15 14 14 14 13
13 12 13 12 12 11 11 12 11 12 12 12 12 12 12 13 13 13 13 13 13 13 13 14 14 14 13 14 14 13 13 13 12 12 13 13 14 14 14 13 13 13 12
13 13 13 13 12 12 11 12 12 11 11 12 12 12 12 12 12 13 12 13 13 13 13 13 13 13 13 13 13 12 13 13 12 12 13 13 13 13 13 12 12 12 12
13 13 13 13 13 13 12 12 12 11 11 11 11 12 12 12 12 12 12 12 12 12 13 13 13 13 13 13 13 13 13 12 12 11 12 12 12 12 11 11 10 10 10
13 13 13 13 13 13 13 13 12 11 11 11 11 11 11 11 12 12 12 12 12 12 12 12 13 13 13 13 13 13 12 11 11 11 12 12 11 9 9 10 9 9 9
14 13 13 13 13 13 13 13 13 12 12 11 11 11 11 11 11 12 12 12 12 12 12 12 12 12 13 13 13 14 13 12 11 12 12 12 11 10 9 9 8 7 4
15 15 14 13 13 13 13 13 13 12 13 12 12 11 11 11 12 12 12 12 12 12 12 12 12 12 12 12 13 13 13 13 13 13 12 12 11 11 9 8 7 6 4
11 11 12 14 14 13 13 13 13 13 13 13 13 12 12 12 12 12 12 13 12 12 12 12 12 12 12 12 12 11 12 12 11 11 10 10 10 9 8 7 5 2 1
8 7 8 8 9 12 14 13 13 13 13 13 13 13 13 13 13 13 13 13 12 12 12 12 12 12 13 12 12 11 9 7 6 6 5 4 4 3 4 4 2 0 -1
6 5 5 5 6 7 8 10 14 14 13 13 13 13 13 13 13 13 13 12 12 11 12 12 12 12 12 12 12 9 5 2 1 -0 -1 -1 -1 -1 0 1 -0 -2 -2
4 3 2 2 3 4 6 7 8 10 13 13 13 12 11 9 11 10 12 13 11 11 10 8 7 7 8 9 9 7 3 -2 -3 -3 -4 -4 -4 -4 -4 -3 -3 -3 -3
2 1 -0 -1 0 1 2 5 6 5 5 4 4 2 2 3 3 5 7 6 9 10 3 1 -0 0 -0 -0 -0 -3 -3 -3 -4 -4 -5 -5 -6 -5 -5 -5 -5 -5 -5
0 -1 -2 -2 -2 -2 -2 -1 2 4 2 -0 -1 -2 -3 -3 -3 -3 -0 1 -1 -2 -3 -3 -4 -4 -4 -4 -4 -4 -4 -4 -5 -5 -6 -6 -6 -6 -6 -6 -6 -6 -6
-1 -2 -3 -3 -4 -4 -3 -3 -3 -1 -1 -1 -2 -3 -3 -3 -4 -5 -5 -4 -4 -4 -5 -6 -6 -5 -5 -5 -4 -4 -4 -5 -6 -6 -6 -7 -7 -7 -8 -8 -8 -8 -8
-2 -2 -3 -4 -4 -4 -4 -4 -4 -4 -3 -3 -4 -4 -4 -5 -5 -5 -5 -5 -5 -5 -5 -5 -6 -6 -6 -7 -7 -7 -7 -7 -7 -7 -8 -8 -9 -9 -10 -10 -10 -10 -10
-3 -3 -4 -4 -4 -4 -4 -5 -4 -4 -4 -4 -4 -4 -4 -4 -5 -5 -5 -5 -5 -5 -5 -6 -6 -7 -8 -8 -8 -8 -8 -9 -9 -9 -10 -10 -10 -10 -11 -11 -11 -12 -11
-4 -4 -4 -4 -5 -5 -5 -5 -5 -6 -6 -5 -5 -4 -4 -5 -5 -5 -5 -5 -6 -6 -7 -7 -8 -8 -8 -9 -10 -10 -10 -10 -10 -11 -11 -11 -11 -12 -12 -13 -13 -13 -13
-5 -5 -5 -5 -6 -6 -6 -6 -7 -7 -8 -8 -8 -7 -7 -7 -7 -7 -7 -6 -8 -8 -9 -9 -9 -9 -10 -10 -11 -11 -11 -11 -12 -12 -12 -13 -13 -13 -14 -14 -15 -15 -14
-6 -6 -6 -7 -7 -7 -7 -7 -8 -8 -9 -9 -9 -8 -9 -9 -9 -9 -9 -10 -10 -10 -11 -11 -11 -11 -11 -11 -12 -12 -12 -13 -13 -13 -14 -14 -14 -15 -15 -15 -15 -15 -15
-7 -7 -7 -8 -8 -8 -8 -9 -9 -10 -10 -11 -11 -11 -10 -8 -11 -12 -11 -11 -12 -12 -12 -12 -13 -12 -13 -13 -13 -13 -14 -14 -15 -15 -15 -15 -15 -15 -16 -16 -16 -16 -16
-8 -8 -8 -8 -9 -9 -10 -10 -10 -11 -11 -12 -12 -12 -12 -12 -13 -13 -13 -13 -13 -13 -13 -13 -14 -14 -14 -14 -14 -14 -15 -15 -16 -16 -16 -16 -16 -16 -17 -17 -16 -16 -17
-9 -9 -9 -10 -10 -10 -11 -11 -11 -12 -12 -13 -13 -13 -13 -14 -15 -15 -15 -15 -14 -15 -15 -14 -15 -15 -15 -15 -16 -15 -16 -16 -17 -17 -17 -17 -17 -17 -17 -17 -17 -17 -17
-10 -10 -11 -11 -11 -11 -12 -12 -12 -13 -13 -14 -14 -14 -14 -15 -15 -16 -16 -16 -16 -16 -16 -16 -16 -17 -17 -17 -17 -17 -17 -18 -18 -18 -18 -18 -18 -18 -18 -18 -18 -18 -18
-11 -12 -12 -12 -12 -13 -13 -14 -14 -14 -14 -15 -15 -16 -16 -16 -17 -17 -17 -17 -17 -17 -17 -18 -18 -18 -18 -18 -18 -18 -18 -18 -18 -18 -18 -18 -19 -19 -19 -19 -18 -19 -18
-12 -13 -13 -13 -14 -14 -14 -14 -14 -15 -15 -15 -16 -16 -17 -17 -18 -18 -18 -18 -18 -18 -19 -19 -19 -19 -19 -19 -19 -19 -19 -19 -20 -20 -20 -19 -20 -20 -19 -19 -19 -19 -18
-13 -14 -14 -14 -14 -15 -15 -16 -16 -16 -16 -17 -17 -17 -17 -18 -18 -18 -19 -19 -19 -19 -19 -19 -20 -20 -20 -20 -20 -20 -21 -21 -21 -20 -19 -19 -19 -19 -19 -19 -19 -19 -19

GFSGL_925_temp_096.txt.gz
Temp
12 11 11 12 12 13 12 11 11 11 11 12 11 11 11 11 11 10 11 11 11 11 12 12 13 13 14 15 15 15 15 15 13 14 14 14 13 14 14 14 15 14 14
12 12 11 12 12 12 12 12 11 11 11 12 12 12 12 11 11 11 12 12 12 12 12 12 13 13 14 14 14 14 13 13 13 12 13 13 13 15 14 14 14 15 14
12 12 12 11 11 12 12 12 12 11 11 11 11 11 12 12 12 12 12 12 12 12 12 12 12 12 13 12 13 12 12 12 12 12 12 13 13 13 13 13 13 13 13
12 12 12 12 11 11 12 12 12 12 12 11 11 11 11 11 11 12 12 11 11 12 12 12 11 12 12 12 12 12 12 11 11 10 11 11 12 12 12 12 11 12 12
12 12 12 12 11 11 12 12 13 12 12 12 12 11 11 11 11 11 11 11 11 11 11 12 12 13 14 14 12 11 11 11 11 11 11 11 11 11 10 11 10 11 11
12 12 12 12 11 11 12 12 12 12 12 12 11 11 11 11 11 11 11 10 11 11 11 11 12 12 12 12 13 13 12 11 11 11 12 12 12 11 11 11 10 10 10
8 8 9 11 12 12 12 12 12 12 12 12 12 11 11 11 11 11 11 11 10 11 11 11 11 11 11 11 12 12 12 12 12 12 11 11 12 12 11 11 11 11 11
5 5 5 6 7 8 10 11 12 12 11 11 11 12 12 12 12 12 11 11 10 10 10 10 10 11 11 11 11 10 10 11 11 11 10 11 11 11 11 11 11 10 7
3 3 2 3 4 4 5 6 7 9 10 12 12 11 11 11 10 10 10 10 9 9 10 10 10 10 10 10 10 9 9 9 8 8 7 5 7 8 8 8 7 6 2
1 1 0 1 1 1 2 3 4 5 5 8 8 7 6 7 4 4 7 8 8 9 9 9 8 9 9 9 9 8 8 8 6 0 -1 -1 -1 -1 -0 1 2 5 -1
-1 -1 -1 -1 -1 -1 0 1 2 2 3 2 1 1 1 0 1 3 5 6 7 6 5 3 2 1 3 4 6 7 6 4 -0 -1 -3 -4 -4 -4 -3 -3 -3 -2 -5
-2 -3 -3 -3 -3 -2 -2 -1 -0 0 -0 -1 -1 -2 -2 -2 -3 -1 1 3 2 1 -2 -3 -3 -3 0 0 0 0 -1 -1 -2 -4 -5 -6 -7 -7 -7 -6 -6 -6 -7
-2 -3 -3 -3 -3 -3 -4 -3 -3 -2 -2 -3 -3 -4 -4 -4 -4 -4 -4 -3 -3 -4 -5 -6 -6 -5 -5 -5 -5 -5 -5 -6 -7 -7 -8 -8 -8 -8 -8 -8 -8 -8 -8
-3 -3 -4 -4 -5 -4 -4 -4 -4 -4 -4 -4 -5 -5 -5 -5 -4 -4 -5 -5 -5 -5 -5 -6 -6 -6 -6 -7 -6 -7 -7 -8 -8 -9 -9 -9 -9 -9 -9 -9 -9 -9 -10
-3 -4 -4 -4 -5 -6 -6 -5 -5 -5 -4 -4 -4 -4 -4 -5 -5 -5 -5 -6 -6 -6 -6 -6 -7 -8 -9 -9 -9 -9 -8 -8 -9 -9 -9 -10 -10 -11 -11 -10 -10 -11 -11
-4 -4 -4 -5 -5 -6 -7 -7 -7 -6 -6 -6 -5 -6 -6 -6 -6 -6 -6 -7 -7 -6 -7 -9 -10 -10 -10 -10 -11 -11 -10 -10 -11 -11 -11 -11 -12 -12 -12 -13 -12 -12 -12
-5 -5 -5 -6 -6 -7 -7 -8 -9 -9 -9 -8 -7 -7 -7 -7 -7 -8 -8 -8 -7 -7 -10 -11 -11 -11 -11 -12 -12 -12 -13 -12 -11 -12 -12 -13 -13 -13 -13 -13 -13 -13 -13
-6 -6 -7 -7 -8 -8 -9 -9 -9 -10 -11 -11 -11 -9 -9 -9 -9 -9 -8 -5 -9 -10 -11 -12 -12 -12 -12 -13 -13 -13 -13 -13 -13 -14 -14 -14 -14 -14 -14 -14 -15 -14 -14
-7 -8 -8 -8 -8 -9 -9 -9 -10 -11 -11 -12 -11 -10 -11 -11 -8 -7 -7 -10 -12 -12 -12 -12 -13 -13 -13 -13 -13 -14 -14 -14 -14 -14 -15 -15 -15 -15 -15 -15 -16 -15 -16
-8 -8 -8 -9 -9 -9 -10 -11 -11 -12 -13 -13 -13 -12 -11 -9 -11 -12 -12 -12 -12 -13 -13 -13 -13 -13 -14 -14 -14 -14 -15 -15 -15 -15 -16 -15 -15 -15 -16 -16 -16 -16 -17
-9 -9 -9 -10 -10 -11 -11 -12 -13 -13 -14 -15 -15 -14 -12 -12 -14 -14 -14 -14 -14 -14 -14 -14 -14 -14 -15 -15 -15 -15 -15 -16 -16 -16 -16 -17 -17 -17 -17 -17 -17 -17 -17
-10 -10 -10 -11 -11 -12 -12 -13 -13 -14 -14 -15 -15 -15 -14 -14 -15 -16 -16 -16 -16 -16 -16 -15 -16 -16 -16 -16 -17 -16 -17 -17 -17 -17 -18 -17 -17 -18 -18 -17 -18 -17 -17
-11 -11 -11 -12 -12 -12 -13 -13 -14 -14 -15 -15 -16 -16 -16 -16 -17 -17 -17 -17 -17 -17 -17 -17 -17 -17 -18 -18 -18 -18 -18 -18 -18 -18 -18 -18 -18 -18 -18 -18 -18 -18 -18
-11 -12 -12 -13 -13 -13 -14 -15 -15 -15 -16 -16 -16 -17 -17 -17 -17 -18 -18 -18 -18 -18 -18 -18 -18 -19 -19 -19 -19 -19 -19 -19 -19 -19 -19 -19 -19 -19 -19 -18 -18 -18 -18
-13 -13 -13 -14 -14 -14 -15 -15 -15 -16 -16 -17 -17 -17 -18 -18 -18 -19 -19 -19 -19 -19 -19 -19 -19 -20 -20 -20 -20 -20 -21 -21 -20 -20 -19 -19 -19 -19 -19 -19 -19 -19 -18
-14 -14 -15 -15 -15 -15 -15 -16 -16 -16 -17 -17 -18 -18 -18 -19 -19 -19 -20 -20 -20 -20 -20 -20 -20 -21 -21 -21 -21 -21 -21 -21 -21 -19 -19 -19 -19 -19 -19 -19 -19 -19 -19

GFSGL_925_temp_099.txt.gz
Temp
12 11 12 12 12 12 11 11 11 12 12 12 11 11 11 11 11 10 10 10 10 11 11 11 11 12 12 14 14 13 14 14 14 16 15 15 15 15 15 15 15 15 14
12 11 12 11 11 12 11 11 11 11 11 12 11 11 11 10 10 10 10 10 11 11 11 10 11 12 13 13 13 12 13 13 14 15 15 14 14 14 15 15 15 15 14
12 12 11 11 11 11 11 11 11 11 11 11 11 11 11 11 10 10 10 10 10 10 11 12 12 11 11 11 11 11 11 12 13 13 14 14 13 13 13 13 13 13 13
12 12 12 12 11 11 11 11 11 10 11 11 11 11 11 11 11 11 11 11 11 11 11 11 11 11 11 11 11 11 11 11 12 12 13 13 13 13 12 13 13 12 11
12 12 12 12 12 12 11 11 11 11 10 11 11 11 11 11 11 10 11 11 11 11 11 11 11 12 11 12 11 11 11 11 12 12 13 13 13 13 13 13 12 13 13
12 12 12 12 12 12 12 11 10 11 10 10 10 10 10 11 11 12 11 11 11 11 11 11 11 11 12 12 12 12 12 12 12 12 13 12 12 13 13 13 12 12 12
6 6 8 10 10 11 11 11 11 11 11 10 10 10 10 11 11 12 12 11 11 11 11 11 11 11 11 11 12 12 12 12 12 13 13 12 12 13 13 13 12 12 12
3 3 4 5 6 7 8 8 9 10 11 11 11 11 11 9 9 9 11 11 10 10 10 10 10 11 11 10 10 10 11 11 11 11 9 10 10 10 10 10 11 11 10
1 1 1 2 2 3 3 4 6 7 8 7 7 9 9 5 6 8 9 8 8 9 9 9 8 9 9 9 9 9 9 9 8 8 6 4 3 4 7 8 5 6 6
0 -0 -0 0 0 1 1 2 2 3 2 2 2 2 1 2 4 5 7 8 7 8 8 6 5 5 6 8 8 8 7 7 7 3 1 0 0 -0 -0 0 0 1 3
-1 -1 -1 -1 -1 -1 -0 -0 1 0 -0 -1 -1 -2 -1 -2 -1 2 4 5 4 3 0 -2 -2 -1 2 3 4 5 4 3 -0 -1 -3 -4 -5 -5 -5 -5 -5 -4 -6
-2 -2 -2 -2 -2 -2 -2 -1 -1 -1 -2 -2 -3 -3 -4 -4 -4 -2 -0 0 0 -2 -4 -5 -5 -5 -3 -2 -2 -2 -2 -3 -5 -6 -7 -8 -8 -8 -7 -7 -7 -7 -7
-2 -3 -3 -4 -3 -3 -3 -3 -3 -3 -3 -3 -3 -3 -3 -4 -4 -5 -5 -3 -4 -5 -6 -7 -7 -6 -6 -6 -5 -4 -4 -5 -6 -8 -8 -8 -8 -8 -8 -8 -8 -7 -8
-3 -3 -4 -4 -4 -4 -4 -4 -4 -4 -3 -3 -3 -4 -4 -4 -4 -5 -5 -6 -6 -6 -6 -7 -7 -7 -8 -8 -7 -7 -8 -7 -8 -8 -8 -9 -9 -9 -9 -9 -8 -9 -9
-3 -3 -4 -4 -5 -6 -6 -5 -5 -5 -5 -4 -5 -5 -5 -5 -6 -6 -6 -6 -7 -7 -7 -7 -7 -7 -7 -8 -8 -9 -8 -8 -8 -8 -8 -9 -9 -9 -9 -9 -9 -9 -9
-3 -4 -4 -4 -5 -5 -6 -7 -7 -6 -6 -6 -6 -6 -6 -6 -7 -7 -7 -7 -6 -7 -7 -8 -8 -8 -9 -9 -9 -9 -10 -10 -9 -9 -9 -9 -10 -10 -10 -10 -10 -10 -10
-5 -5 -5 -5 -6 -6 -7 -7 -8 -9 -9 -8 -8 -7 -7 -7 -8 -8 -8 -6 -6 -7 -8 -9 -9 -9 -9 -10 -10 -11 -11 -12 -12 -11 -11 -11 -11 -11 -10 -11 -11 -10 -11
-7 -7 -7 -8 -8 -8 -8 -9 -9 -9 -9 -10 -10 -9 -9 -9 -9 -9 -8 -6 -8 -9 -9 -10 -10 -10 -11 -11 -12 -12 -12 -13 -13 -13 -13 -13 -12 -12 -12 -12 -12 -12 -11
-8 -8 -8 -9 -9 -9 -9 -10 -10 -10 -10 -11 -10 -11 -12 -12 -11 -10 -10 -10 -10 -11 -11 -11 -12 -12 -12 -13 -14 -14 -14 -15 -15 -14 -14 -14 -14 -13 -13 -13 -14 -14 -13
-9 -9 -9 -9 -9 -10 -10 -10 -11 -11 -12 -12 -13 -13 -12 -12 -12 -13 -13 -13 -13 -13 -13 -13 -14 -14 -14 -14 -15 -15 -15 -15 -15 -15 -16 -16 -15 -15 -15 -15 -14 -14 -14
-10 -10 -10 -10 -10 -11 -11 -11 -12 -12 -13 -14 -15 -15 -14 -14 -14 -15 -15 -15 -15 -15 -15 -15 -16 -16 -16 -16 -16 -16 -16 -17 -17 -17 -16 -17 -17 -16 -16 -16 -16 -15 -15
-11 -11 -11 -11 -11 -12 -12 -13 -13 -13 -14 -14 -15 -15 -15 -16 -16 -16 -17 -17 -17 -17 -17 -17 -17 -18 -18 -18 -18 -18 -17 -17 -18 -18 -18 -18 -17 -17 -17 -17 -17 -16 -16
-11 -12 -12 -12 -13 -13 -13 -14 -14 -15 -15 -16 -16 -16 -17 -17 -17 -18 -18 -18 -18 -18 -18 -18 -18 -19 -18 -17 -18 -18 -18 -18 -18 -17 -18 -18 -18 -18 -18 -17 -17 -17 -17
-13 -13 -13 -14 -14 -14 -14 -15 -16 -16 -16 -17 -17 -18 -18 -18 -19 -19 -19 -19 -19 -19 -19 -18 -19 -19 -19 -19 -20 -20 -19 -19 -19 -18 -18 -19 -19 -19 -19 -18 -18 -19 -18
-14 -14 -15 -15 -15 -15 -16 -16 -16 -17 -17 -18 -18 -18 -19 -19 -19 -20 -19 -19 -19 -19 -19 -19 -20 -19 -19 -20 -20 -20 -21 -21 -20 -19 -19 -19 -19 -19 -19 -19 -19 -18 -19
-15 -15 -16 -16 -16 -16 -16 -17 -17 -18 -18 -19 -19 -19 -19 -19 -19 -20 -20 -20 -20 -20 -20 -20 -20 -20 -20 -21 -21 -21 -21 -21 -21 -20 -19 -20 -20 -20 -20 -20 -19 -19 -18

GFSGL_925_temp_102.txt.gz
Temp
13 13 15 16 16 15 15 14 14 13 12 12 12 12 12 12 12 11 11 11 11 10 10 10 10 11 11 11 12 12 13 14 13 15 16 16 16 14 15 15 16 16 15
12 13 15 15 15 15 15 14 13 13 12 12 11 12 11 11 11 11 11 10 10 10 10 10 11 12 12 12 12 12 13 14 14 14 15 15 15 16 15 15 14 16 15
12 13 14 14 15 15 15 14 13 13 13 12 12 12 11 12 11 11 11 11 11 11 11 11 13 12 11 11 11 12 12 13 13 13 15 15 15 15 15 15 14 14 13
12 13 13 13 15 15 14 14 13 13 13 13 12 12 12 12 11 12 11 11 12 12 12 12 11 11 11 11 12 11 11 11 11 11 12 13 14 15 16 16 15 15 15
12 13 13 13 13 13 13 13 13 13 13 13 13 13 13 12 12 12 11 11 12 11 12 12 12 12 12 12 12 12 11 11 11 11 12 12 13 14 15 15 15 15 15
8 9 12 12 12 12 13 12 12 12 13 13 13 13 13 13 13 12 12 12 12 12 12 11 11 12 12 12 12 12 12 11 11 12 11 12 13 14 15 15 15 15 15
4 5 6 7 8 10 11 11 12 12 13 13 13 13 13 12 12 12 11 12 13 13 13 13 12 13 13 13 12 11 11 12 12 13 13 14 14 14 13 13 14 14 14
2 3 3 4 4 6 7 7 9 9 10 11 10 11 11 9 10 11 10 10 10 11 12 11 12 12 12 12 12 12 11 11 10 10 10 10 9 9 9 9 9 8 7
1 1 1 2 2 3 3 3 4 5 5 4 4 4 5 4 5 7 8 9 9 8 8 8 8 9 9 9 9 10 10 9 7 7 6 5 4 4 5 6 5 4 6
0 0 1 1 1 2 2 2 1 1 0 0 -0 -0 0 1 3 6 7 7 7 5 4 2 2 3 4 5 6 6 6 5 3 1 -1 -1 -1 -2 -0 0 -1 -0 1
0 -0 -0 1 0 1 1 1 0 -1 -1 -2 -2 -2 -2 -2 -0 2 4 4 2 -1 -2 -3 -3 -1 1 2 3 2 2 -1 -2 -3 -4 -4 -4 -4 -4 -4 -3 -4 -5
-0 -1 -1 -1 -0 0 0 -0 0 -0 -1 -2 -2 -3 -3 -4 -4 -3 -1 -0 -1 -2 -5 -5 -5 -5 -4 -3 -3 -3 -2 -2 -3 -5 -6 -7 -7 -7 -8 -7 -7 -7 -8
-2 -1 -1 -2 -1 -2 -1 -1 -0 -0 -0 -1 -1 -1 -2 -3 -4 -5 -5 -4 -4 -5 -5 -6 -6 -6 -5 -6 -6 -5 -5 -6 -6 -7 -7 -7 -7 -7 -7 -7 -7 -7 -7
-1 -2 -3 -3 -3 -2 -2 -3 -2 -2 -2 -2 -2 -2 -3 -3 -3 -4 -4 -4 -5 -5 -5 -6 -6 -6 -6 -6 -6 -6 -6 -5 -5 -5 -6 -6 -6 -6 -6 -6 -6 -6 -6
-2 -2 -2 -3 -4 -5 -6 -5 -5 -5 -4 -3 -4 -4 -3 -4 -6 -6 -5 -5 -5 -5 -5 -5 -5 -5 -5 -5 -6 -6 -6 -6 -6 -6 -6 -6 -6 -6 -6 -6 -6 -5 -6
-2 -3 -3 -3 -3 -3 -4 -7 -7 -7 -6 -6 -6 -6 -6 -6 -7 -7 -7 -7 -6 -5 -5 -5 -5 -5 -5 -6 -6 -6 -7 -7 -7 -6 -7 -6 -6 -6 -6 -7 -6 -6 -6
-4 -4 -3 -3 -3 -4 -4 -4 -6 -8 -9 -8 -7 -7 -7 -7 -7 -8 -7 -7 -6 -5 -5 -6 -6 -6 -6 -6 -7 -7 -8 -9 -8 -8 -8 -8 -8 -8 -7 -7 -7 -7 -7
-6 -6 -5 -5 -5 -5 -5 -6 -5 -6 -6 -8 -10 -9 -9 -9 -9 -8 -7 -5 -6 -7 -7 -7 -7 -8 -8 -8 -8 -9 -9 -9 -10 -9 -9 -10 -9 -9 -9 -9 -9 -8 -8
-6 -6 -6 -7 -7 -6 -6 -6 -7 -7 -7 -7 -7 -9 -10 -10 -10 -9 -9 -8 -8 -8 -8 -8 -9 -9 -9 -10 -10 -11 -11 -12 -11 -11 -11 -11 -11 -10 -10 -10 -11 -12 -10
-7 -8 -7 -7 -7 -7 -7 -7 -7 -8 -8 -9 -10 -10 -9 -8 -9 -10 -10 -10 -10 -10 -10 -10 -11 -11 -11 -11 -12 -12 -11 -12 -12 -12 -12 -12 -12 -11 -11 -11 -11 -10 -11
-7 -8 -7 -7 -7 -8 -8 -8 -8 -8 -9 -10 -12 -13 -12 -10 -10 -11 -11 -12 -11 -11 -12 -12 -12 -13 -12 -13 -13 -13 -13 -13 -13 -13 -13 -13 -13 -12 -12 -12 -12 -12 -12
-8 -8 -8 -8 -8 -8 -9 -9 -9 -10 -10 -10 -11 -13 -13 -12 -12 -12 -13 -14 -14 -14 -14 -14 -14 -15 -15 -15 -14 -14 -15 -15 -15 -15 -14 -15 -14 -13 -13 -13 -13 -12 -12
-9 -9 -9 -9 -9 -10 -10 -10 -10 -11 -11 -12 -12 -13 -13 -13 -14 -14 -15 -15 -15 -16 -16 -15 -16 -16 -16 -17 -17 -17 -16 -17 -17 -18 -16 -15 -14 -14 -14 -13 -14 -13 -14
-10 -10 -10 -10 -10 -10 -11 -12 -13 -13 -13 -13 -13 -14 -14 -15 -15 -16 -16 -16 -16 -17 -17 -18 -18 -19 -18 -18 -17 -18 -19 -20 -19 -18 -18 -17 -15 -15 -15 -15 -14 -15 -14
-11 -11 -11 -11 -11 -12 -12 -12 -13 -13 -13 -14 -14 -15 -15 -16 -16 -16 -17 -18 -18 -18 -18 -19 -19 -19 -20 -20 -20 -20 -19 -19 -19 -18 -19 -18 -18 -18 -17 -16 -16 -15 -15
-13 -13 -12 -12 -12 -13 -13 -13 -13 -14 -14 -15 -16 -16 -16 -17 -17 -17 -18 -19 -19 -19 -19 -19 -20 -20 -20 -19 -20 -21 -20 -20 -21 -20 -19 -18 -18 -17 -17 -16 -17 -16 -15

GFSGL_925_temp_105.txt.gz
Temp
15 15 17 18 19 19 18 17 16 14 15 14 13 13 12 12 12 12 12 12 12 11 11 11 11 11 11 11 12 12 12 12 12 14 15 16 16 16 16 16 15 14 14
14 14 16 18 18 18 17 17 16 14 14 14 14 12 12 12 12 12 12 12 11 11 11 11 11 11 11 11 11 11 11 12 12 12 14 14 16 16 15 15 14 14 15
13 14 16 17 17 17 17 16 14 14 14 14 14 13 13 12 11 12 11 11 11 11 11 10 10 10 10 10 11 11 11 12 12 12 13 14 15 16 15 15 15 15 14
13 14 14 15 16 17 17 15 14 14 14 14 14 13 12 12 13 13 13 12 12 12 12 11 11 11 11 12 13 13 13 12 12 12 13 14 14 15 15 14 15 15 15
13 13 13 14 15 16 16 15 14 14 13 13 13 13 12 12 13 13 13 12 13 13 12 12 12 13 13 13 13 13 13 13 12 12 12 12 12 13 14 14 14 15 16
7 8 12 13 14 14 14 14 13 13 14 13 13 13 14 14 13 13 13 14 13 13 14 14 14 13 13 12 12 13 13 14 13 13 12 13 13 13 14 14 14 15 15
3 4 6 8 9 11 12 13 13 13 13 13 13 13 13 10 12 12 12 12 13 13 13 13 13 13 13 12 12 12 13 13 13 12 12 12 12 12 10 10 10 9 9
2 2 3 4 5 5 6 7 8 9 10 10 9 10 8 7 9 11 12 11 12 10 10 9 10 10 10 10 10 10 10 9 10 10 9 8 8 9 8 7 7 6 6
0 0 1 2 2 3 2 2 2 4 4 4 4 4 4 4 6 9 10 10 8 7 6 6 6 7 7 8 9 9 7 5 5 6 6 4 3 3 4 5 4 3 4
0 0 0 1 1 1 1 0 -0 1 -1 -1 -1 -0 -0 1 3 5 6 6 5 2 1 1 2 3 4 5 6 7 5 1 1 0 -0 0 0 0 1 1 0 -0 0
-1 -0 -0 0 1 1 1 0 0 -0 -0 -0 -1 -2 -2 -2 -2 1 2 3 0 -1 -2 -3 -3 -1 0 1 3 2 -0 -2 -2 -2 -3 -3 -3 -2 -2 -3 -3 -3 -4
-1 -1 -1 -1 -0 0 0 1 1 -0 -1 -1 -2 -2 -3 -4 -4 -4 -2 -1 -2 -3 -5 -5 -5 -5 -4 -3 -2 -3 -3 -3 -3 -5 -6 -6 -6 -6 -6 -5 -5 -5 -6
-1 -2 -2 -2 -1 -1 -2 -1 0 0 -0 -0 -1 -1 -2 -3 -3 -3 -4 -4 -4 -4 -5 -5 -5 -5 -5 -5 -4 -4 -4 -4 -5 -5 -5 -5 -5 -6 -5 -5 -5 -5 -6
-1 -2 -3 -4 -5 -4 -4 -4 -4 -2 -2 -1 -1 -2 -3 -4 -3 -3 -4 -4 -4 -5 -5 -5 -5 -5 -5 -5 -5 -5 -5 -5 -4 -5 -5 -5 -5 -5 -5 -5 -4 -4 -4
-1 -1 -1 -2 -3 -5 -7 -6 -5 -5 -5 -4 -5 -4 -4 -5 -6 -4 -4 -4 -4 -4 -4 -4 -4 -4 -4 -5 -5 -5 -5 -5 -5 -5 -5 -4 -4 -4 -5 -4 -4 -4 -4
-2 -2 -2 -2 -2 -3 -4 -6 -7 -7 -6 -6 -6 -6 -6 -6 -6 -6 -5 -5 -4 -4 -4 -4 -4 -5 -5 -5 -5 -6 -6 -6 -5 -5 -5 -5 -5 -5 -5 -5 -5 -4 -4
-4 -3 -3 -3 -3 -3 -3 -4 -6 -8 -8 -8 -8 -7 -7 -7 -6 -6 -6 -5 -5 -5 -5 -5 -5 -5 -5 -5 -5 -6 -7 -7 -7 -6 -6 -6 -6 -6 -6 -6 -6 -5 -6
-5 -5 -4 -4 -4 -4 -4 -4 -4 -5 -6 -8 -9 -8 -8 -8 -7 -6 -5 -5 -5 -6 -6 -6 -6 -6 -6 -7 -7 -7 -7 -8 -8 -8 -8 -8 -7 -7 -7 -7 -7 -7 -6
-5 -5 -5 -5 -5 -5 -5 -5 -5 -5 -6 -6 -6 -7 -8 -8 -8 -8 -7 -6 -6 -6 -7 -7 -7 -7 -7 -8 -8 -9 -9 -10 -9 -9 -9 -9 -9 -8 -9 -8 -8 -9 -8
-6 -6 -6 -5 -5 -5 -5 -5 -6 -6 -7 -8 -9 -8 -7 -7 -8 -8 -8 -8 -8 -8 -8 -8 -9 -9 -9 -9 -10 -9 -9 -10 -10 -9 -10 -10 -10 -9 -9 -9 -10 -9 -9
-6 -6 -6 -6 -6 -6 -6 -7 -7 -7 -8 -9 -10 -11 -9 -8 -9 -9 -9 -10 -9 -10 -10 -10 -11 -11 -11 -11 -11 -11 -11 -11 -12 -11 -11 -11 -11 -10 -10 -10 -10 -10 -10
-7 -6 -7 -7 -7 -7 -7 -8 -8 -8 -8 -9 -10 -11 -10 -10 -10 -10 -11 -12 -12 -12 -12 -12 -12 -13 -13 -13 -13 -12 -13 -13 -14 -13 -13 -12 -12 -11 -11 -11 -11 -11 -10
-7 -7 -7 -8 -8 -8 -8 -9 -9 -9 -9 -9 -10 -10 -11 -11 -11 -12 -13 -13 -13 -14 -14 -14 -14 -15 -14 -15 -15 -15 -15 -15 -15 -17 -15 -13 -13 -13 -12 -12 -12 -12 -12
-9 -8 -8 -9 -9 -9 -9 -9 -10 -11 -10 -10 -11 -11 -12 -12 -13 -14 -14 -14 -15 -15 -15 -16 -17 -18 -18 -16 -17 -17 -19 -19 -18 -17 -17 -16 -14 -14 -14 -13 -12 -13 -13
-9 -9 -9 -9 -9 -9 -9 -10 -10 -11 -11 -11 -12 -12 -13 -13 -13 -14 -15 -16 -16 -16 -16 -17 -18 -18 -18 -19 -19 -20 -18 -18 -19 -18 -18 -16 -15 -16 -15 -15 -14 -14 -13
-11 -11 -11 -10 -11 -11 -11 -11 -11 -12 -12 -13 -13 -13 -14 -14 -14 -15 -16 -17 -17 -17 -17 -17 -18 -19 -19 -17 -19 -19 -19 -18 -19 -19 -18 -18 -16 -16 -15 -16 -15 -15 -14

GFSGL_925_temp_108.txt.gz
Temp
22 21 20 20 20 20 19 19 19 17 16 15 15 15 15 14 13 13 13 12 12 12 12 12 12 12 12 13 13 13 12 13 12 14 14 15 16 15 15 15 15 15 15
17 17 19 18 19 19 18 18 16 15 15 15 14 14 13 13 13 12 12 12 12 12 12 12 12 12 12 12 12 11 11 11 12 12 13 14 14 15 15 15 15 15 15
15 16 17 17 17 18 18 17 16 15 15 14 14 13 12 12 12 12 12 12 12 12 12 11 11 11 11 11 11 11 11 11 11 11 12 13 14 14 15 15 15 15 15
14 14 15 15 17 17 17 16 15 15 14 14 14 13 13 13 12 12 12 12 12 11 11 11 11 11 11 11 11 11 11 11 10 10 11 12 13 13 14 14 14 14 14
10 12 14 15 15 16 16 16 15 14 14 14 14 13 13 13 12 12 12 12 12 12 12 12 12 12 11 11 11 11 11 11 12 12 11 12 12 12 13 13 13 14 14
4 4 7 12 14 14 14 14 14 13 13 13 13 13 13 12 12 12 12 13 13 12 12 13 13 12 12 12 12 12 13 12 12 12 12 12 12 13 13 12 12 13 11
2 2 3 5 7 11 13 13 13 13 13 13 13 12 10 9 11 12 13 12 12 12 12 11 11 11 12 12 13 13 13 12 12 11 10 11 11 11 11 11 9 8 8
1 1 2 2 3 3 6 8 9 10 8 7 7 7 8 8 11 12 12 12 11 10 10 9 9 10 10 10 10 10 10 9 9 9 9 8 7 8 7 6 6 6 5
-0 -0 1 1 1 1 0 1 2 3 3 1 1 1 2 3 6 9 10 9 8 6 5 5 6 6 6 8 8 7 6 3 1 3 3 1 2 3 4 5 3 3 3
-1 -1 0 0 0 -0 0 -0 -1 0 -0 0 -0 -1 -1 1 3 5 7 6 3 0 0 0 1 3 4 5 5 5 2 -1 -0 -0 -0 0 1 1 2 2 1 1 0
-1 -1 -1 -0 -0 0 0 -0 -1 0 -0 -1 -1 -1 -1 -1 -0 1 2 2 -0 -1 -2 -3 -3 -1 1 3 3 1 -0 -1 -2 -1 -2 -2 -2 -2 -2 -2 -1 -2 -3
-2 -3 -3 -2 -2 -1 -0 -0 -0 -1 -1 -1 -2 -2 -2 -3 -2 -2 -1 -0 -0 -2 -3 -4 -4 -4 -3 -2 -2 -2 -2 -2 -3 -3 -4 -5 -5 -5 -4 -4 -4 -4 -5
-2 -4 -4 -4 -4 -4 -3 -3 -2 -1 -1 -2 -2 -3 -3 -3 -3 -4 -4 -4 -4 -4 -4 -4 -4 -4 -4 -4 -4 -4 -4 -4 -4 -5 -5 -5 -5 -5 -5 -4 -4 -4 -4
-1 -2 -4 -5 -6 -5 -5 -5 -5 -4 -4 -4 -3 -4 -5 -4 -4 -4 -4 -4 -4 -4 -4 -4 -5 -5 -5 -5 -5 -4 -4 -4 -5 -5 -5 -5 -5 -5 -4 -4 -4 -4 -4
-2 -2 -2 -4 -5 -6 -7 -6 -6 -6 -5 -5 -6 -5 -5 -5 -5 -4 -4 -4 -4 -4 -4 -4 -4 -5 -5 -6 -6 -6 -5 -5 -5 -5 -5 -4 -4 -5 -5 -4 -4 -4 -4
-3 -3 -3 -3 -4 -5 -6 -7 -7 -7 -7 -6 -6 -6 -5 -5 -5 -4 -4 -4 -4 -4 -5 -5 -5 -5 -5 -6 -6 -7 -6 -6 -6 -6 -5 -5 -6 -5 -5 -5 -5 -5 -5
-5 -4 -4 -4 -4 -4 -4 -6 -7 -7 -8 -7 -7 -6 -6 -5 -5 -5 -5 -5 -5 -5 -6 -6 -6 -6 -6 -6 -7 -7 -7 -7 -7 -7 -7 -7 -6 -6 -6 -7 -7 -6 -6
-5 -5 -5 -5 -5 -5 -5 -5 -5 -6 -7 -8 -8 -7 -7 -7 -6 -6 -5 -6 -6 -6 -7 -7 -7 -7 -8 -8 -9 -9 -9 -8 -8 -9 -9 -8 -8 -8 -8 -8 -9 -8 -7
-6 -5 -5 -5 -5 -5 -5 -5 -6 -6 -7 -7 -7 -7 -7 -7 -7 -7 -7 -7 -7 -7 -8 -8 -8 -8 -9 -9 -9 -9 -9 -9 -9 -10 -10 -9 -9 -9 -9 -9 -9 -8 -8
-6 -6 -6 -5 -5 -5 -6 -6 -6 -7 -8 -9 -9 -9 -8 -8 -9 -9 -9 -9 -9 -9 -9 -10 -10 -10 -10 -10 -10 -10 -10 -10 -10 -11 -11 -10 -10 -10 -10 -10 -10 -10 -10
-6 -6 -6 -6 -6 -6 -6 -7 -7 -8 -9 -10 -10 -10 -9 -9 -10 -10 -11 -11 -11 -11 -11 -11 -12 -12 -12 -12 -12 -12 -12 -12 -12 -12 -12 -12 -11 -11 -11 -11 -11 -10 -11
-7 -7 -7 -7 -7 -8 -8 -8 -8 -8 -9 -10 -10 -10 -10 -10 -11 -11 -12 -12 -13 -13 -13 -13 -13 -13 -14 -13 -13 -13 -14 -14 -14 -14 -13 -12 -12 -12 -12 -12 -12 -12 -12
-8 -8 -8 -8 -8 -8 -9 -9 -9 -9 -9 -10 -10 -11 -11 -12 -12 -13 -13 -13 -14 -14 -14 -14 -15 -15 -15 -15 -15 -15 -15 -16 -17 -16 -15 -14 -13 -13 -13 -12 -12 -13 -13
-9 -8 -8 -9 -9 -9 -9 -10 -10 -10 -10 -10 -11 -12 -12 -13 -13 -14 -14 -15 -15 -15 -16 -16 -17 -16 -16 -16 -17 -17 -17 -17 -17 -16 -16 -16 -15 -15 -14 -14 -14 -14 -14
-10 -10 -10 -10 -10 -10 -10 -10 -11 -11 -11 -12 -12 -12 -13 -13 -14 -15 -15 -16 -16 -16 -17 -17 -17 -18 -18 -18 -18 -18 -17 -18 -17 -16 -16 -16 -16 -15 -15 -15 -15 -15 -14
-11 -11 -11 -11 -11 -11 -11 -11 -11 -12 -12 -13 -13 -13 -14 -14 -14 -15 -16 -16 -17 -17 -17 -17 -18 -18 -18 -18 -18 -19 -18 -18 -17 -17 -17 -17 -17 -17 -16 -16 -16 -16 -15

GFSGL_925_temp_111.txt.gz
Temp
18 19 19 19 21 19 20 18 18 17 17 16 15 15 15 13 14 13 12 12 12 12 12 13 13 13 13 13 13 13 14 14 12 13 14 15 15 15 15 14 15 15 15
15 16 18 19 20 19 19 19 18 17 16 16 16 15 14 13 13 13 13 12 12 12 12 12 12 12 12 12 12 12 13 13 12 12 12 13 13 14 14 15 15 15 15
12 15 15 17 19 19 18 18 17 16 15 15 15 15 15 13 13 13 13 12 12 12 12 12 12 12 12 12 12 12 11 12 11 12 11 11 12 13 13 14 14 15 15
7 10 12 14 15 17 17 16 15 15 14 14 15 15 14 13 13 13 12 12 12 12 12 12 12 12 12 12 11 11 11 11 11 11 11 11 12 12 12 13 14 14 14
3 5 6 10 14 15 15 15 15 14 14 14 14 13 13 13 12 12 12 12 12 12 12 12 12 11 11 11 11 11 11 11 11 10 10 11 11 11 12 13 13 13 13
2 3 3 5 7 11 14 13 14 14 14 13 13 13 12 12 12 12 12 12 12 12 12 12 12 12 12 12 11 11 11 11 11 11 11 11 11 11 12 12 13 12 11
1 1 2 2 2 2 6 11 12 12 13 12 12 12 11 11 11 12 12 12 12 11 11 11 11 11 11 11 11 10 10 11 11 11 11 11 11 11 11 11 11 11 9
-0 0 1 1 1 1 1 1 4 6 7 8 7 7 8 7 9 11 11 11 10 10 9 10 9 10 10 10 10 10 9 9 9 10 9 9 8 8 8 7 7 6 5
-1 -1 -0 0 0 0 0 -0 -1 0 -0 -0 1 3 3 5 6 8 11 10 8 6 6 6 6 7 7 8 9 8 5 3 2 4 4 2 3 4 5 5 5 4 1
-2 -2 -1 0 0 -0 -0 0 -0 -1 -1 -2 -2 -1 -0 1 3 6 7 5 3 1 1 2 3 4 5 6 7 6 1 -1 -0 0 0 1 1 1 2 2 2 2 0
-3 -3 -2 -1 -1 -1 -1 1 0 -1 -0 -2 -2 -3 -2 -1 -1 1 3 2 -0 -2 -2 -2 -2 1 3 4 3 2 1 -1 -1 -1 -2 -2 -2 -2 -1 -1 -0 0 -2
-4 -4 -3 -3 -3 -2 -1 -2 -1 -1 -1 -2 -2 -3 -3 -3 -2 -1 -1 -0 -1 -2 -4 -4 -4 -2 -1 -0 -1 -1 -2 -1 -3 -4 -4 -5 -5 -4 -4 -3 -3 -3 -4
-3 -4 -5 -5 -4 -4 -4 -3 -3 -3 -3 -3 -4 -4 -3 -4 -4 -4 -3 -3 -3 -4 -4 -4 -4 -4 -4 -4 -4 -4 -4 -4 -4 -5 -5 -5 -5 -4 -4 -4 -4 -4 -4
-2 -4 -5 -6 -6 -6 -6 -5 -5 -5 -5 -5 -5 -5 -4 -4 -4 -4 -4 -4 -4 -4 -4 -5 -5 -5 -5 -5 -4 -4 -4 -4 -5 -5 -5 -5 -4 -4 -4 -4 -4 -5 -5
-3 -3 -4 -5 -6 -7 -7 -6 -6 -6 -5 -5 -5 -5 -4 -4 -4 -4 -4 -4 -4 -4 -5 -5 -5 -6 -6 -6 -6 -5 -5 -5 -5 -5 -5 -5 -5 -4 -4 -4 -4 -5 -5
-4 -4 -4 -4 -5 -6 -7 -7 -7 -6 -6 -5 -5 -5 -5 -5 -5 -5 -4 -4 -5 -5 -6 -6 -6 -7 -7 -7 -7 -7 -6 -6 -6 -6 -6 -6 -6 -6 -6 -5 -5 -6 -6
-5 -5 -5 -5 -5 -4 -6 -7 -8 -7 -7 -7 -6 -6 -5 -5 -5 -6 -6 -6 -6 -5 -7 -7 -8 -8 -8 -8 -8 -8 -8 -8 -7 -7 -7 -7 -7 -7 -7 -7 -7 -6 -6
-5 -5 -5 -5 -5 -5 -5 -6 -7 -7 -8 -7 -7 -7 -7 -7 -6 -6 -6 -6 -7 -7 -8 -8 -9 -9 -9 -9 -9 -9 -9 -9 -9 -9 -8 -8 -8 -8 -9 -9 -9 -8 -8
-6 -6 -6 -6 -5 -6 -6 -6 -7 -8 -8 -8 -8 -8 -8 -8 -8 -8 -8 -8 -9 -9 -10 -9 -9 -10 -10 -10 -10 -10 -10 -10 -10 -10 -10 -10 -9 -9 -10 -9 -9 -9 -9
-6 -6 -6 -6 -6 -6 -7 -7 -8 -9 -10 -9 -9 -9 -9 -9 -9 -10 -10 -10 -10 -11 -11 -11 -11 -11 -11 -11 -11 -11 -11 -11 -11 -11 -11 -11 -11 -10 -10 -10 -10 -10 -11
-7 -7 -7 -7 -7 -7 -7 -8 -8 -9 -10 -10 -10 -10 -10 -10 -11 -11 -12 -12 -12 -12 -12 -12 -12 -12 -12 -12 -12 -12 -12 -13 -12 -12 -12 -12 -11 -11 -11 -11 -11 -12 -12
-8 -8 -8 -8 -8 -8 -8 -9 -9 -10 -10 -10 -11 -11 -11 -12 -12 -13 -13 -13 -13 -13 -13 -13 -14 -14 -14 -14 -14 -14 -14 -14 -14 -14 -13 -13 -13 -12 -12 -12 -12 -13 -13
-9 -9 -9 -9 -9 -9 -9 -10 -10 -10 -10 -11 -11 -12 -12 -13 -13 -14 -14 -14 -14 -14 -15 -15 -15 -15 -15 -15 -15 -15 -15 -15 -15 -15 -14 -14 -14 -14 -13 -14 -13 -13 -14
-10 -10 -10 -10 -10 -10 -10 -10 -11 -11 -11 -12 -12 -12 -13 -13 -14 -14 -15 -15 -16 -16 -16 -16 -16 -17 -17 -16 -16 -16 -16 -16 -16 -16 -16 -15 -15 -15 -14 -15 -14 -14 -14
-11 -11 -11 -11 -11 -11 -11 -11 -11 -12 -12 -12 -13 -13 -14 -14 -15 -15 -15 -16 -16 -17 -17 -17 -17 -18 -17 -17 -17 -17 -16 -16 -16 -16 -16 -16 -16 -16 -16 -16 -15 -15 -15
-12 -12 -13 -12 -12 -13 -12 -12 -13 -13 -13 -13 -14 -14 -14 -15 -15 -16 -16 -16 -17 -17 -17 -18 -18 -18 -18 -18 -18 -17 -16 -16 -16 -17 -17 -17 -17 -17 -17 -17 -17 -16 -16

GFSGL_925_temp_114.txt.gz
Temp
7 12 16 17 17 17 17 18 17 17 17 16 15 14 14 14 14 13 13 12 12 12 12 12 12 12 12 12 12 12 12 13 13 14 14 15 15 15 15 14 14 14 14
5 9 13 16 16 16 16 17 16 16 16 17 16 14 13 14 13 13 12 12 12 12 12 12 12 12 12 12 12 13 13 13 13 13 13 14 14 14 13 13 14 14 14
4 5 8 12 14 15 16 17 15 15 15 16 15 14 14 13 13 13 13 12 12 12 12 12 12 12 12 12 12 12 12 12 12 12 12 12 12 12 12 12 12 13 14
3 4 4 6 11 14 15 16 15 15 15 15 15 15 15 15 14 13 13 12 12 12 12 12 12 12 12 12 12 12 12 12 12 11 12 11 11 11 11 10 11 12 14
2 2 3 4 6 12 13 14 14 14 15 15 15 15 14 15 13 13 13 12 12 12 12 12 12 12 12 12 12 11 11 11 11 11 11 10 10 11 10 11 11 12 13
1 1 2 2 3 4 8 12 13 14 14 14 14 14 13 12 12 12 12 12 12 12 12 12 12 12 11 11 11 11 11 11 11 11 10 10 10 11 11 11 11 11 9
0 0 1 1 2 2 2 4 6 9 11 12 12 12 11 11 12 12 12 12 12 12 11 11 11 11 11 11 11 11 11 11 11 11 11 10 11 11 11 11 11 11 11
-2 -1 -0 -0 0 1 1 1 -0 1 2 2 4 5 5 6 9 12 12 11 11 11 10 11 11 11 11 10 10 10 9 9 9 10 10 10 10 10 10 9 9 9 6
-3 -3 -2 -0 -1 -0 0 -0 1 0 -0 -1 -1 0 2 3 6 9 11 10 9 7 6 7 8 8 8 9 10 9 6 5 4 6 7 7 7 8 8 7 6 6 1
-4 -4 -3 -2 -1 -1 -1 -1 -0 0 -1 0 -1 -0 -1 0 1 4 5 4 4 3 2 2 3 5 5 6 7 6 3 0 1 1 1 1 2 3 4 3 4 4 0
-4 -4 -3 -3 -3 -3 -2 -0 -0 0 -0 -1 -1 -1 -1 -1 -0 1 2 1 -2 -3 -2 -1 -1 2 4 4 3 2 0 -1 -1 -1 -1 -2 -1 -1 -1 1 1 2 0
-3 -4 -5 -4 -4 -4 -3 -3 -2 -2 -2 -3 -2 -3 -2 -3 -1 -1 -1 0 -0 -2 -3 -4 -4 -2 -0 -1 -1 -1 -1 -1 -3 -3 -3 -4 -4 -4 -4 -2 -2 -2 -2
-3 -4 -5 -5 -6 -5 -5 -5 -4 -4 -4 -4 -4 -4 -4 -4 -4 -3 -2 -2 -2 -3 -4 -4 -4 -4 -3 -3 -3 -3 -3 -3 -3 -4 -5 -5 -5 -4 -4 -4 -4 -4 -4
-4 -4 -5 -6 -6 -6 -6 -6 -5 -5 -5 -5 -4 -4 -4 -4 -4 -4 -4 -4 -4 -4 -4 -4 -4 -4 -4 -4 -4 -4 -4 -4 -5 -5 -5 -4 -5 -5 -5 -4 -4 -4 -5
-5 -4 -5 -5 -6 -7 -7 -6 -6 -5 -5 -5 -5 -4 -4 -4 -4 -4 -4 -4 -5 -5 -5 -5 -5 -6 -6 -6 -5 -5 -5 -5 -5 -5 -5 -4 -4 -4 -5 -5 -5 -5 -6
-5 -5 -5 -5 -6 -6 -7 -7 -6 -6 -6 -5 -5 -5 -5 -5 -5 -5 -5 -5 -5 -5 -6 -7 -8 -8 -8 -7 -7 -7 -6 -6 -6 -5 -5 -5 -5 -5 -6 -6 -6 -6 -7
-6 -6 -5 -5 -6 -6 -6 -7 -8 -7 -7 -7 -6 -6 -6 -6 -6 -6 -7 -6 -6 -6 -8 -9 -9 -9 -9 -8 -8 -8 -8 -8 -7 -6 -7 -7 -7 -7 -7 -7 -7 -7 -8
-6 -6 -6 -6 -6 -6 -7 -7 -7 -8 -8 -8 -8 -7 -7 -7 -7 -8 -7 -6 -8 -8 -9 -10 -10 -9 -9 -9 -9 -9 -9 -8 -8 -8 -8 -8 -8 -8 -8 -8 -8 -8 -9
-7 -7 -6 -6 -6 -7 -7 -7 -8 -8 -9 -9 -8 -8 -9 -9 -8 -8 -7 -9 -10 -10 -10 -10 -10 -10 -10 -10 -10 -10 -10 -10 -10 -10 -10 -10 -9 -9 -10 -10 -10 -10 -9
-7 -7 -7 -7 -7 -8 -8 -8 -9 -10 -10 -10 -10 -10 -10 -9 -10 -10 -11 -11 -11 -11 -11 -11 -11 -11 -11 -11 -11 -11 -11 -11 -11 -11 -11 -11 -11 -10 -10 -10 -11 -11 -11
-8 -8 -8 -8 -8 -8 -9 -9 -9 -10 -10 -11 -11 -11 -11 -11 -12 -12 -12 -12 -12 -12 -12 -12 -13 -12 -12 -12 -12 -12 -12 -13 -12 -12 -12 -12 -11 -12 -12 -12 -12 -12 -12
-9 -9 -9 -9 -9 -9 -9 -9 -10 -10 -11 -11 -12 -12 -12 -12 -13 -14 -14 -14 -14 -14 -14 -13 -13 -14 -14 -14 -14 -14 -14 -14 -14 -14 -13 -13 -13 -12 -12 -13 -13 -13 -13
-10 -10 -10 -10 -10 -10 -10 -10 -10 -11 -11 -11 -12 -12 -13 -13 -14 -14 -15 -15 -15 -15 -15 -15 -15 -15 -16 -15 -15 -15 -15 -15 -15 -15 -14 -14 -14 -14 -14 -14 -14 -14 -14
-11 -11 -11 -11 -11 -11 -11 -11 -11 -12 -12 -12 -13 -13 -14 -14 -15 -15 -15 -16 -16 -16 -16 -16 -16 -16 -17 -17 -17 -16 -16 -16 -16 -16 -15 -15 -15 -15 -15 -14 -15 -15 -15
-12 -12 -13 -12 -12 -12 -12 -12 -12 -13 -13 -13 -13 -14 -14 -15 -15 -16 -16 -16 -17 -17 -17 -17 -18 -17 -18 -17 -17 -17 -16 -16 -16 -16 -16 -16 -16 -16 -16 -16 -16 -16 -16
-13 -13 -13 -13 -14 -14 -13 -14 -13 -13 -14 -14 -14 -15 -15 -15 -16 -16 -16 -17 -17 -18 -18 -18 -18 -18 -18 -18 -18 -17 -17 -16 -17 -17 -17 -17 -17 -17 -17 -17 -17 -16 -16

GFSGL_925_temp_117.txt.gz
Temp
4 5 7 10 14 15 15 16 16 15 15 15 15 14 14 14 15 14 14 15 13 12 12 12 12 12 12 12 12 12 12 13 12 13 13 14 15 14 15 15 15 14 14
3 4 5 7 11 15 15 15 15 15 15 15 15 14 14 13 13 13 13 14 13 12 12 12 12 12 12 12 12 11 11 12 12 12 13 13 13 15 15 14 14 13 13
2 3 3 4 6 10 14 15 15 14 14 14 14 14 13 13 13 13 14 14 13 12 12 12 12 12 12 12 12 11 11 11 11 12 12 13 13 13 12 13 13 13 13
1 2 2 3 4 6 10 13 14 14 14 14 14 14 14 13 13 13 13 13 12 12 12 12 12 12 12 12 12 12 11 11 11 11 11 11 11 12 12 11 11 12 11
0 1 1 2 2 3 6 10 12 13 14 14 13 13 13 13 13 13 13 13 12 12 12 12 12 12 12 12 12 12 12 12 12 11 11 11 11 11 11 11 11 11 10
-1 -1 0 1 1 1 2 4 6 8 11 13 13 13 13 13 13 13 14 13 12 12 12 12 12 12 12 12 12 12 12 12 11 11 11 11 10 11 11 10 10 10 8
-2 -2 -1 -1 0 0 1 1 2 1 2 5 7 10 9 10 12 12 12 12 12 12 12 12 12 12 12 11 11 11 11 11 11 11 11 11 11 11 11 10 10 10 10
-3 -3 -2 -2 -1 -1 -0 -1 0 1 1 -0 1 1 3 5 9 11 12 12 12 11 11 11 11 11 11 11 11 10 10 10 10 10 10 10 10 10 10 10 10 10 7
-4 -4 -4 -3 -2 -2 -2 -1 -1 -0 0 0 -0 2 0 2 4 7 10 9 9 8 8 8 9 10 10 10 10 9 7 6 5 7 8 8 9 9 9 8 8 7 2
-5 -5 -4 -4 -4 -3 -2 -2 -2 -1 -0 0 -0 -1 -0 -0 0 2 4 3 1 -0 1 3 4 6 7 9 9 8 5 2 2 2 3 3 4 4 5 5 5 5 1
-5 -5 -4 -4 -4 -4 -3 -2 -2 -2 -2 -2 -1 -2 -2 -1 -1 0 1 1 0 -1 -3 -2 -1 1 3 4 5 4 3 -0 -1 -1 -1 -1 -0 1 1 1 1 2 2
-4 -4 -5 -5 -6 -5 -4 -4 -4 -3 -3 -3 -3 -3 -4 -3 -3 -2 -1 -1 -1 -2 -3 -3 -3 -2 -2 -1 0 -1 -0 0 -1 -2 -2 -4 -3 -3 -3 -2 -2 -1 -1
-4 -5 -5 -5 -6 -6 -6 -5 -5 -4 -4 -4 -4 -4 -4 -4 -4 -4 -4 -3 -4 -4 -4 -4 -3 -4 -3 -3 -4 -4 -2 -3 -3 -4 -6 -6 -6 -6 -5 -4 -4 -4 -4
-5 -5 -5 -6 -6 -6 -6 -6 -5 -5 -5 -5 -4 -4 -4 -4 -4 -4 -4 -4 -4 -4 -4 -5 -5 -5 -4 -4 -3 -3 -4 -4 -4 -5 -6 -7 -7 -5 -5 -4 -4 -4 -4
-6 -6 -5 -6 -6 -6 -6 -6 -6 -5 -5 -5 -5 -5 -5 -5 -5 -5 -5 -5 -5 -5 -5 -5 -5 -6 -6 -7 -6 -6 -6 -6 -6 -6 -6 -6 -5 -5 -5 -5 -5 -5 -6
-6 -6 -6 -6 -6 -6 -6 -6 -7 -7 -6 -6 -6 -6 -6 -6 -6 -6 -6 -5 -5 -5 -6 -8 -8 -8 -8 -8 -8 -8 -7 -7 -7 -6 -5 -5 -6 -6 -6 -6 -6 -7 -8
-7 -7 -7 -7 -7 -7 -7 -7 -7 -6 -7 -8 -8 -7 -7 -7 -7 -7 -8 -8 -7 -6 -9 -9 -9 -9 -9 -9 -9 -9 -9 -8 -7 -7 -7 -7 -7 -7 -7 -7 -7 -8 -9
-7 -7 -7 -7 -7 -7 -7 -8 -8 -9 -9 -9 -9 -9 -9 -9 -9 -9 -8 -6 -8 -9 -10 -10 -10 -10 -10 -10 -9 -9 -9 -9 -8 -8 -8 -8 -8 -8 -8 -9 -9 -9 -9
-8 -8 -7 -7 -7 -8 -8 -8 -9 -9 -10 -10 -10 -9 -9 -10 -9 -9 -8 -10 -11 -11 -11 -11 -11 -11 -11 -11 -10 -10 -10 -10 -10 -9 -9 -9 -9 -9 -9 -10 -10 -10 -10
-8 -8 -8 -8 -8 -8 -8 -9 -10 -10 -10 -11 -11 -11 -11 -10 -11 -12 -12 -12 -12 -12 -12 -12 -12 -12 -12 -12 -11 -11 -11 -11 -11 -11 -11 -11 -10 -10 -10 -11 -11 -11 -12
-9 -9 -9 -9 -9 -9 -9 -10 -10 -10 -11 -12 -12 -12 -12 -12 -13 -13 -13 -13 -13 -13 -13 -13 -13 -13 -13 -13 -13 -12 -13 -13 -13 -12 -12 -12 -11 -11 -12 -12 -12 -12 -12
-10 -10 -10 -10 -10 -10 -10 -10 -11 -11 -11 -12 -12 -13 -13 -13 -14 -14 -14 -14 -14 -14 -14 -14 -14 -14 -14 -14 -15 -14 -14 -14 -14 -14 -13 -13 -12 -12 -12 -13 -13 -13 -13
-11 -11 -11 -11 -11 -11 -10 -11 -11 -11 -12 -12 -13 -13 -13 -14 -15 -15 -15 -16 -16 -16 -16 -15 -15 -15 -16 -16 -16 -15 -15 -15 -15 -15 -14 -14 -14 -14 -14 -14 -14 -14 -14
-13 -12 -12 -12 -12 -12 -12 -12 -12 -12 -13 -13 -13 -14 -14 -15 -15 -16 -16 -16 -17 -17 -17 -17 -17 -17 -17 -17 -16 -16 -16 -16 -16 -16 -15 -15 -15 -15 -15 -14 -15 -15 -15
-14 -14 -13 -13 -13 -13 -13 -13 -13 -13 -13 -14 -14 -14 -15 -15 -16 -16 -16 -17 -17 -17 -18 -18 -18 -18 -18 -18 -18 -17 -16 -16 -17 -17 -16 -16 -16 -16 -16 -16 -16 -16 -16
-14 -14 -14 -14 -14 -14 -14 -14 -14 -14 -14 -15 -15 -15 -15 -16 -16 -16 -17 -17 -17 -18 -18 -18 -18 -19 -19 -19 -19 -18 -17 -16 -16 -17 -17 -17 -17 -17 -17 -17 -17 -17 -17

GFSGL_925_temp_120.txt.gz
Temp
3 3 4 5 7 10 12 14 15 15 16 16 15 15 14 13 14 14 14 13 14 14 14 13 13 12 12 12 12 12 12 12 12 12 12 13 12 12 12 12 14 14 14
2 2 3 3 4 6 10 12 15 15 15 15 14 14 13 14 14 13 13 13 14 13 13 12 12 12 12 12 12 12 11 12 12 11 12 12 12 12 13 14 14 14 14
1 1 2 2 3 3 5 9 12 15 14 14 14 14 13 13 13 13 13 13 13 14 14 12 12 12 12 12 12 11 11 12 12 12 11 12 12 12 12 12 13 13 14
0 -0 0 1 1 2 3 5 8 12 13 14 13 13 13 13 13 13 13 13 13 13 13 13 12 12 12 12 12 11 11 11 11 11 11 11 12 12 12 12 11 11 11
-1 -0 -0 0 1 1 1 2 4 7 9 11 13 13 13 13 13 13 13 12 12 12 13 13 12 12 12 12 12 12 11 11 11 11 11 11 11 11 11 11 11 11 10
-2 -2 -1 -1 -0 -0 -0 0 1 2 5 6 8 8 10 11 13 13 13 12 12 12 12 12 12 12 12 12 12 12 12 12 11 11 11 11 11 11 11 11 11 10 7
-3 -3 -3 -2 -1 -1 -1 -1 -0 -0 1 3 3 3 2 3 6 12 12 13 12 12 12 12 12 12 12 12 12 12 11 12 12 12 11 11 11 11 11 11 10 10 9
-4 -4 -4 -3 -3 -2 -1 -1 -1 -1 -1 -1 -0 1 1 1 4 7 10 12 12 12 11 11 12 12 12 11 11 11 10 10 10 11 11 11 11 11 10 11 10 10 7
-5 -6 -5 -4 -4 -3 -3 -3 -2 -2 -2 -2 -3 -2 -1 0 1 3 6 5 7 6 6 7 9 10 11 11 10 9 8 8 8 9 10 10 10 10 10 10 9 7 2
-6 -6 -6 -5 -5 -4 -4 -3 -3 -3 -3 -3 -3 -3 -4 -2 -0 0 2 2 -0 0 1 2 3 5 5 8 9 9 6 4 5 4 4 5 6 6 7 7 7 6 2
-5 -6 -6 -6 -6 -5 -5 -4 -4 -3 -3 -3 -3 -3 -3 -4 -4 -3 -0 0 0 -2 -2 -2 -1 2 2 3 4 4 3 2 0 1 1 1 1 2 2 3 3 4 2
-5 -6 -6 -7 -6 -6 -5 -5 -5 -5 -4 -4 -4 -4 -4 -3 -3 -4 -3 -3 -2 -2 -4 -4 -4 -3 -1 -0 0 -1 -1 -1 -1 -2 -3 -4 -3 -3 -2 -1 -0 1 1
-5 -5 -6 -6 -6 -6 -6 -5 -5 -5 -5 -5 -4 -4 -4 -5 -4 -4 -3 -4 -4 -5 -5 -4 -3 -3 -3 -3 -3 -2 -1 -2 -4 -5 -6 -7 -6 -5 -4 -4 -3 -3 -2
-6 -6 -6 -6 -6 -6 -7 -6 -6 -5 -5 -6 -5 -5 -5 -5 -5 -5 -5 -4 -4 -4 -5 -5 -5 -5 -5 -5 -4 -5 -5 -5 -5 -6 -7 -7 -7 -6 -6 -5 -5 -5 -5
-6 -7 -7 -7 -7 -6 -7 -7 -7 -7 -7 -6 -7 -7 -6 -6 -6 -6 -6 -6 -5 -5 -5 -5 -6 -7 -7 -7 -6 -6 -6 -6 -7 -7 -7 -7 -8 -6 -6 -6 -6 -5 -7
-7 -7 -8 -8 -7 -7 -7 -6 -7 -8 -8 -8 -8 -7 -7 -7 -7 -7 -7 -8 -6 -6 -7 -9 -9 -9 -9 -9 -9 -8 -7 -7 -7 -7 -7 -8 -8 -7 -6 -6 -6 -8 -9
-9 -9 -8 -8 -8 -8 -8 -9 -9 -7 -8 -9 -9 -9 -9 -9 -9 -8 -9 -8 -8 -6 -9 -10 -10 -10 -10 -10 -9 -9 -9 -8 -8 -8 -8 -8 -8 -8 -8 -9 -9 -9 -10
-8 -8 -8 -8 -8 -8 -9 -9 -9 -10 -10 -10 -10 -11 -10 -10 -10 -9 -8 -7 -9 -10 -11 -12 -12 -11 -11 -11 -10 -10 -10 -9 -9 -9 -9 -9 -9 -8 -9 -9 -10 -10 -10
-9 -9 -9 -8 -9 -9 -9 -9 -10 -10 -11 -11 -11 -10 -10 -10 -10 -10 -10 -11 -12 -12 -12 -12 -12 -12 -12 -11 -11 -11 -10 -10 -10 -10 -9 -9 -9 -9 -10 -10 -10 -10 -10
-10 -9 -9 -9 -9 -9 -10 -10 -10 -11 -11 -12 -13 -13 -12 -11 -12 -13 -13 -13 -13 -13 -13 -13 -13 -13 -12 -12 -12 -11 -11 -11 -11 -11 -11 -10 -10 -10 -11 -11 -11 -11 -11
-10 -10 -10 -10 -10 -10 -11 -11 -11 -11 -12 -12 -13 -13 -13 -13 -14 -14 -15 -14 -14 -14 -14 -14 -14 -14 -14 -13 -13 -13 -13 -13 -12 -12 -12 -12 -11 -11 -12 -12 -12 -12 -12
-12 -11 -11 -11 -11 -11 -11 -11 -11 -12 -12 -13 -13 -14 -14 -14 -15 -15 -15 -16 -16 -15 -15 -15 -15 -15 -15 -15 -15 -14 -14 -14 -14 -13 -13 -12 -12 -12 -12 -13 -13 -13 -13
-13 -13 -12 -12 -12 -12 -12 -12 -12 -12 -13 -13 -14 -14 -14 -15 -15 -16 -16 -16 -17 -16 -17 -16 -16 -16 -16 -16 -16 -16 -15 -15 -15 -15 -14 -14 -13 -13 -13 -14 -14 -14 -14
-14 -14 -14 -13 -13 -13 -13 -13 -13 -13 -13 -14 -14 -15 -15 -15 -16 -16 -17 -17 -17 -17 -18 -18 -18 -18 -18 -17 -17 -17 -16 -16 -16 -16 -15 -15 -15 -15 -15 -14 -15 -15 -15
-15 -15 -14 -14 -14 -14 -14 -14 -14 -14 -14 -15 -15 -15 -16 -16 -16 -17 -17 -17 -18 -18 -18 -18 -19 -19 -18 -18 -18 -17 -16 -16 -17 -17 -16 -16 -16 -16 -16 -16 -16 -16 -16
-15 -15 -15 -15 -15 -15 -15 -15 -15 -15 -15 -15 -16 -16 -16 -16 -17 -17 -17 -18 -18 -18 -18 -19 -19 -19 -19 -19 -19 -18 -17 -17 -17 -17 -17 -17 -17 -17 -17 -17 -17 -17 -17

GFSGL_925_temp_123.txt.gz
Temp
1 2 3 3 4 5 6 8 11 13 15 15 15 15 15 14 15 14 14 14 14 14 13 13 13 14 13 12 12 12 12 12 13 12 12 12 12 13 13 13 13 13 14
1 1 1 2 2 3 4 6 8 12 14 15 14 14 14 14 14 14 13 13 13 13 13 13 13 13 12 12 12 12 12 12 12 12 12 11 12 13 13 12 12 12 12
1 1 1 1 1 1 2 3 5 8 11 13 14 14 14 14 14 14 13 13 13 13 13 13 13 13 12 12 12 12 12 12 11 11 11 11 11 12 11 11 11 11 11
0 -0 -0 0 0 0 1 1 2 3 6 9 11 13 13 14 13 13 13 13 13 13 13 13 13 12 12 12 12 12 12 12 11 11 11 11 11 11 11 11 11 11 11
-1 -1 -1 -1 -0 0 -0 0 0 1 1 2 5 7 9 9 7 10 12 13 12 12 12 12 13 12 12 13 12 12 12 11 11 11 11 11 11 11 11 11 11 11 11
-2 -2 -2 -1 -2 -1 -1 -0 -1 -1 -1 0 0 1 1 2 5 7 9 12 12 12 12 12 12 14 13 13 12 12 12 12 11 11 11 11 11 11 11 11 11 11 8
-4 -3 -3 -2 -2 -2 -2 -2 -1 -1 -2 -2 -2 -1 -1 -1 2 6 9 10 12 12 12 12 12 12 13 12 12 12 12 12 12 12 12 11 12 12 11 11 11 11 11
-5 -5 -4 -4 -4 -3 -2 -2 -2 -2 -2 -3 -3 -3 -2 -2 0 2 5 7 8 8 8 10 11 12 12 12 12 12 11 11 11 11 11 12 12 11 11 12 11 10 7
-6 -6 -5 -5 -5 -4 -4 -3 -3 -3 -3 -3 -3 -3 -3 -3 -0 1 1 3 2 0 2 3 5 6 9 11 12 11 9 9 9 10 10 11 11 11 11 10 10 7 2
-6 -6 -6 -5 -5 -5 -4 -4 -4 -3 -3 -3 -3 -4 -4 -4 -4 -2 -0 -1 -1 0 -1 -1 -0 1 3 5 8 9 7 6 6 6 6 6 7 8 9 8 9 7 3
-5 -6 -6 -6 -6 -5 -5 -5 -5 -4 -4 -4 -4 -4 -4 -4 -4 -4 -3 -2 -4 -4 -4 -4 -4 -2 1 2 4 4 3 1 -0 1 1 1 2 2 3 4 5 5 4
-5 -6 -6 -6 -6 -6 -6 -5 -5 -5 -5 -5 -5 -5 -5 -5 -5 -5 -5 -4 -4 -5 -5 -5 -5 -4 -4 -2 -2 -1 -0 0 -0 -1 -3 -4 -4 -3 -2 -1 -0 1 2
-5 -6 -5 -6 -6 -6 -6 -6 -6 -5 -5 -5 -5 -5 -5 -6 -6 -6 -6 -4 -4 -5 -6 -5 -4 -3 -3 -4 -3 -3 -3 -3 -4 -5 -6 -7 -6 -6 -5 -4 -4 -3 -3
-5 -6 -5 -6 -6 -6 -6 -6 -7 -6 -6 -6 -6 -6 -6 -6 -6 -7 -6 -6 -5 -5 -5 -5 -5 -6 -6 -6 -5 -6 -6 -6 -6 -7 -7 -7 -6 -5 -5 -5 -5 -5 -5
-6 -6 -7 -6 -6 -6 -7 -8 -7 -8 -8 -7 -8 -7 -7 -7 -7 -7 -7 -7 -7 -7 -6 -7 -7 -7 -7 -7 -7 -7 -7 -7 -7 -7 -7 -7 -7 -7 -7 -7 -7 -6 -7
-7 -7 -8 -7 -7 -7 -8 -7 -9 -9 -9 -9 -9 -9 -8 -8 -8 -8 -9 -8 -6 -7 -8 -8 -8 -8 -8 -8 -8 -8 -8 -8 -7 -8 -8 -8 -8 -8 -8 -8 -8 -7 -7
-9 -9 -8 -8 -8 -9 -9 -9 -9 -9 -10 -10 -10 -11 -9 -10 -10 -9 -9 -9 -8 -9 -9 -9 -9 -9 -9 -9 -9 -9 -9 -9 -8 -8 -8 -8 -8 -8 -8 -8 -8 -8 -8
-10 -10 -10 -10 -10 -10 -10 -10 -10 -10 -10 -11 -11 -11 -12 -11 -11 -11 -9 -10 -10 -10 -10 -11 -11 -11 -10 -10 -10 -10 -10 -10 -9 -9 -9 -9 -9 -9 -8 -8 -8 -8 -8
-11 -10 -11 -10 -10 -11 -10 -10 -11 -11 -11 -12 -12 -12 -12 -12 -12 -12 -13 -12 -12 -12 -12 -12 -12 -12 -12 -12 -12 -12 -12 -11 -11 -10 -10 -10 -9 -9 -9 -9 -9 -9 -8
-11 -11 -11 -11 -11 -11 -11 -11 -11 -11 -12 -12 -13 -14 -14 -13 -14 -14 -14 -14 -14 -14 -14 -14 -14 -14 -14 -14 -13 -13 -12 -12 -11 -11 -11 -11 -11 -10 -10 -10 -10 -9 -9
-12 -12 -12 -12 -12 -12 -11 -11 -12 -12 -12 -13 -14 -15 -14 -14 -15 -15 -16 -16 -16 -16 -16 -16 -16 -16 -16 -16 -15 -14 -14 -14 -14 -13 -12 -12 -12 -11 -11 -11 -11 -11 -10
-13 -13 -13 -13 -13 -13 -13 -13 -13 -13 -13 -13 -14 -14 -15 -15 -15 -16 -17 -17 -18 -18 -18 -18 -18 -17 -17 -17 -17 -16 -16 -16 -15 -15 -14 -13 -12 -12 -12 -12 -12 -12 -12
-14 -14 -14 -14 -14 -14 -14 -14 -14 -13 -13 -14 -15 -15 -15 -16 -16 -17 -17 -18 -18 -18 -18 -19 -19 -18 -17 -17 -17 -17 -17 -16 -15 -15 -15 -14 -13 -13 -13 -13 -13 -13 -13
-15 -15 -15 -15 -15 -15 -14 -14 -15 -15 -15 -15 -15 -16 -16 -17 -17 -17 -18 -18 -18 -19 -18 -18 -18 -18 -18 -18 -18 -18 -17 -17 -16 -16 -15 -16 -15 -14 -14 -14 -14 -15 -15
-15 -15 -16 -16 -16 -16 -16 -15 -15 -15 -16 -16 -16 -16 -16 -17 -17 -18 -18 -18 -18 -19 -18 -19 -19 -19 -19 -19 -18 -18 -17 -17 -17 -16 -16 -16 -16 -15 -16 -16 -16 -15 -16
-15 -16 -16 -16 -16 -16 -16 -16 -16 -16 -16 -16 -17 -17 -17 -17 -17 -18 -18 -18 -18 -19 -19 -19 -19 -19 -19 -19 -19 -19 -17 -17 -17 -17 -17 -17 -17 -17 -17 -17 -17 -16 -16

GFSGL_925_temp_126.txt.gz
Temp
2 2 3 3 4 4 4 4 5 8 11 13 15 15 15 15 15 15 15 15 15 15 15 15 14 14 14 14 13 13 13 13 14 16 14 13 12 12 12 12 12 13 12
2 2 1 1 2 2 2 3 5 5 7 10 13 14 15 15 16 15 15 15 14 14 14 14 14 14 14 13 13 13 14 13 14 14 13 12 12 12 12 12 12 12 12
1 1 1 1 1 1 1 1 2 2 3 5 8 10 11 13 14 14 14 14 14 14 14 14 14 14 13 13 14 14 14 13 14 14 13 12 12 12 12 12 12 12 12
1 1 1 0 0 0 1 0 0 1 1 2 2 3 4 5 6 9 11 13 14 13 14 14 13 13 13 13 14 14 14 13 13 13 12 11 11 11 12 11 11 11 11
-0 0 1 1 0 -0 -0 0 0 -0 -0 -0 -0 1 1 1 1 3 7 10 12 13 13 13 13 13 13 14 14 14 13 13 13 12 12 11 11 11 11 11 11 11 11
-1 -1 -0 1 1 1 -0 -0 -0 -0 -1 -1 -1 -1 -1 -1 0 2 6 8 9 12 13 13 13 13 13 14 14 14 14 13 13 12 12 12 11 11 11 11 11 11 9
-2 -2 -2 -0 0 1 1 0 -0 -1 -1 -2 -2 -1 -2 -3 -0 1 1 3 4 5 6 8 10 12 12 13 13 13 13 12 12 12 12 12 12 12 11 11 11 11 11
-4 -4 -3 -2 -2 -1 -1 -1 -1 -1 -1 -2 -2 -3 -2 -3 -3 0 -0 0 1 0 1 1 3 5 8 11 12 12 12 12 12 12 12 12 13 13 12 12 11 11 9
-5 -5 -4 -4 -3 -3 -3 -3 -2 -2 -2 -3 -3 -3 -4 -4 -4 -4 -2 -1 -2 -2 -3 -2 1 1 2 5 9 11 11 10 10 11 11 11 12 12 12 11 11 7 3
-5 -5 -5 -4 -5 -4 -4 -4 -3 -3 -3 -3 -4 -4 -4 -4 -4 -4 -4 -4 -4 -4 -3 -3 -2 -1 1 3 5 7 6 6 6 6 7 8 9 10 10 10 10 8 4
-4 -4 -5 -5 -5 -5 -4 -4 -4 -4 -4 -4 -4 -4 -5 -5 -5 -5 -5 -5 -4 -4 -5 -5 -5 -4 -1 0 1 1 2 2 0 1 1 1 3 3 4 5 6 7 5
-3 -3 -4 -4 -5 -5 -5 -5 -4 -4 -4 -3 -4 -4 -4 -5 -5 -5 -5 -5 -5 -5 -5 -5 -5 -5 -3 -2 -2 -2 -1 -1 -1 -1 -1 -3 -4 -3 -2 -1 0 2 3
-3 -3 -3 -4 -4 -4 -5 -5 -5 -5 -4 -4 -4 -4 -4 -5 -5 -6 -6 -5 -5 -5 -5 -6 -6 -6 -5 -5 -5 -3 -3 -4 -5 -5 -6 -6 -6 -6 -5 -4 -4 -3 -2
-3 -3 -3 -3 -3 -3 -4 -5 -6 -7 -6 -6 -6 -6 -6 -6 -6 -7 -6 -6 -6 -5 -5 -5 -6 -5 -5 -6 -6 -6 -6 -6 -6 -7 -7 -6 -6 -5 -5 -5 -5 -5 -6
-3 -4 -4 -4 -4 -4 -4 -6 -7 -8 -8 -8 -8 -7 -7 -7 -8 -8 -8 -7 -7 -6 -5 -5 -5 -5 -5 -5 -6 -6 -6 -6 -6 -6 -6 -6 -6 -6 -6 -5 -5 -6 -6
-5 -5 -6 -5 -5 -5 -5 -5 -7 -8 -9 -10 -10 -9 -9 -9 -9 -9 -9 -9 -8 -7 -6 -6 -6 -6 -6 -6 -6 -7 -7 -7 -7 -7 -7 -7 -7 -6 -6 -6 -6 -5 -5
-7 -7 -6 -6 -6 -6 -6 -6 -6 -6 -8 -9 -10 -11 -11 -11 -11 -10 -9 -8 -8 -7 -6 -7 -7 -7 -7 -7 -7 -7 -7 -8 -7 -7 -7 -7 -7 -7 -7 -6 -6 -6 -6
-8 -8 -8 -7 -7 -7 -7 -7 -7 -7 -7 -8 -9 -11 -11 -11 -11 -11 -10 -8 -7 -8 -8 -8 -8 -8 -8 -8 -8 -8 -8 -8 -8 -7 -8 -8 -8 -7 -7 -7 -7 -7 -7
-9 -9 -9 -8 -8 -8 -8 -8 -8 -8 -8 -9 -9 -10 -11 -11 -11 -11 -11 -10 -10 -10 -10 -10 -10 -10 -10 -9 -10 -9 -8 -8 -8 -7 -7 -7 -7 -7 -8 -8 -8 -8 -8
-9 -10 -10 -9 -8 -8 -8 -8 -8 -9 -9 -9 -10 -12 -13 -11 -11 -12 -12 -12 -12 -12 -12 -12 -12 -12 -12 -11 -11 -10 -9 -9 -8 -8 -8 -8 -8 -7 -7 -7 -7 -7 -7
-10 -10 -10 -9 -9 -9 -9 -9 -9 -9 -10 -10 -10 -13 -14 -12 -12 -12 -13 -13 -14 -13 -14 -13 -14 -14 -14 -13 -13 -12 -12 -11 -11 -10 -9 -9 -9 -8 -8 -8 -8 -8 -7
-11 -11 -10 -10 -10 -10 -11 -10 -10 -10 -10 -11 -11 -12 -13 -12 -13 -13 -14 -15 -15 -15 -15 -15 -15 -15 -16 -16 -15 -14 -13 -13 -13 -12 -11 -10 -10 -9 -9 -9 -9 -9 -8
-12 -12 -11 -11 -11 -12 -11 -11 -11 -11 -11 -12 -12 -12 -13 -13 -14 -14 -14 -15 -15 -16 -17 -17 -17 -17 -17 -17 -17 -16 -16 -16 -15 -15 -13 -11 -11 -10 -10 -10 -10 -10 -10
-12 -12 -12 -12 -12 -13 -12 -12 -12 -12 -13 -13 -13 -13 -13 -14 -14 -15 -15 -16 -16 -16 -17 -17 -17 -19 -19 -19 -18 -18 -19 -19 -18 -16 -15 -13 -12 -12 -11 -11 -12 -12 -12
-12 -12 -13 -13 -13 -13 -13 -13 -13 -13 -13 -13 -14 -14 -14 -14 -14 -15 -15 -16 -17 -17 -17 -18 -19 -19 -19 -20 -20 -19 -17 -17 -17 -17 -16 -14 -14 -14 -13 -13 -12 -13 -13
-13 -13 -13 -13 -13 -13 -14 -14 -14 -14 -14 -14 -14 -15 -15 -15 -15 -15 -16 -16 -17 -17 -17 -17 -18 -19 -20 -19 -20 -19 -18 -17 -17 -17 -17 -15 -15 -14 -14 -14 -14 -13 -13

GFSGL_925_temp_129.txt.gz
Temp
3 3 3 3 4 4 3 3 4 4 5 7 9 13 15 16 15 15 15 16 16 16 16 16 17 17 17 17 17 17 17 17 17 18 18 16 16 15 13 13 13 13 13
2 2 1 2 2 2 2 2 2 2 3 3 4 6 7 10 11 12 14 15 15 15 16 15 15 16 16 15 15 16 16 15 15 15 16 16 15 15 13 12 12 13 12
2 3 2 2 1 1 2 1 1 1 1 1 3 2 2 3 6 8 9 11 14 15 15 15 15 14 14 15 14 14 14 14 14 14 16 16 14 14 12 12 12 12 12
-0 1 2 2 2 1 1 1 1 1 0 0 0 1 0 0 2 3 6 9 10 12 14 14 14 14 14 14 14 14 14 14 14 15 15 14 13 12 12 12 11 12 12
-1 -0 1 2 1 1 1 0 0 -0 -1 -1 -0 -1 -1 -1 -1 1 3 5 6 7 9 11 13 14 14 14 14 14 14 14 14 14 15 13 12 12 12 12 11 11 11
-1 -1 0 1 1 1 1 1 0 -0 -1 -1 -1 -1 -2 -2 -2 1 1 1 1 1 1 5 7 9 8 12 13 14 14 14 14 15 15 13 13 12 11 12 12 11 11
-2 -2 -1 -1 -0 -0 -0 -0 -0 -0 -1 -1 -2 -1 -1 -3 -3 -1 -1 -1 -1 -1 -1 -1 1 1 4 6 9 12 13 13 14 14 14 13 13 12 11 11 11 12 12
-3 -3 -2 -1 -1 -1 -2 -1 -1 -2 -2 -2 -2 -3 -2 -3 -4 -3 -1 -2 -2 -2 -3 -3 -2 -2 -0 2 5 7 11 12 12 13 13 13 13 13 12 12 12 12 10
-3 -3 -3 -3 -3 -3 -3 -3 -2 -2 -2 -3 -3 -3 -4 -4 -4 -4 -2 -2 -1 -3 -4 -4 -4 -4 -3 0 2 5 8 9 11 11 12 12 12 12 13 12 11 8 3
-3 -3 -3 -4 -4 -4 -4 -3 -3 -2 -3 -3 -3 -3 -4 -4 -5 -4 -4 -4 -3 -3 -3 -4 -4 -5 -4 -3 -2 -0 2 1 2 3 4 5 7 9 11 11 11 10 5
-1 -2 -3 -3 -4 -4 -4 -4 -4 -3 -3 -3 -3 -3 -4 -4 -5 -5 -5 -4 -4 -4 -4 -4 -5 -5 -5 -4 -3 -3 -2 -0 -0 1 1 0 1 1 3 5 6 8 7
-1 -1 -1 -2 -2 -3 -4 -4 -4 -4 -4 -4 -4 -4 -4 -5 -5 -6 -5 -5 -5 -4 -4 -5 -5 -4 -5 -5 -5 -4 -3 -3 -3 -3 -3 -3 -3 -3 -3 -2 -0 1 3
-1 -1 -1 -1 -1 -2 -3 -4 -5 -5 -5 -5 -5 -5 -5 -6 -7 -7 -6 -6 -6 -5 -4 -4 -4 -4 -4 -5 -5 -5 -5 -5 -5 -6 -6 -6 -6 -5 -4 -4 -4 -3 -2
-1 -1 -1 -1 -1 -1 -3 -3 -5 -7 -6 -6 -7 -7 -7 -7 -8 -8 -7 -7 -6 -5 -5 -4 -5 -4 -4 -5 -5 -5 -5 -5 -5 -5 -5 -6 -5 -5 -5 -4 -5 -5 -5
-2 -2 -3 -2 -2 -2 -3 -5 -5 -8 -8 -8 -9 -9 -9 -9 -9 -9 -8 -7 -7 -6 -5 -5 -5 -5 -5 -5 -5 -5 -6 -5 -5 -5 -5 -5 -5 -5 -5 -5 -5 -6 -6
-3 -4 -4 -3 -3 -3 -3 -3 -6 -7 -8 -9 -9 -9 -10 -10 -9 -9 -9 -7 -7 -6 -5 -6 -6 -6 -6 -6 -6 -6 -6 -6 -6 -5 -5 -6 -6 -5 -5 -5 -5 -5 -5
-6 -6 -5 -5 -5 -5 -5 -5 -5 -5 -6 -7 -8 -9 -10 -10 -10 -10 -9 -8 -7 -7 -7 -7 -7 -7 -6 -6 -6 -6 -6 -6 -6 -6 -6 -6 -6 -6 -6 -6 -5 -5 -6
-7 -7 -7 -6 -6 -6 -6 -6 -6 -6 -6 -6 -7 -9 -10 -10 -9 -10 -10 -8 -8 -8 -9 -9 -9 -9 -9 -8 -8 -8 -7 -7 -7 -6 -6 -7 -7 -7 -7 -7 -7 -6 -6
-7 -7 -8 -7 -6 -7 -6 -6 -6 -6 -6 -7 -7 -8 -11 -11 -9 -10 -10 -10 -10 -10 -10 -9 -10 -10 -10 -10 -9 -9 -8 -8 -7 -7 -7 -7 -7 -7 -7 -7 -7 -7 -7
-7 -8 -8 -7 -7 -7 -7 -7 -7 -7 -7 -7 -8 -10 -11 -11 -10 -10 -10 -11 -11 -11 -11 -11 -11 -12 -12 -12 -11 -10 -10 -9 -9 -8 -8 -8 -7 -7 -6 -7 -7 -7 -8
-8 -8 -8 -8 -8 -7 -8 -8 -8 -8 -8 -8 -9 -11 -12 -11 -11 -11 -11 -12 -13 -13 -13 -13 -12 -13 -13 -13 -13 -12 -11 -11 -11 -11 -9 -8 -8 -8 -7 -7 -7 -7 -6
-9 -9 -8 -8 -8 -9 -9 -9 -9 -9 -9 -9 -10 -10 -11 -11 -12 -12 -12 -13 -13 -14 -14 -14 -14 -14 -15 -15 -14 -14 -13 -13 -13 -13 -12 -10 -9 -8 -8 -8 -8 -7 -7
-9 -9 -9 -9 -9 -10 -10 -10 -10 -10 -10 -10 -11 -11 -11 -12 -12 -12 -13 -13 -14 -14 -15 -15 -15 -16 -17 -17 -16 -16 -16 -16 -16 -14 -13 -11 -10 -10 -9 -9 -9 -10 -10
-9 -10 -10 -10 -10 -10 -10 -11 -11 -11 -11 -11 -12 -12 -12 -12 -13 -13 -13 -14 -15 -15 -15 -16 -16 -16 -17 -18 -18 -18 -19 -19 -18 -17 -15 -13 -12 -11 -10 -10 -10 -11 -10
-10 -10 -10 -10 -11 -11 -11 -11 -11 -12 -12 -12 -12 -12 -13 -13 -13 -13 -14 -14 -15 -15 -15 -16 -16 -17 -18 -18 -19 -20 -19 -17 -19 -16 -16 -14 -13 -12 -13 -12 -12 -11 -12
-10 -10 -11 -11 -11 -11 -12 -12 -12 -12 -12 -13 -13 -13 -13 -13 -14 -14 -15 -15 -15 -16 -16 -16 -16 -17 -17 -17 -19 -20 -19 -18 -17 -17 -16 -14 -14 -14 -14 -13 -13 -12 -12

GFSGL_925_temp_135.txt.gz
Temp
-1 -1 0 1 1 2 2 1 1 2 3 3 4 5 4 6 8 8 8 8 9 10 11 12 13 14 16 15 15 15 15 15 15 16 16 17 17 18 18 17 17 17 16
-1 -1 -0 1 0 0 0 1 0 -0 -0 -0 1 4 1 2 3 4 4 5 5 5 5 6 6 8 11 11 12 15 15 15 15 15 16 15 16 17 18 17 16 16 16
-2 -1 -1 -1 -0 -1 -1 -1 -1 -1 -2 -2 -1 -1 -1 0 1 2 3 3 2 1 2 2 2 3 3 4 7 7 10 14 14 14 14 15 15 15 15 16 16 15 15
-2 -2 -2 -1 -1 -1 -1 -2 -2 -2 -2 -2 -3 -2 -2 -2 -1 -0 0 1 1 0 0 0 -1 -1 -1 1 3 2 5 6 12 14 14 15 14 14 15 14 13 13 13
-3 -3 -2 -2 -2 -2 -2 -2 -3 -3 -3 -3 -4 -4 -3 -3 -2 -1 -1 -2 -2 -2 -2 -2 -2 -2 -1 -1 -0 1 2 3 6 8 13 14 14 13 14 14 14 13 13
-3 -3 -3 -3 -2 -2 -2 -2 -3 -3 -4 -4 -4 -5 -4 -4 -3 -3 -2 -2 -3 -3 -3 -4 -3 -3 -3 -1 -1 1 2 1 2 5 7 9 12 13 14 13 13 13 12
-3 -3 -3 -3 -3 -3 -3 -3 -3 -3 -4 -5 -5 -5 -5 -5 -5 -4 -4 -3 -3 -4 -4 -4 -4 -4 -4 -4 -1 -1 -1 -1 -1 -0 0 2 2 5 4 9 13 13 13
-2 -3 -4 -4 -4 -4 -4 -4 -4 -4 -4 -5 -6 -7 -6 -5 -5 -5 -5 -5 -4 -4 -4 -4 -4 -4 -4 -4 -4 -4 -3 -3 -2 -2 -1 -2 -1 1 2 3 6 12 12
-2 -3 -4 -4 -5 -5 -5 -5 -5 -6 -5 -6 -7 -8 -8 -7 -6 -6 -6 -6 -5 -4 -4 -5 -4 -4 -4 -4 -5 -4 -4 -4 -3 -3 -2 -1 -1 -1 0 3 6 6 5
-2 -2 -3 -4 -5 -5 -6 -6 -6 -7 -7 -7 -7 -8 -8 -8 -7 -6 -6 -7 -6 -5 -5 -5 -5 -4 -4 -5 -5 -5 -5 -5 -5 -4 -3 -2 -2 -1 -1 -1 -1 0 2
-2 -2 -3 -3 -4 -5 -6 -6 -7 -7 -8 -8 -9 -9 -9 -9 -9 -8 -7 -7 -7 -7 -6 -5 -5 -5 -5 -5 -5 -6 -6 -6 -5 -5 -5 -5 -5 -4 -3 -3 -2 -2 -1
-2 -2 -2 -3 -4 -5 -6 -7 -7 -8 -8 -9 -9 -10 -10 -9 -9 -8 -8 -7 -7 -7 -7 -6 -6 -6 -6 -6 -6 -6 -6 -7 -6 -6 -6 -6 -6 -5 -5 -4 -3 -3 -3
-3 -3 -3 -3 -4 -5 -5 -6 -7 -8 -9 -9 -9 -10 -10 -9 -9 -9 -8 -8 -8 -7 -7 -7 -8 -8 -8 -7 -7 -7 -7 -7 -7 -6 -6 -6 -6 -6 -5 -5 -4 -3 -3
-4 -4 -4 -4 -5 -5 -6 -6 -7 -8 -9 -10 -10 -10 -10 -9 -9 -9 -9 -8 -8 -8 -9 -9 -9 -9 -9 -9 -9 -9 -8 -8 -7 -7 -7 -7 -7 -6 -6 -6 -5 -5 -5
-5 -5 -5 -5 -5 -5 -6 -6 -6 -7 -8 -9 -9 -10 -10 -10 -8 -8 -9 -9 -9 -10 -10 -10 -11 -11 -11 -11 -11 -10 -10 -9 -9 -8 -7 -7 -7 -7 -7 -6 -6 -6 -6
-6 -6 -6 -6 -6 -6 -6 -6 -6 -6 -7 -8 -9 -9 -9 -9 -8 -8 -9 -10 -10 -11 -12 -12 -12 -12 -12 -12 -12 -11 -11 -11 -10 -9 -8 -8 -7 -7 -7 -7 -7 -7 -7
-7 -7 -7 -7 -7 -7 -7 -7 -7 -7 -7 -7 -8 -9 -10 -9 -9 -9 -10 -11 -12 -12 -13 -13 -13 -13 -13 -13 -13 -13 -12 -12 -11 -11 -10 -9 -8 -7 -7 -7 -7 -7 -7
-7 -7 -7 -7 -7 -7 -7 -8 -8 -8 -8 -8 -9 -10 -10 -10 -10 -10 -11 -12 -13 -14 -14 -14 -14 -14 -15 -15 -15 -15 -14 -13 -13 -13 -12 -12 -9 -8 -8 -8 -8 -8 -8
-7 -8 -8 -8 -8 -8 -8 -8 -9 -9 -9 -9 -10 -10 -11 -11 -11 -12 -12 -13 -13 -14 -14 -15 -15 -15 -16 -16 -16 -16 -16 -15 -15 -15 -14 -13 -12 -9 -9 -8 -8 -8 -8
-8 -8 -8 -8 -8 -9 -9 -9 -9 -10 -10 -10 -10 -11 -11 -11 -12 -12 -13 -13 -14 -14 -15 -15 -15 -16 -16 -16 -17 -17 -17 -17 -17 -16 -15 -15 -13 -11 -10 -9 -9 -9 -8
-9 -9 -9 -8 -9 -9 -10 -10 -10 -10 -10 -11 -11 -11 -11 -12 -12 -12 -13 -13 -14 -14 -15 -15 -15 -16 -16 -17 -17 -18 -18 -18 -18 -18 -17 -16 -14 -13 -12 -10 -11 -10 -10
-9 -9 -9 -9 -9 -10 -10 -10 -11 -11 -11 -11 -11 -12 -12 -12 -13 -13 -13 -14 -14 -14 -15 -15 -16 -16 -16 -17 -17 -18 -18 -18 -18 -18 -18 -16 -15 -14 -13 -12 -11 -11 -11
-9 -9 -9 -10 -10 -10 -10 -11 -11 -11 -11 -12 -12 -12 -12 -13 -13 -13 -13 -14 -14 -15 -15 -15 -16 -16 -16 -17 -17 -18 -18 -18 -19 -19 -18 -16 -15 -14 -13 -13 -12 -12 -12
-10 -10 -10 -10 -10 -10 -11 -11 -11 -11 -11 -12 -12 -12 -13 -13 -13 -13 -14 -14 -14 -15 -15 -15 -16 -16 -17 -17 -17 -18 -18 -18 -18 -18 -17 -16 -16 -15 -14 -13 -13 -12 -12
-10 -10 -10 -10 -10 -11 -11 -11 -11 -11 -12 -12 -12 -12 -13 -13 -13 -13 -14 -14 -15 -15 -15 -16 -16 -17 -17 -17 -18 -18 -18 -18 -18 -18 -17 -17 -16 -16 -15 -14 -13 -13 -12
-10 -11 -11 -11 -11 -11 -11 -11 -12 -12 -12 -12 -12 -12 -13 -13 -13 -14 -14 -14 -15 -15 -16 -16 -16 -17 -17 -17 -18 -18 -18 -19 -19 -18 -18 -17 -17 -16 -16 -15 -14 -14 -13

GFSGL_925_temp_141.txt.gz
Temp
-3 -3 -2 -3 -3 -3 -3 -3 -3 -2 -1 1 1 1 2 3 5 8 3 3 3 3 4 3 5 4 7 8 8 6 7 10 12 14 15 16 16 16 16 16 16 16 16
-3 -3 -3 -3 -3 -4 -4 -4 -4 -3 -2 -1 -0 -0 -0 -0 0 0 0 -0 -0 -0 0 2 0 1 1 2 2 4 3 5 7 10 11 13 14 15 15 15 16 15 15
-4 -3 -4 -3 -4 -4 -5 -5 -5 -4 -4 -3 -2 -2 -2 -2 -2 -2 -2 -1 -1 -2 -2 -1 -1 -1 -1 1 0 1 0 2 3 5 7 8 10 10 11 13 14 14 14
-4 -4 -4 -4 -4 -5 -6 -6 -6 -5 -5 -5 -4 -3 -3 -3 -3 -2 -2 -2 -3 -3 -3 -3 -3 -3 -3 -2 -2 -2 -2 -1 -0 1 3 3 4 3 4 3 5 8 9
-4 -5 -5 -5 -5 -5 -6 -7 -7 -7 -6 -5 -5 -5 -4 -4 -4 -4 -4 -4 -4 -4 -4 -4 -3 -4 -4 -3 -3 -4 -4 -3 -2 -1 -0 0 1 0 -1 -1 0 1 6
-4 -5 -5 -6 -6 -6 -6 -7 -8 -8 -8 -7 -6 -6 -6 -5 -5 -4 -4 -5 -5 -5 -5 -5 -5 -5 -4 -4 -4 -4 -5 -5 -4 -3 -3 -2 -2 -3 -3 -2 -1 -0 3
-5 -5 -6 -6 -6 -7 -7 -7 -8 -8 -8 -8 -8 -6 -6 -6 -6 -6 -6 -6 -6 -6 -6 -5 -5 -5 -5 -5 -5 -5 -5 -6 -5 -5 -5 -5 -4 -4 -4 -4 -3 -3 -1
-5 -6 -6 -7 -7 -7 -8 -8 -9 -9 -9 -9 -8 -8 -6 -6 -7 -7 -7 -7 -7 -7 -7 -6 -7 -7 -6 -6 -6 -6 -6 -7 -6 -6 -6 -6 -5 -5 -5 -5 -4 -4 -3
-6 -6 -7 -7 -8 -8 -8 -9 -9 -9 -9 -9 -10 -9 -8 -7 -6 -8 -8 -8 -8 -9 -8 -7 -7 -7 -7 -7 -7 -7 -7 -8 -7 -7 -7 -6 -6 -6 -6 -6 -5 -5 -4
-5 -6 -6 -7 -7 -8 -8 -9 -9 -9 -10 -10 -10 -9 -9 -8 -7 -8 -9 -10 -10 -10 -10 -10 -9 -8 -8 -8 -9 -8 -8 -9 -8 -8 -7 -6 -5 -5 -6 -7 -6 -6 -5
-5 -6 -6 -7 -7 -8 -8 -9 -9 -9 -9 -9 -9 -9 -9 -9 -9 -8 -9 -10 -11 -11 -11 -11 -10 -10 -10 -9 -10 -10 -10 -10 -10 -8 -8 -8 -7 -7 -7 -6 -7 -7 -6
-5 -6 -6 -7 -7 -7 -8 -8 -9 -10 -10 -10 -10 -10 -10 -10 -10 -10 -10 -10 -11 -12 -12 -12 -12 -12 -12 -12 -11 -11 -12 -11 -11 -11 -10 -9 -9 -9 -8 -7 -7 -7 -6
-6 -6 -7 -7 -7 -7 -8 -8 -9 -9 -10 -10 -10 -10 -10 -10 -10 -11 -11 -11 -12 -12 -13 -13 -13 -14 -14 -12 -13 -13 -12 -13 -13 -13 -13 -12 -12 -10 -9 -9 -7 -8 -7
-6 -7 -7 -7 -7 -7 -7 -8 -8 -9 -10 -10 -10 -10 -10 -10 -11 -11 -11 -12 -12 -12 -13 -13 -13 -14 -14 -15 -14 -14 -14 -15 -15 -15 -14 -13 -12 -11 -11 -10 -9 -9 -9
-7 -7 -7 -7 -7 -8 -8 -8 -8 -9 -9 -9 -10 -10 -10 -10 -10 -10 -11 -12 -13 -14 -14 -15 -15 -15 -16 -16 -16 -16 -16 -16 -16 -16 -16 -15 -14 -14 -13 -11 -10 -10 -9
-7 -7 -7 -8 -8 -8 -8 -8 -9 -9 -9 -9 -10 -10 -10 -10 -10 -10 -12 -12 -13 -14 -15 -16 -16 -17 -17 -17 -17 -18 -18 -18 -18 -17 -17 -16 -16 -15 -15 -12 -11 -10 -10
-8 -8 -8 -8 -9 -9 -9 -9 -10 -10 -10 -10 -10 -11 -11 -10 -11 -11 -12 -13 -13 -14 -15 -15 -16 -16 -17 -17 -18 -18 -18 -18 -18 -18 -18 -18 -17 -16 -16 -14 -12 -11 -11
-8 -8 -8 -9 -9 -9 -10 -10 -10 -10 -11 -11 -11 -12 -12 -11 -12 -12 -13 -13 -14 -14 -15 -15 -15 -16 -16 -17 -17 -18 -18 -18 -18 -18 -18 -18 -18 -18 -17 -16 -14 -12 -12
-8 -8 -9 -9 -9 -9 -10 -10 -10 -11 -11 -11 -12 -12 -12 -12 -13 -13 -13 -14 -14 -14 -15 -15 -15 -16 -16 -17 -17 -17 -18 -18 -18 -18 -18 -18 -18 -19 -18 -17 -15 -14 -12
-9 -9 -9 -9 -10 -10 -10 -11 -11 -11 -11 -12 -12 -12 -12 -12 -13 -13 -13 -14 -14 -14 -15 -15 -15 -16 -16 -17 -17 -17 -18 -18 -18 -19 -19 -19 -18 -18 -18 -18 -17 -14 -13
-9 -9 -9 -10 -10 -10 -10 -11 -11 -11 -11 -12 -12 -12 -12 -13 -13 -13 -13 -13 -14 -14 -14 -15 -15 -16 -16 -16 -17 -17 -18 -18 -18 -19 -19 -19 -19 -18 -17 -17 -17 -16 -15
-9 -10 -10 -10 -10 -10 -11 -11 -11 -11 -11 -12 -12 -12 -12 -12 -13 -13 -13 -13 -14 -14 -14 -15 -15 -16 -16 -16 -17 -18 -18 -18 -19 -19 -20 -20 -19 -18 -18 -18 -17 -16 -16
-10 -10 -10 -10 -10 -11 -11 -11 -11 -11 -12 -12 -12 -12 -13 -13 -13 -13 -13 -13 -14 -14 -14 -15 -15 -16 -16 -17 -17 -18 -18 -19 -19 -20 -20 -20 -20 -19 -18 -18 -18 -17 -16
-10 -10 -11 -11 -11 -11 -11 -11 -11 -11 -12 -12 -13 -13 -13 -13 -14 -14 -13 -13 -14 -14 -14 -15 -15 -16 -16 -17 -17 -17 -18 -19 -19 -20 -20 -20 -20 -19 -19 -18 -17 -17 -16
-10 -11 -11 -11 -11 -11 -11 -11 -12 -12 -13 -13 -14 -14 -14 -14 -15 -15 -15 -15 -14 -14 -14 -15 -15 -16 -16 -17 -17 -17 -18 -19 -19 -19 -20 -20 -20 -19 -19 -18 -18 -17 -16
-10 -11 -11 -11 -12 -12 -12 -12 -13 -14 -14 -15 -16 -16 -16 -17 -17 -17 -17 -17 -17 -16 -16 -15 -16 -16 -16 -17 -17 -18 -18 -19 -19 -20 -20 -20 -20 -20 -19 -18 -17 -17 -16

GFSGL_925_temp_144.txt.gz
Temp
-4 -4 -4 -4 -5 -5 -5 -5 -4 -4 -4 -3 -2 -1 -0 1 2 2 2 2 3 2 1 2 1 3 3 5 7 7 7 9 10 13 14 13 14 13 13 13 14 15 16
-4 -4 -5 -5 -6 -6 -6 -6 -5 -4 -4 -4 -3 -3 -2 -1 -1 -1 -1 -1 -1 -0 -0 -1 0 1 0 1 3 3 4 5 6 8 8 8 8 9 9 11 12 12 12
-4 -5 -5 -6 -6 -7 -7 -6 -6 -5 -5 -4 -4 -4 -4 -3 -2 -2 -2 -2 -3 -3 -2 -2 -2 -1 -1 -0 -1 -0 1 2 3 4 4 3 4 4 6 7 8 10 11
-5 -5 -6 -6 -6 -7 -7 -7 -7 -6 -6 -5 -5 -5 -4 -4 -4 -4 -3 -3 -4 -4 -4 -4 -3 -3 -3 -2 -2 -1 -1 -0 0 1 1 1 -0 -1 -0 -1 1 3 8
-5 -6 -6 -7 -7 -7 -8 -8 -8 -7 -7 -6 -6 -6 -5 -5 -5 -5 -5 -5 -5 -5 -5 -5 -5 -4 -4 -4 -4 -4 -3 -3 -2 -2 -2 -2 -2 -3 -3 -3 -2 -2 3
-6 -6 -6 -7 -8 -8 -8 -8 -8 -8 -8 -7 -6 -7 -7 -6 -5 -6 -6 -6 -6 -6 -6 -6 -6 -6 -6 -5 -5 -5 -5 -5 -5 -4 -4 -4 -4 -4 -4 -4 -3 -3 -0
-6 -7 -7 -7 -8 -8 -8 -8 -9 -9 -9 -8 -8 -7 -7 -7 -7 -6 -8 -8 -8 -7 -8 -7 -7 -7 -6 -6 -6 -7 -6 -6 -6 -6 -5 -6 -5 -6 -5 -5 -5 -4 -3
-6 -7 -7 -7 -8 -8 -9 -9 -9 -9 -9 -9 -9 -8 -7 -7 -8 -8 -8 -9 -9 -9 -8 -8 -8 -8 -8 -7 -7 -7 -8 -7 -7 -7 -7 -7 -7 -7 -7 -6 -5 -5 -5
-7 -7 -7 -7 -8 -8 -9 -9 -9 -9 -9 -9 -10 -9 -9 -8 -8 -9 -9 -10 -11 -11 -10 -9 -9 -8 -8 -9 -9 -8 -8 -8 -8 -8 -8 -7 -7 -8 -8 -7 -7 -6 -5
-6 -7 -7 -7 -8 -8 -9 -9 -9 -10 -10 -10 -10 -10 -9 -9 -9 -9 -11 -11 -12 -12 -12 -12 -10 -10 -9 -10 -10 -11 -11 -10 -8 -6 -7 -6 -7 -7 -7 -8 -9 -7 -7
-6 -6 -7 -7 -7 -8 -8 -9 -9 -10 -10 -10 -10 -11 -10 -10 -10 -10 -11 -12 -13 -13 -13 -13 -12 -12 -11 -11 -12 -12 -13 -11 -10 -10 -10 -9 -8 -7 -7 -7 -8 -9 -9
-6 -6 -7 -7 -8 -8 -8 -9 -10 -10 -10 -10 -10 -11 -11 -11 -11 -11 -11 -12 -12 -13 -14 -14 -14 -13 -14 -13 -14 -14 -13 -12 -12 -12 -12 -12 -12 -10 -9 -8 -8 -8 -8
-6 -7 -7 -7 -8 -8 -9 -9 -10 -10 -10 -10 -10 -11 -10 -11 -11 -12 -12 -13 -14 -14 -15 -15 -15 -15 -14 -13 -15 -15 -14 -14 -15 -15 -16 -15 -14 -13 -11 -10 -9 -9 -7
-6 -7 -7 -7 -8 -8 -8 -9 -9 -10 -10 -10 -10 -10 -10 -10 -11 -11 -12 -12 -12 -13 -12 -12 -13 -14 -14 -15 -15 -15 -15 -16 -16 -16 -16 -14 -13 -13 -12 -13 -12 -11 -10
-7 -7 -8 -8 -8 -8 -9 -9 -9 -9 -9 -10 -10 -10 -10 -10 -10 -11 -12 -12 -13 -13 -13 -13 -14 -15 -15 -16 -16 -17 -17 -17 -17 -17 -17 -17 -16 -15 -14 -13 -13 -12 -11
-7 -8 -8 -8 -8 -9 -9 -9 -9 -9 -10 -10 -10 -10 -11 -10 -10 -11 -12 -12 -13 -14 -14 -15 -16 -16 -16 -17 -17 -17 -17 -17 -18 -18 -18 -18 -18 -17 -17 -15 -15 -14 -13
-7 -8 -8 -9 -9 -9 -10 -10 -10 -11 -11 -11 -11 -11 -11 -11 -11 -11 -12 -13 -14 -14 -15 -15 -16 -16 -17 -17 -17 -18 -18 -18 -18 -18 -18 -19 -19 -19 -18 -17 -16 -15 -14
-8 -8 -8 -9 -9 -10 -10 -10 -11 -11 -11 -11 -12 -12 -12 -12 -12 -12 -13 -13 -14 -14 -15 -15 -15 -16 -16 -17 -17 -17 -18 -18 -18 -19 -19 -19 -19 -20 -19 -18 -17 -17 -16
-8 -9 -9 -9 -10 -10 -10 -11 -11 -11 -11 -12 -12 -12 -12 -12 -13 -13 -13 -14 -14 -14 -14 -15 -15 -15 -16 -16 -16 -17 -18 -18 -18 -19 -19 -20 -20 -21 -20 -19 -19 -18 -17
-9 -9 -9 -9 -10 -10 -10 -11 -11 -11 -11 -12 -12 -12 -12 -12 -13 -13 -13 -13 -14 -14 -14 -15 -15 -15 -16 -16 -16 -17 -18 -18 -18 -19 -19 -20 -20 -20 -20 -20 -19 -19 -17
-9 -9 -9 -10 -10 -10 -11 -11 -11 -11 -11 -12 -12 -12 -13 -13 -13 -13 -13 -13 -13 -14 -14 -14 -15 -15 -15 -16 -16 -17 -18 -18 -19 -19 -20 -20 -20 -20 -20 -20 -20 -19 -18
-9 -9 -10 -10 -10 -10 -11 -11 -11 -11 -11 -12 -12 -12 -12 -13 -13 -13 -14 -14 -14 -14 -14 -14 -15 -15 -15 -16 -17 -17 -18 -18 -19 -19 -20 -20 -20 -20 -20 -20 -20 -19 -19
-10 -10 -10 -10 -11 -11 -11 -11 -11 -11 -12 -12 -12 -13 -13 -13 -14 -14 -15 -15 -15 -15 -14 -14 -14 -15 -15 -16 -16 -17 -18 -18 -19 -19 -20 -20 -20 -21 -21 -21 -20 -20 -19
-10 -10 -11 -11 -11 -11 -11 -11 -11 -12 -12 -13 -13 -14 -15 -15 -15 -16 -16 -16 -16 -16 -16 -16 -15 -15 -15 -16 -16 -17 -17 -18 -19 -19 -20 -20 -21 -21 -21 -20 -20 -20 -19
-10 -11 -11 -12 -12 -12 -12 -12 -12 -13 -14 -15 -15 -16 -16 -17 -17 -18 -18 -18 -18 -18 -18 -17 -17 -17 -17 -17 -17 -17 -17 -18 -18 -19 -20 -20 -21 -21 -21 -20 -20 -19 -18
-10 -11 -11 -12 -12 -12 -13 -14 -14 -15 -16 -16 -17 -18 -18 -19 -19 -20 -20 -20 -20 -20 -20 -20 -19 -19 -18 -18 -17 -17 -18 -18 -18 -19 -20 -20 -21 -21 -21 -20 -20 -19 -19

GFSGL_925_temp_147.txt.gz
Temp
-5 -5 -5 -5 -6 -6 -6 -6 -5 -5 -4 -4 -4 -4 -3 -3 -2 -1 0 1 1 2 3 5 3 4 3 5 8 10 7 9 14 11 10 10 10 10 11 11 12 12 13
-5 -6 -6 -6 -6 -7 -7 -6 -6 -5 -5 -5 -4 -4 -4 -4 -4 -3 -2 -2 -2 -1 -0 0 0 1 1 1 1 2 3 5 8 10 5 5 5 6 7 8 9 8 9
-5 -6 -7 -7 -7 -7 -7 -7 -7 -6 -6 -6 -5 -5 -5 -5 -5 -5 -5 -4 -4 -4 -3 -2 -1 -1 -1 -0 0 -0 0 1 2 3 2 1 1 1 2 3 6 7 4
-6 -5 -6 -7 -7 -6 -7 -7 -7 -7 -6 -7 -6 -6 -6 -6 -6 -6 -6 -6 -5 -5 -5 -4 -4 -3 -3 -2 -2 -2 -1 -1 -0 -0 -0 -1 -1 -2 -1 -2 0 3 1
-6 -6 -6 -6 -7 -6 -7 -7 -7 -6 -7 -7 -7 -7 -7 -7 -7 -6 -6 -7 -6 -6 -6 -6 -5 -4 -4 -5 -5 -4 -3 -3 -2 -2 -2 -2 -3 -3 -3 -3 -2 -1 2
-5 -5 -6 -6 -6 -7 -6 -7 -7 -6 -6 -7 -7 -8 -8 -8 -8 -8 -8 -7 -7 -7 -6 -6 -6 -6 -6 -6 -6 -5 -6 -4 -3 -3 -4 -3 -4 -4 -4 -3 -3 -2 1
-5 -5 -6 -6 -6 -7 -7 -7 -7 -7 -7 -7 -7 -7 -8 -8 -8 -8 -9 -8 -8 -7 -7 -7 -7 -7 -7 -6 -6 -6 -6 -6 -6 -5 -5 -6 -5 -6 -5 -4 -4 -3 -3
-5 -6 -6 -6 -7 -7 -7 -7 -7 -7 -8 -8 -8 -7 -8 -9 -9 -8 -8 -9 -9 -9 -9 -8 -8 -8 -8 -7 -6 -7 -8 -8 -7 -7 -7 -7 -7 -7 -7 -6 -5 -4 -3
-6 -6 -7 -7 -7 -7 -8 -8 -8 -8 -8 -9 -9 -9 -8 -8 -9 -10 -8 -9 -10 -10 -10 -10 -9 -9 -10 -9 -8 -7 -9 -10 -9 -9 -9 -8 -9 -9 -9 -7 -7 -5 -4
-6 -7 -7 -8 -8 -9 -9 -9 -8 -9 -9 -9 -10 -10 -10 -9 -10 -10 -10 -10 -11 -11 -12 -11 -11 -11 -11 -11 -10 -10 -10 -12 -10 -8 -8 -8 -8 -8 -9 -9 -9 -7 -6
-6 -7 -7 -8 -8 -9 -9 -9 -9 -10 -10 -10 -10 -11 -11 -11 -10 -11 -12 -12 -12 -12 -12 -12 -13 -12 -12 -13 -13 -13 -14 -14 -12 -12 -11 -11 -10 -10 -10 -11 -10 -9 -8
-6 -7 -7 -7 -8 -9 -9 -9 -9 -9 -9 -9 -9 -9 -11 -11 -11 -11 -12 -13 -13 -13 -13 -13 -14 -14 -14 -14 -14 -15 -13 -14 -14 -13 -13 -13 -13 -12 -12 -12 -10 -10 -9
-6 -6 -7 -7 -7 -8 -8 -9 -8 -9 -9 -8 -9 -9 -9 -10 -11 -12 -12 -13 -14 -14 -14 -15 -15 -15 -15 -15 -15 -15 -15 -15 -15 -14 -14 -14 -14 -14 -13 -12 -12 -11 -10
-6 -6 -7 -7 -7 -8 -8 -8 -9 -9 -9 -9 -9 -9 -9 -9 -10 -11 -11 -12 -13 -14 -14 -15 -15 -15 -15 -16 -15 -16 -16 -16 -16 -16 -16 -15 -15 -14 -13 -13 -12 -11 -10
-6 -6 -7 -7 -8 -8 -8 -8 -8 -9 -9 -9 -10 -10 -10 -10 -10 -11 -11 -12 -13 -13 -14 -14 -14 -14 -14 -14 -15 -15 -16 -16 -16 -16 -16 -16 -15 -15 -14 -14 -13 -12 -10
-6 -7 -7 -8 -8 -8 -8 -9 -10 -10 -10 -10 -10 -10 -11 -10 -11 -11 -12 -12 -13 -14 -14 -14 -14 -15 -14 -14 -15 -15 -15 -16 -17 -16 -16 -16 -16 -16 -15 -14 -13 -12 -12
-7 -7 -8 -8 -9 -9 -9 -9 -10 -11 -11 -11 -11 -11 -11 -11 -11 -12 -12 -13 -13 -13 -13 -14 -14 -14 -14 -14 -15 -15 -15 -16 -17 -17 -17 -17 -18 -17 -16 -15 -14 -14 -13
-7 -8 -9 -9 -10 -10 -11 -11 -11 -11 -11 -12 -12 -12 -12 -12 -12 -12 -13 -13 -12 -13 -13 -13 -14 -14 -14 -14 -15 -15 -16 -17 -17 -18 -18 -18 -18 -18 -17 -16 -15 -15 -15
-8 -8 -9 -9 -10 -10 -11 -11 -11 -12 -12 -12 -12 -12 -12 -12 -12 -12 -13 -13 -13 -13 -13 -13 -14 -14 -14 -15 -15 -16 -17 -17 -18 -18 -18 -18 -19 -19 -18 -17 -17 -16 -16
-9 -9 -9 -10 -10 -11 -11 -11 -11 -11 -12 -12 -12 -12 -13 -12 -12 -13 -13 -14 -14 -14 -13 -13 -13 -14 -14 -15 -15 -16 -16 -16 -17 -17 -18 -18 -19 -19 -19 -18 -17 -17 -16
-9 -9 -9 -10 -10 -11 -11 -11 -11 -12 -11 -11 -12 -12 -13 -13 -13 -13 -13 -14 -14 -14 -15 -14 -14 -14 -15 -15 -15 -15 -16 -17 -17 -18 -18 -18 -19 -19 -19 -18 -18 -17 -17
-9 -10 -10 -10 -10 -11 -11 -11 -11 -12 -12 -12 -12 -13 -13 -14 -14 -14 -15 -15 -16 -16 -16 -16 -16 -16 -15 -15 -15 -16 -16 -17 -17 -17 -18 -19 -19 -19 -19 -19 -18 -18 -17
-10 -10 -10 -11 -11 -11 -11 -12 -12 -12 -12 -13 -14 -15 -15 -15 -16 -16 -17 -17 -17 -18 -18 -18 -18 -18 -17 -17 -17 -17 -17 -17 -17 -18 -19 -20 -20 -19 -20 -19 -19 -19 -18
-10 -10 -11 -11 -11 -12 -12 -12 -13 -13 -14 -15 -16 -16 -17 -17 -17 -18 -19 -19 -20 -20 -20 -20 -19 -19 -19 -19 -19 -18 -18 -18 -19 -19 -19 -20 -20 -20 -20 -20 -19 -19 -19
-10 -11 -11 -11 -12 -12 -13 -13 -14 -15 -16 -17 -18 -18 -19 -19 -19 -20 -21 -21 -22 -22 -22 -22 -22 -22 -22 -21 -21 -20 -20 -19 -18 -19 -19 -20 -20 -21 -21 -21 -20 -20 -19
-10 -11 -11 -12 -13 -13 -14 -16 -17 -17 -18 -19 -20 -20 -21 -21 -21 -23 -23 -23 -24 -24 -24 -24 -24 -23 -23 -22 -22 -21 -20 -19 -19 -19 -19 -20 -21 -21 -21 -21 -21 -20 -19

GFSGL_925_temp_150.txt.gz
Temp
-3 -3 -3 -4 -4 -4 -5 -5 -5 -5 -5 -4 -4 -4 -4 -4 -4 -4 -3 -3 -2 -1 -1 0 1 2 3 5 6 8 9 10 15 9 8 6 5 6 8 9 10 10 8
-5 -5 -4 -5 -5 -5 -5 -5 -5 -6 -5 -5 -5 -5 -5 -5 -5 -5 -5 -5 -4 -3 -3 -3 -2 -1 -0 1 2 2 3 4 8 14 3 4 0 2 3 5 6 6 5
-4 -5 -5 -5 -5 -5 -6 -5 -5 -6 -6 -6 -6 -6 -6 -6 -6 -6 -5 -5 -5 -5 -4 -4 -4 -4 -3 -2 -1 -0 1 1 2 3 1 0 -0 1 2 1 2 3 3
-4 -2 -5 -5 -3 -3 -5 -5 -4 -5 -6 -7 -7 -7 -7 -7 -6 -6 -6 -5 -6 -6 -6 -5 -5 -5 -4 -4 -4 -2 -1 -1 -0 -0 -1 -1 -1 -2 -1 -1 -0 1 2
-4 -3 -2 -3 -4 -3 -3 -3 -3 -3 -4 -5 -7 -8 -7 -7 -7 -6 -6 -7 -6 -6 -6 -6 -5 -5 -5 -5 -5 -5 -3 -3 -2 -2 -2 -2 -3 -3 -3 -2 -2 -0 1
-1 -2 -2 -3 -3 -3 -3 -3 -3 -3 -3 -3 -4 -6 -8 -8 -8 -7 -7 -7 -7 -7 -7 -7 -7 -6 -6 -6 -6 -6 -6 -4 -4 -3 -4 -3 -4 -5 -4 -3 -3 -2 -1
-1 -2 -2 -3 -3 -3 -3 -3 -3 -3 -4 -4 -4 -4 -6 -8 -7 -7 -6 -7 -8 -8 -8 -7 -7 -7 -6 -5 -6 -6 -7 -6 -6 -5 -5 -5 -6 -6 -5 -4 -4 -2 -2
-2 -2 -3 -3 -3 -4 -4 -4 -4 -4 -5 -5 -5 -5 -6 -8 -8 -7 -6 -6 -7 -8 -9 -8 -8 -8 -7 -5 -5 -6 -7 -8 -7 -7 -7 -7 -7 -7 -6 -5 -4 -3 -2
-3 -3 -4 -4 -4 -4 -5 -5 -5 -5 -6 -6 -7 -7 -7 -8 -9 -8 -6 -6 -7 -8 -9 -10 -9 -10 -10 -8 -6 -6 -8 -9 -9 -9 -9 -9 -9 -9 -8 -5 -5 -3 -3
-5 -5 -5 -5 -6 -6 -6 -6 -6 -6 -6 -7 -8 -8 -9 -9 -10 -10 -8 -7 -8 -8 -9 -10 -11 -11 -11 -11 -9 -9 -10 -10 -10 -9 -9 -8 -9 -9 -9 -8 -8 -6 -5
-5 -5 -5 -6 -7 -6 -6 -6 -7 -7 -7 -7 -7 -8 -9 -10 -10 -11 -11 -10 -9 -9 -10 -11 -12 -12 -12 -12 -12 -12 -12 -11 -10 -10 -9 -9 -9 -9 -9 -9 -9 -8 -7
-4 -4 -5 -5 -6 -7 -7 -6 -6 -6 -6 -6 -6 -6 -7 -8 -10 -11 -11 -12 -11 -11 -11 -12 -13 -13 -13 -13 -13 -13 -13 -11 -11 -10 -10 -10 -10 -10 -10 -10 -10 -9 -9
-4 -4 -4 -5 -5 -6 -6 -6 -5 -5 -6 -5 -6 -6 -6 -7 -8 -9 -10 -11 -12 -11 -12 -13 -12 -13 -12 -12 -13 -13 -13 -12 -12 -11 -11 -11 -11 -11 -10 -10 -10 -9 -8
-3 -3 -4 -4 -5 -5 -5 -5 -6 -6 -6 -6 -6 -6 -7 -7 -9 -9 -9 -10 -11 -11 -11 -11 -11 -11 -11 -11 -11 -12 -12 -13 -12 -12 -12 -12 -12 -12 -11 -11 -10 -9 -8
-3 -3 -4 -4 -4 -5 -6 -7 -7 -9 -9 -7 -8 -8 -8 -8 -10 -11 -11 -11 -12 -12 -10 -10 -10 -10 -10 -10 -11 -11 -12 -12 -13 -12 -12 -12 -12 -12 -12 -11 -10 -10 -9
-3 -3 -4 -4 -5 -5 -5 -7 -10 -10 -10 -10 -10 -10 -9 -10 -11 -11 -12 -12 -12 -12 -10 -10 -10 -10 -11 -11 -11 -11 -12 -12 -13 -13 -13 -13 -13 -13 -13 -12 -11 -11 -10
-3 -4 -5 -5 -5 -6 -6 -7 -7 -10 -10 -11 -11 -11 -11 -11 -11 -11 -12 -12 -12 -11 -10 -10 -10 -10 -10 -11 -11 -12 -12 -13 -13 -13 -13 -13 -14 -14 -13 -13 -12 -12 -11
-5 -6 -6 -7 -7 -7 -8 -8 -8 -8 -8 -9 -10 -11 -12 -12 -12 -12 -12 -10 -10 -10 -10 -10 -10 -10 -10 -11 -11 -12 -13 -13 -13 -14 -14 -14 -14 -14 -14 -14 -13 -13 -13
-7 -7 -7 -8 -8 -8 -9 -9 -9 -9 -9 -9 -9 -9 -10 -11 -12 -12 -11 -10 -11 -10 -10 -10 -10 -10 -11 -11 -12 -13 -13 -13 -14 -14 -14 -15 -15 -15 -15 -15 -14 -14 -14
-7 -8 -8 -8 -8 -8 -8 -8 -8 -9 -9 -8 -8 -9 -10 -10 -10 -10 -10 -11 -11 -11 -11 -11 -11 -11 -12 -12 -12 -13 -13 -13 -13 -14 -14 -15 -15 -16 -15 -15 -15 -15 -14
-6 -8 -8 -8 -8 -8 -8 -8 -8 -8 -8 -8 -8 -10 -11 -12 -11 -11 -11 -12 -12 -13 -13 -13 -13 -13 -13 -13 -13 -13 -13 -13 -14 -14 -15 -15 -16 -16 -16 -16 -15 -15 -15
-7 -7 -8 -7 -8 -8 -8 -8 -8 -9 -9 -9 -9 -10 -12 -12 -12 -12 -12 -13 -14 -14 -14 -15 -15 -15 -15 -15 -15 -14 -14 -14 -14 -15 -15 -16 -16 -16 -16 -16 -16 -16 -16
-7 -8 -8 -8 -8 -9 -9 -9 -9 -9 -9 -10 -11 -11 -12 -13 -13 -14 -14 -15 -16 -16 -16 -17 -17 -17 -16 -17 -17 -16 -16 -15 -15 -15 -16 -16 -16 -16 -17 -17 -17 -17 -16
-8 -9 -9 -9 -9 -9 -9 -9 -10 -11 -12 -12 -12 -13 -13 -14 -15 -15 -16 -17 -18 -18 -19 -19 -19 -19 -19 -19 -20 -18 -18 -19 -19 -18 -17 -17 -17 -17 -17 -17 -17 -17 -17
-9 -9 -10 -10 -9 -10 -10 -11 -11 -12 -13 -13 -14 -15 -15 -16 -17 -17 -18 -19 -20 -21 -21 -21 -21 -21 -22 -22 -22 -21 -21 -22 -21 -20 -19 -17 -17 -17 -18 -18 -18 -18 -18
-9 -10 -10 -10 -10 -11 -12 -12 -13 -14 -15 -16 -16 -17 -18 -18 -19 -20 -20 -21 -22 -23 -22 -22 -23 -23 -24 -23 -22 -23 -24 -23 -22 -20 -19 -18 -18 -18 -18 -18 -18 -18 -18